[[{"header":{"parameterUnit":"m.s-1","parameterCategory":1,"la1":30.6,"la2":29.2853,"lo1":-89.7004,"lo2":-87.6739,"dy":0.0162,"dx":0.0183,"nx":112,"ny":82,"refTime":"2024-04-24T12:00:00:Z","depth":0,"parameterNumber":2,"parameterNumberName":"U-component_of_WINDS"},"data":[0.0,0.0,0.0,0.0,0.0,0.0,0.0,0.0,0.0,0.0,0.0,0.0,0.0,0.0,0.0,0.0,0.0,0.0,0.0,0.0,0.0,0.0,0.0,0.0,0.0,0.0,0.0,0.0,0.0,0.0,0.0,0.0,0.0,0.0,0.0,0.0,0.0,0.0,0.0,0.0,0.0,0.0,0.0,0.0,0.0,0.0,0.0,0.0,0.0,0.0,0.0,0.0,0.0,0.0,0.0,0.0,0.0,0.0,0.0,0.0,0.0,0.0,0.0,0.0,0.0,0.0,0.0,0.0,0.0,0.0,0.0,0.0,0.0,0.0,0.0,0.0,0.0,0.0,0.0,0.0,0.0,0.0,0.0,0.0,0.0,0.0,0.0,0.0,0.0,0.0,-5.6764,-6.0912,-6.8214,-7.2811,-7.2886,-7.1298,-6.7161,-5.9699,0.0,0.0,0.0,0.0,0.0,0.0,0.0,0.0,0.0,0.0,0.0,0.0,0.0,0.0,0.0,0.0,0.0,0.0,0.0,0.0,0.0,0.0,0.0,0.0,0.0,0.0,0.0,0.0,0.0,0.0,0.0,0.0,0.0,0.0,0.0,0.0,0.0,0.0,0.0,0.0,0.0,0.0,0.0,0.0,0.0,0.0,0.0,0.0,0.0,0.0,0.0,0.0,0.0,0.0,0.0,0.0,0.0,0.0,0.0,0.0,0.0,0.0,0.0,0.0,0.0,0.0,0.0,0.0,0.0,0.0,0.0,0.0,0.0,0.0,0.0,0.0,0.0,0.0,0.0,0.0,0.0,0.0,0.0,0.0,0.0,0.0,0.0,0.0,0.0,0.0,0.0,0.0,0.0,0.0,0.0,0.0,0.0,0.0,0.0,0.0,0.0,0.0,0.0,0.0,-5.5996,-6.4264,-6.8656,-7.1002,-7.1041,-6.8426,-6.4532,-5.9186,0.0,0.0,0.0,0.0,0.0,0.0,0.0,0.0,0.0,0.0,0.0,0.0,0.0,0.0,0.0,0.0,0.0,0.0,0.0,0.0,0.0,0.0,0.0,0.0,0.0,0.0,0.0,0.0,0.0,0.0,0.0,0.0,0.0,0.0,0.0,0.0,0.0,0.0,0.0,0.0,0.0,0.0,0.0,0.0,0.0,0.0,0.0,0.0,0.0,0.0,0.0,0.0,0.0,0.0,0.0,0.0,0.0,0.0,0.0,0.0,0.0,0.0,0.0,0.0,0.0,0.0,0.0,0.0,0.0,0.0,0.0,0.0,0.0,0.0,0.0,0.0,0.0,0.0,0.0,0.0,0.0,0.0,0.0,0.0,0.0,0.0,0.0,0.0,0.0,0.0,0.0,0.0,0.0,0.0,0.0,0.0,0.0,0.0,0.0,0.0,0.0,0.0,0.0,-5.3144,-5.7547,-6.502,-6.7435,-6.8494,-6.8535,-6.6131,-6.2267,-5.6808,-5.4451,0.0,0.0,0.0,0.0,0.0,0.0,0.0,0.0,0.0,0.0,0.0,0.0,0.0,0.0,0.0,0.0,0.0,0.0,0.0,0.0,0.0,0.0,0.0,0.0,0.0,0.0,0.0,0.0,0.0,0.0,0.0,0.0,0.0,0.0,0.0,0.0,0.0,0.0,0.0,0.0,0.0,0.0,0.0,0.0,0.0,0.0,0.0,0.0,0.0,0.0,0.0,0.0,0.0,0.0,0.0,0.0,0.0,0.0,0.0,0.0,0.0,0.0,0.0,0.0,0.0,0.0,0.0,0.0,0.0,0.0,0.0,0.0,0.0,0.0,0.0,0.0,0.0,0.0,0.0,0.0,0.0,0.0,0.0,0.0,0.0,0.0,0.0,0.0,0.0,0.0,0.0,0.0,0.0,0.0,0.0,0.0,0.0,0.0,0.0,0.0,0.0,0.0,-5.562,-5.9085,-6.4562,-6.5615,-6.591,-6.5952,-6.3593,-5.989,-5.4768,-5.1692,0.0,0.0,0.0,0.0,0.0,0.0,0.0,0.0,0.0,0.0,0.0,0.0,0.0,0.0,0.0,0.0,0.0,0.0,0.0,0.0,0.0,0.0,0.0,0.0,0.0,0.0,0.0,0.0,0.0,0.0,0.0,0.0,0.0,0.0,0.0,0.0,0.0,0.0,0.0,0.0,0.0,0.0,0.0,0.0,0.0,0.0,0.0,0.0,0.0,0.0,0.0,0.0,0.0,0.0,0.0,0.0,0.0,0.0,0.0,0.0,0.0,0.0,0.0,0.0,0.0,0.0,0.0,0.0,0.0,0.0,0.0,0.0,0.0,0.0,0.0,0.0,0.0,0.0,0.0,0.0,0.0,0.0,0.0,0.0,0.0,0.0,0.0,0.0,0.0,0.0,0.0,0.0,0.0,0.0,0.0,0.0,0.0,0.0,0.0,0.0,0.0,0.0,-5.5123,-5.9205,-6.3069,-6.3501,-6.3534,-6.3534,-6.0281,-5.7058,-5.4494,-4.9639,0.0,0.0,0.0,0.0,0.0,0.0,0.0,0.0,0.0,0.0,0.0,0.0,0.0,0.0,0.0,0.0,0.0,0.0,0.0,0.0,0.0,0.0,0.0,0.0,0.0,0.0,0.0,0.0,0.0,0.0,0.0,0.0,0.0,0.0,0.0,0.0,0.0,0.0,0.0,0.0,0.0,0.0,0.0,0.0,0.0,0.0,0.0,0.0,0.0,0.0,0.0,0.0,0.0,0.0,0.0,0.0,0.0,0.0,0.0,0.0,0.0,0.0,0.0,0.0,0.0,0.0,0.0,0.0,0.0,0.0,0.0,0.0,0.0,0.0,0.0,0.0,0.0,0.0,0.0,0.0,0.0,0.0,0.0,0.0,0.0,0.0,0.0,0.0,0.0,0.0,0.0,0.0,0.0,0.0,0.0,0.0,0.0,0.0,0.0,0.0,0.0,0.0,-5.3334,-5.7144,-6.0854,-6.1218,-6.1218,-6.1218,-5.9131,-5.6065,-5.2027,0.0,0.0,0.0,0.0,0.0,0.0,0.0,0.0,0.0,0.0,0.0,0.0,0.0,0.0,0.0,0.0,0.0,0.0,0.0,0.0,0.0,0.0,0.0,0.0,0.0,0.0,0.0,0.0,0.0,0.0,0.0,0.0,0.0,0.0,0.0,0.0,0.0,0.0,0.0,0.0,0.0,0.0,0.0,0.0,0.0,0.0,0.0,0.0,0.0,0.0,0.0,0.0,0.0,0.0,0.0,0.0,0.0,0.0,0.0,0.0,0.0,0.0,0.0,0.0,0.0,0.0,0.0,0.0,0.0,0.0,0.0,0.0,0.0,0.0,0.0,0.0,0.0,0.0,0.0,0.0,0.0,0.0,0.0,0.0,0.0,0.0,0.0,0.0,0.0,0.0,0.0,0.0,0.0,0.0,0.0,0.0,0.0,0.0,0.0,0.0,0.0,0.0,-4.8663,-5.2473,-5.6084,-5.933,-5.9661,-5.9562,-5.933,-5.7309,-5.4295,-5.0121,0.0,0.0,0.0,0.0,0.0,0.0,0.0,0.0,0.0,0.0,0.0,0.0,0.0,0.0,0.0,0.0,0.0,0.0,0.0,0.0,0.0,0.0,0.0,0.0,0.0,0.0,0.0,0.0,0.0,0.0,0.0,0.0,0.0,0.0,0.0,0.0,0.0,0.0,0.0,0.0,0.0,0.0,0.0,0.0,0.0,0.0,0.0,0.0,0.0,0.0,0.0,0.0,0.0,0.0,0.0,0.0,0.0,0.0,0.0,0.0,0.0,0.0,0.0,0.0,0.0,0.0,0.0,0.0,0.0,0.0,0.0,0.0,0.0,0.0,0.0,0.0,0.0,0.0,0.0,0.0,0.0,0.0,0.0,0.0,0.0,0.0,0.0,0.0,0.0,0.0,0.0,0.0,0.0,0.0,0.0,0.0,0.0,0.0,0.0,0.0,0.0,0.0,-4.8696,-5.2867,-5.6448,-5.8634,-5.8866,-5.8568,-5.7806,-5.446,-5.1446,0.0,0.0,0.0,0.0,0.0,0.0,0.0,0.0,0.0,0.0,0.0,0.0,0.0,0.0,0.0,0.0,0.0,0.0,0.0,0.0,0.0,0.0,0.0,0.0,0.0,0.0,0.0,0.0,0.0,0.0,0.0,0.0,0.0,0.0,0.0,0.0,0.0,0.0,0.0,0.0,0.0,0.0,0.0,0.0,0.0,0.0,0.0,0.0,0.0,0.0,0.0,0.0,0.0,0.0,0.0,0.0,0.0,0.0,0.0,0.0,0.0,0.0,0.0,0.0,0.0,0.0,0.0,0.0,0.0,0.0,0.0,0.0,0.0,0.0,0.0,0.0,0.0,0.0,0.0,0.0,0.0,0.0,0.0,0.0,0.0,0.0,0.0,0.0,0.0,0.0,0.0,0.0,0.0,0.0,0.0,0.0,0.0,0.0,0.0,0.0,0.0,0.0,0.0,-4.6543,-5.1048,-5.4527,-5.5686,-5.6746,-5.6614,-5.4858,-5.3268,-5.0586,-4.6245,0.0,0.0,0.0,0.0,0.0,0.0,0.0,0.0,0.0,0.0,0.0,0.0,0.0,0.0,0.0,0.0,0.0,0.0,0.0,0.0,0.0,0.0,0.0,0.0,0.0,0.0,0.0,0.0,0.0,0.0,0.0,0.0,0.0,0.0,0.0,0.0,0.0,0.0,0.0,0.0,0.0,0.0,0.0,0.0,0.0,0.0,0.0,0.0,0.0,0.0,0.0,0.0,0.0,0.0,0.0,0.0,0.0,0.0,0.0,0.0,0.0,0.0,0.0,0.0,0.0,0.0,0.0,0.0,0.0,0.0,0.0,0.0,0.0,0.0,0.0,0.0,0.0,0.0,0.0,0.0,0.0,0.0,0.0,0.0,0.0,0.0,0.0,0.0,0.0,0.0,0.0,0.0,0.0,0.0,0.0,0.0,0.0,0.0,0.0,0.0,0.0,0.0,-4.5549,-5.0021,-5.34,-5.4357,-5.5289,-5.5156,-5.3566,-5.2506,-5.0022,-4.5417,0.0,0.0,0.0,0.0,0.0,0.0,0.0,0.0,0.0,0.0,0.0,0.0,0.0,0.0,0.0,0.0,0.0,0.0,0.0,0.0,0.0,0.0,0.0,0.0,0.0,0.0,0.0,0.0,0.0,0.0,0.0,0.0,0.0,0.0,0.0,0.0,0.0,0.0,0.0,0.0,0.0,0.0,0.0,0.0,0.0,0.0,0.0,0.0,0.0,0.0,0.0,0.0,0.0,0.0,0.0,0.0,0.0,0.0,0.0,0.0,0.0,0.0,0.0,0.0,0.0,0.0,0.0,0.0,0.0,0.0,0.0,0.0,0.0,0.0,0.0,0.0,0.0,0.0,0.0,0.0,0.0,0.0,0.0,0.0,0.0,0.0,0.0,0.0,0.0,0.0,0.0,0.0,0.0,0.0,0.0,0.0,0.0,0.0,0.0,0.0,0.0,0.0,-4.5191,-4.929,-5.2561,-5.4014,-5.4316,-5.4088,-5.3265,-5.2009,-4.9724,-4.5914,0.0,0.0,0.0,0.0,0.0,0.0,0.0,0.0,0.0,0.0,0.0,0.0,0.0,0.0,0.0,0.0,0.0,0.0,0.0,0.0,0.0,0.0,0.0,0.0,0.0,0.0,0.0,0.0,0.0,0.0,0.0,0.0,0.0,0.0,0.0,0.0,0.0,0.0,0.0,0.0,0.0,0.0,0.0,0.0,0.0,0.0,0.0,0.0,0.0,0.0,0.0,0.0,0.0,0.0,0.0,0.0,0.0,0.0,0.0,0.0,-5.3655,-5.287,0.0,0.0,0.0,0.0,0.0,0.0,0.0,0.0,0.0,0.0,0.0,0.0,0.0,0.0,0.0,0.0,0.0,0.0,0.0,0.0,0.0,0.0,0.0,0.0,0.0,0.0,0.0,0.0,0.0,0.0,0.0,0.0,0.0,0.0,0.0,0.0,0.0,0.0,0.0,0.0,-4.2874,-4.6486,-4.9636,-5.1615,-5.2829,-5.3062,-5.1841,-5.1481,-4.9492,-4.5185,-4.27,0.0,0.0,0.0,0.0,0.0,0.0,0.0,0.0,0.0,0.0,0.0,0.0,0.0,0.0,0.0,0.0,0.0,0.0,0.0,0.0,0.0,0.0,0.0,0.0,0.0,0.0,0.0,0.0,0.0,0.0,0.0,0.0,0.0,0.0,0.0,0.0,0.0,0.0,0.0,0.0,0.0,0.0,0.0,0.0,0.0,0.0,0.0,0.0,0.0,0.0,0.0,0.0,0.0,0.0,0.0,0.0,0.0,0.0,0.0,-5.532,-5.4159,0.0,0.0,0.0,0.0,0.0,0.0,0.0,0.0,0.0,0.0,0.0,0.0,0.0,0.0,0.0,0.0,0.0,0.0,0.0,0.0,0.0,0.0,0.0,0.0,0.0,0.0,0.0,0.0,0.0,0.0,0.0,0.0,0.0,0.0,0.0,0.0,0.0,0.0,0.0,0.0,-4.2173,-4.531,-4.8167,-5.0231,-5.114,-5.1334,-5.0617,-4.9941,-4.8158,-4.4852,-4.2002,0.0,0.0,0.0,0.0,0.0,0.0,0.0,0.0,0.0,0.0,0.0,0.0,0.0,0.0,0.0,0.0,0.0,0.0,0.0,0.0,0.0,0.0,0.0,0.0,0.0,0.0,0.0,0.0,0.0,0.0,0.0,0.0,0.0,0.0,0.0,0.0,0.0,0.0,0.0,0.0,0.0,0.0,0.0,0.0,0.0,0.0,0.0,0.0,0.0,0.0,0.0,0.0,0.0,-6.0748,-6.0835,-6.0591,-5.9784,-5.9488,-5.9488,-5.7667,-5.6278,-5.5271,-5.4932,0.0,0.0,0.0,0.0,0.0,0.0,0.0,0.0,0.0,0.0,0.0,0.0,0.0,0.0,0.0,0.0,0.0,0.0,0.0,0.0,0.0,0.0,0.0,0.0,-4.5142,-4.4078,-4.2904,0.0,0.0,0.0,0.0,0.0,0.0,0.0,0.0,0.0,0.0,0.0,-4.2108,-4.47,-4.7087,-4.915,-4.9378,-4.9426,-4.9457,-4.8345,-4.6823,-4.4831,-4.1645,-3.8936,0.0,0.0,0.0,0.0,0.0,0.0,0.0,0.0,0.0,0.0,0.0,0.0,0.0,0.0,0.0,0.0,0.0,0.0,0.0,0.0,0.0,0.0,0.0,0.0,0.0,0.0,0.0,0.0,0.0,0.0,0.0,0.0,-5.5456,-5.601,0.0,0.0,0.0,0.0,0.0,0.0,0.0,0.0,0.0,0.0,0.0,0.0,0.0,-5.856,-5.9437,-6.1612,-6.2475,-6.2022,-6.4396,-6.4911,-6.3852,-6.2963,-6.2842,-6.322,-6.1876,0.0,-5.7263,-5.6155,0.0,0.0,0.0,0.0,0.0,0.0,0.0,0.0,0.0,0.0,0.0,0.0,0.0,0.0,0.0,0.0,0.0,0.0,0.0,0.0,0.0,0.0,-4.5873,-4.6785,-4.5493,-4.4192,0.0,-4.4092,-4.3019,-4.1849,-4.1078,0.0,0.0,0.0,0.0,0.0,0.0,0.0,-4.1656,-4.3382,-4.5193,-4.7334,-4.7731,-4.7955,-4.8143,-4.7776,-4.6868,-4.5311,-4.2907,-4.0865,-3.9335,-3.625,0.0,0.0,0.0,0.0,0.0,0.0,0.0,0.0,0.0,0.0,0.0,0.0,0.0,0.0,0.0,0.0,0.0,0.0,0.0,0.0,0.0,0.0,0.0,0.0,0.0,0.0,0.0,0.0,0.0,-5.4589,-5.62,-5.5054,-5.5659,-5.5144,0.0,0.0,0.0,0.0,0.0,0.0,0.0,0.0,0.0,-5.9105,-6.0261,-6.1317,-6.2363,-6.4335,-6.5005,-6.4325,-6.5909,-6.6381,-6.5828,-6.5031,-6.4851,-6.499,-6.4125,-6.2787,-6.1062,-5.9002,-5.7031,-5.5092,0.0,0.0,0.0,0.0,-5.1277,-5.1361,-5.1377,-5.0955,-5.0375,-5.0018,0.0,0.0,0.0,0.0,0.0,0.0,0.0,0.0,0.0,0.0,-4.6592,-4.7369,-4.709,-4.6534,-4.6234,-4.5532,-4.4236,0.0,-4.0835,-3.994,-3.9085,0.0,0.0,0.0,0.0,-3.9068,-4.1017,-4.2446,-4.3931,-4.5615,-4.5932,-4.6018,-4.6092,-4.5656,-4.4756,-4.3372,-4.1328,-3.9526,-3.8133,-3.5551,-3.4205,0.0,0.0,0.0,0.0,0.0,0.0,0.0,0.0,0.0,0.0,0.0,0.0,0.0,0.0,0.0,0.0,0.0,0.0,0.0,0.0,0.0,0.0,0.0,0.0,0.0,0.0,0.0,0.0,-5.5932,-5.7455,-5.4975,-5.7355,-5.7373,0.0,0.0,0.0,0.0,0.0,0.0,-5.7654,-5.8828,-6.0442,-6.2465,-6.3538,-6.4672,-6.5874,-6.6869,-6.7231,-6.6912,-6.7231,-6.7289,-6.7115,-6.6476,-6.607,-6.5896,-6.5257,-6.4706,-6.4043,-6.1143,-5.8991,-5.7226,-5.5315,-5.4152,-5.3497,-5.2826,-5.248,-5.2453,-5.2881,-5.2426,-5.1527,-5.1038,-4.9591,-4.7804,-4.6794,0.0,0.0,0.0,0.0,-4.399,-4.5274,-4.6189,-4.6952,-4.7637,-4.8014,-4.7938,-4.6981,-4.6185,-4.4923,0.0,-4.1291,-4.0397,-3.9661,0.0,0.0,-3.7948,-3.8587,-3.9586,-4.1008,-4.2166,-4.3225,-4.4225,-4.4398,-4.4381,-4.4234,-4.3543,-4.2707,-4.1695,-3.9912,-3.8465,-3.7468,-3.5495,-3.4352,-3.4265,0.0,0.0,0.0,0.0,0.0,0.0,0.0,0.0,0.0,0.0,0.0,0.0,0.0,0.0,0.0,0.0,0.0,0.0,0.0,0.0,0.0,0.0,0.0,0.0,0.0,0.0,0.0,0.0,0.0,-5.8105,-6.1595,0.0,0.0,0.0,0.0,-5.7786,-5.9556,-6.1116,-6.2138,-6.4564,-6.6131,-6.66,-6.7812,-6.8799,-6.9564,-6.8973,-6.9002,-6.9583,-6.9002,-6.8421,-6.7812,-6.7144,-6.6506,-6.5896,-6.5257,-6.4967,-6.4677,-6.1486,-5.9452,-5.7939,-5.4793,-5.3215,-5.2574,-5.1882,-5.2057,-5.2558,-5.2617,-5.2158,-5.1817,-5.2949,-5.0801,-4.7567,-4.6305,-4.4632,0.0,0.0,-4.4836,-4.5082,-4.6388,-4.6749,-4.6952,-4.7637,-4.7346,-4.6865,-4.6807,-4.5837,-4.4734,0.0,-4.3325,-4.2536,-4.1456,0.0,-4.0275,-4.0468,-4.0411,-4.0793,-4.207,-4.2901,-4.337,-4.3387,-4.3595,-4.3496,-4.2836,-4.2027,-4.1496,-4.1437,-4.0013,-3.917,-3.9082,-3.7194,-3.5962,-3.5517,-3.368,0.0,0.0,0.0,0.0,0.0,0.0,0.0,0.0,0.0,0.0,0.0,0.0,0.0,0.0,0.0,0.0,0.0,0.0,0.0,0.0,0.0,0.0,0.0,0.0,0.0,0.0,0.0,0.0,-6.2881,-6.5813,0.0,-6.1143,-6.1527,-6.1964,-6.1525,-6.3947,-6.595,-6.7101,-6.8439,-6.9457,-6.9931,-7.0424,-7.057,-7.0395,-7.0163,-6.9757,-6.9147,-6.8509,-6.787,-6.7202,-6.6564,-6.6157,-6.5896,-6.5257,-6.4996,-6.4822,-6.2877,-6.1542,-6.0467,-5.7681,-5.62,-5.5503,-5.4458,-5.4197,-5.4458,-5.4894,-5.4604,-5.3849,-5.2688,-5.0249,-4.7608,-4.6766,-4.5721,-4.5024,-4.5895,-4.6446,-4.6853,-4.7317,-4.7753,-4.7851,-4.7317,-4.6952,-4.6662,-4.6301,-4.5866,-4.5459,-4.5256,-4.4008,-4.2785,-4.2076,-4.1365,-4.0771,-4.0529,-4.0704,-4.1022,-4.1488,-4.2129,-4.2536,-4.2536,-4.2619,-4.2398,-4.1726,-4.1383,-4.0673,-3.9421,-3.885,-3.8202,-3.7389,-3.5503,-3.4608,-3.4816,-3.255,-3.1537,0.0,0.0,0.0,0.0,0.0,0.0,0.0,0.0,0.0,0.0,0.0,0.0,0.0,0.0,0.0,0.0,0.0,0.0,0.0,0.0,0.0,0.0,0.0,0.0,0.0,-6.2821,-6.6144,-6.5369,-6.8802,-6.9486,-6.481,-6.6049,-6.6999,-6.6497,-6.8547,-7.0192,-7.1034,-7.1469,-7.1789,-7.1992,-7.1992,-7.1673,-7.1034,-7.0831,-7.0192,-6.9147,-6.8276,-6.7522,-6.6854,-6.6215,-6.5809,-6.5577,-6.517,-6.4996,-6.488,-6.3632,-6.2703,-6.1861,-5.9539,-5.8377,-5.7826,-5.652,-5.6055,-5.6026,-5.5823,-5.5474,-5.4691,-5.2136,-4.9988,-4.8304,-4.7666,-4.6882,-4.633,-4.6969,-4.7288,-4.7462,-4.7462,-4.7782,-4.7764,-4.6766,-4.6505,-4.6388,-4.5982,-4.5895,-4.5808,-4.5605,-4.4501,-4.347,-4.2956,-4.2233,-4.1552,-4.1033,-4.1244,-4.1424,-4.1424,-4.1831,-4.2092,-4.2092,-4.1889,-4.157,-4.1134,-4.0699,-3.9799,-3.8289,-3.7999,-3.7418,-3.6344,-3.5096,-3.4428,-3.4399,-3.2309,-3.1438,-3.1845,0.0,0.0,0.0,0.0,0.0,0.0,0.0,0.0,0.0,0.0,0.0,0.0,0.0,0.0,0.0,0.0,0.0,0.0,0.0,0.0,0.0,0.0,0.0,-5.9714,-6.4781,-6.7712,-6.55,-7.0584,-7.2555,-6.8035,-7.0679,-7.2689,-7.266,-7.3298,-7.3676,-7.3676,-7.3676,-7.3356,-7.2689,-7.2631,-7.2311,-7.1673,-7.1005,-7.0337,-6.9699,-6.8421,-6.7463,-6.6796,-6.6186,-6.5548,-6.4967,-6.4967,-6.4967,-6.4822,-6.3574,-6.2674,-6.189,-6.0032,-5.9277,-5.9074,-5.7768,-5.7274,-5.6984,-5.5184,-5.4487,-5.4023,-5.1527,-5.022,-4.9553,-4.8885,-4.7764,-4.6969,-4.7608,-4.7346,-4.6807,-4.6778,-4.6778,-4.6633,-4.604,-4.5895,-4.5895,-4.5895,-4.5895,-4.5692,-4.5024,-4.4879,-4.4676,-4.4066,-4.3427,-4.2789,-4.2179,-4.2092,0.0,-4.2092,-4.2092,-4.2092,-4.2092,-4.1512,-4.1105,-4.1047,-3.9915,-3.8899,-3.8173,-3.7564,-3.6925,-3.6257,-3.6199,-3.559,-3.4341,-3.3151,-3.251,-3.2481,0.0,0.0,0.0,0.0,0.0,0.0,0.0,0.0,0.0,0.0,0.0,0.0,0.0,0.0,0.0,0.0,0.0,0.0,0.0,0.0,0.0,-6.0904,-6.4298,-6.4769,-6.8083,-7.1024,-7.2771,-7.4678,-7.5333,-7.4082,-7.4445,-7.4518,-7.4024,-7.4605,-7.4982,-7.4982,-7.4982,-7.4692,-7.4024,-7.3095,-7.2311,-7.1673,-7.0134,-6.9031,-6.8392,-6.7086,-6.6128,-6.5489,-6.5315,-6.4909,-6.4328,-6.4793,-6.4473,-6.3545,-6.2703,-6.2006,-6.1309,-5.9858,-5.8726,-5.7797,-5.7448,-5.6723,-5.5852,-5.5329,-5.3965,-5.231,-5.1585,-4.9988,-4.8275,-4.8101,-4.7462,-4.6969,-4.7608,-4.7666,-4.7404,-4.694,-4.6778,-4.6633,-4.604,-4.5895,-4.5895,-4.5895,-4.5895,-4.5692,-4.5024,-4.4531,-4.4037,-4.3369,-4.3108,-4.2789,-4.2179,-4.2092,0.0,-4.2092,-4.2092,-4.2092,-4.2092,-4.1947,-4.125,-3.9828,-3.9392,-3.8318,-3.6322,-3.6031,-3.545,-3.4346,-3.379,-3.3151,-3.2307,-3.289,-3.2977,0.0,0.0,0.0,0.0,0.0,0.0,0.0,0.0,0.0,0.0,0.0,0.0,0.0,0.0,0.0,0.0,0.0,0.0,0.0,0.0,0.0,0.0,-6.4526,-6.7946,-6.9872,-7.1706,-7.3553,-7.5538,-7.6205,-7.6538,-7.6538,-7.6114,-7.5737,-7.5359,-7.5679,-7.5795,-7.5534,-7.5504,-7.5185,-7.4518,-7.356,-7.2602,-7.1673,-7.0308,-6.9031,-6.787,-6.6825,-6.5983,-6.5373,-6.5112,-6.4793,-6.4444,-6.4822,-6.4415,-6.3428,-6.247,-6.1571,0.0,0.0,0.0,0.0,0.0,-5.6055,-5.5329,-5.4807,-5.3297,-5.1527,-5.1004,-4.9611,-4.813,-4.7869,-4.7521,-4.7259,-4.7346,-4.7579,-4.7579,-4.6679,-4.6621,-4.6633,-4.604,-4.5895,-4.5895,-4.5895,-4.5895,-4.5692,-4.5024,-4.4414,0.0,-4.3108,-4.2789,-4.2498,-4.215,-4.2092,-4.2092,-4.2092,-4.2092,-4.2092,-4.2092,-4.1831,-4.1105,-3.9683,-3.9363,0.0,0.0,0.0,-3.484,-3.3561,-3.2861,0.0,0.0,0.0,-3.3151,-3.3325,0.0,0.0,0.0,-3.3499,-3.3325,0.0,0.0,0.0,0.0,0.0,0.0,0.0,0.0,0.0,0.0,0.0,0.0,0.0,0.0,0.0,0.0,-6.783,-7.0798,-7.4242,-7.5014,-7.5349,-7.5534,-7.6114,-7.6538,-7.6538,-7.6538,-7.6538,-7.6538,-7.6538,-7.6201,-7.565,-7.5621,0.0,0.0,0.0,-7.295,-7.1586,-7.086,-6.9583,-6.7754,-6.7086,-6.6447,-6.5809,-6.5228,-6.4938,-6.488,-6.488,-6.4473,-6.3719,-6.2412,-6.1048,-5.9655,-5.8435,-5.771,-5.7129,-5.5707,-5.5184,-5.501,-5.382,0.0,0.0,-4.9939,-4.9069,-4.842,-4.784,-4.7666,-4.755,-4.6998,-4.723,-4.7404,-4.6185,-4.6301,-4.6592,-4.6011,-4.5895,-4.5895,-4.5895,-4.5837,-4.5576,-4.4908,-4.4298,-4.366,-4.2992,-4.244,-4.2092,-4.2092,-4.2092,-4.2092,-4.2092,-4.2092,-4.2092,-4.2092,0.0,0.0,-4.006,-3.9509,-3.8376,-3.6431,-3.5741,-3.4898,-3.3765,-3.3122,-3.3383,-3.4486,-3.347,-3.3467,-3.4632,-3.4084,-3.4375,-3.5363,-3.423,-3.3765,0.0,0.0,0.0,0.0,0.0,0.0,0.0,0.0,0.0,0.0,0.0,0.0,0.0,0.0,0.0,-6.6224,-6.9321,-7.2179,-7.4924,-7.584,-7.6293,-7.6334,-7.6375,-7.6538,-7.6538,-7.6538,-7.6538,-7.6538,-7.6538,-7.6479,-7.6288,-7.6288,-7.5737,-7.4605,-7.3937,-7.2747,-7.0918,-6.9757,-6.8479,-6.7057,0.0,0.0,-6.517,-6.5025,-6.4706,-6.4212,-6.4212,-6.3545,-6.2383,-6.1077,-5.9219,-5.7071,-5.6287,-5.652,-5.7013,-5.472,-5.3878,-5.3762,-5.3007,-5.1236,-4.9185,-4.8953,-4.8083,-4.7126,-4.7056,-4.6998,0.0,-4.6807,-4.6865,-4.6824,-4.6069,-4.5982,-4.604,-4.5924,-4.5895,-4.5895,-4.5895,-4.5459,-4.4908,-4.4269,-4.3631,-4.2992,-4.2382,-4.2179,-4.2092,-4.2092,-4.2092,-4.2092,-4.2092,-4.2092,-4.2092,-4.2092,-4.1976,-4.1221,-3.9509,-3.9276,-3.8376,-3.6431,-3.5741,-3.5276,-3.5043,-3.4927,-3.4956,-3.5218,-3.5444,-3.5706,-3.5938,-3.5822,-3.5619,-3.5392,-3.5131,-3.5305,0.0,0.0,0.0,0.0,0.0,0.0,0.0,0.0,0.0,0.0,0.0,-5.797,-6.0735,0.0,-6.5343,-6.9729,-7.1685,-7.3414,-7.5679,-7.6259,-7.6538,-7.6538,-7.6538,-7.6538,-7.6538,-7.6538,-7.6538,-7.6538,-7.6538,-7.6538,-7.6538,-7.6538,-7.6247,-7.5534,-7.4576,-7.3298,-7.1673,-7.0424,-6.8973,-6.7376,-6.6709,-6.607,-6.546,-6.5141,-6.4822,-6.4502,-6.4183,-6.3486,-6.2412,-6.0177,-5.8116,-5.6316,-5.5329,-5.5533,-5.6113,-5.4226,-5.3326,-5.2949,-5.231,-5.083,-4.9146,-4.8827,-4.8072,-4.7172,-4.6534,-4.6592,-4.672,-4.6446,-4.6592,-4.6633,-4.604,-4.5895,-4.5895,-4.5895,-4.5895,-4.5808,-4.5459,-4.5111,-4.4705,-4.4095,-4.3456,-4.2905,-4.2586,-4.2295,-4.2092,-4.2092,-4.2092,-4.2092,-4.2092,-4.2092,-4.1976,-4.1628,-4.1889,-4.1308,-3.9363,-3.8609,-3.7709,-3.6373,-3.5741,-3.5392,-3.5392,-3.5392,-3.5392,-3.5392,-3.5357,-3.5357,-3.5357,-3.5038,-3.5212,-3.5822,-3.5822,-3.5677,0.0,0.0,0.0,0.0,0.0,0.0,0.0,-5.465,-5.5819,-5.8705,-6.0206,-6.2143,-6.585,-6.7078,-6.8844,-7.3066,-7.3864,-7.4474,-7.6276,-7.6538,-7.6538,-7.6538,-7.6538,-7.6538,-7.6538,-7.6538,-7.6538,-7.6538,-7.6538,-7.6538,-7.6538,-7.6538,-7.6479,-7.6288,-7.5127,-7.385,-7.2456,-7.1295,-6.9699,-6.7696,-6.7144,-6.6476,-6.5722,-6.5228,-6.4909,-6.4764,-6.3864,-6.3051,-6.2122,-5.9277,-5.7361,-5.6113,-5.5097,-5.4749,-5.472,-5.3559,-5.2833,-5.2281,-5.1497,-5.0481,-4.9378,-4.874,-4.813,-4.7375,-4.6243,-4.6243,-4.6534,-4.604,-4.6243,-4.6534,-4.6011,-4.5895,-4.5895,-4.5895,-4.5895,-4.5692,-4.5024,-4.4792,-4.4531,-4.3921,-4.3253,-4.2818,-4.2818,-4.2411,-4.2092,-4.2092,-4.2092,-4.2092,-4.2092,-4.2092,-4.1889,-4.1337,-4.1773,-4.1366,-3.9538,-3.8202,-3.7244,-3.6722,-3.6199,-3.5944,-3.5944,-3.5944,-3.5944,-3.5944,-3.5299,-3.498,-3.498,-3.4341,-3.4806,-3.6315,-3.6315,-3.588,-5.3803,-5.3563,-5.467,-5.6077,-5.6296,-5.7433,0.0,-6.2293,-6.2233,-6.6305,-6.7705,-6.873,-7.0302,-7.1151,-7.221,-7.4126,-7.4693,-7.5305,-7.6334,-7.6538,-7.6538,-7.6538,-7.6538,-7.6538,-7.6538,-7.6538,-7.6538,-7.6538,-7.6538,-7.6538,-7.6538,-7.6538,-7.6201,-7.5621,-7.4924,-7.3676,-7.1789,-7.1063,-6.9466,-6.6999,-6.6912,-6.6244,-6.5083,-6.5025,-6.4677,-6.3975,-6.2267,-6.0845,-5.9597,-5.8058,-5.6665,-5.5503,-5.5358,-5.4313,-5.2804,-5.2078,-5.1788,-5.1556,-5.0307,-4.9436,-4.874,-4.8101,-4.7462,-4.6824,-4.6098,-4.5924,-4.5982,-4.5895,-4.5924,-4.5982,-4.5895,-4.5895,-4.5895,-4.5895,-4.5895,-4.5692,-4.5024,-4.4472,-4.3892,-4.3224,-4.2615,-4.2208,-4.2208,-4.215,-4.2092,-4.2092,-4.2092,-4.2092,-4.2092,-4.2092,-4.2063,-4.2005,-4.2063,-4.1541,-4.0118,-3.8841,-3.8057,-3.7999,-3.7912,-3.7883,-3.7883,-3.7883,-3.7883,-3.7883,-3.7302,-3.6983,-3.6983,-3.6315,-3.6083,-3.6315,-3.6315,-3.6838,-5.7483,-5.6855,-5.6855,-5.8441,-5.9857,-6.1687,-6.4632,-6.5579,-6.6701,-6.9803,-7.1063,-7.2039,-7.3539,-7.3725,-7.4139,-7.5787,-7.5626,-7.5639,-7.6392,-7.6143,-7.5911,-7.5911,-7.5563,-7.5621,-7.6375,-7.6538,-7.6538,-7.6538,-7.6538,-7.6538,-7.6538,-7.6538,-7.6172,-7.5534,-7.4866,-7.3618,-7.1702,-7.0686,-6.9437,-6.8015,-6.6883,-6.6244,-6.607,-6.5315,-6.4444,-6.3399,-6.1861,-6.0467,-5.9161,-5.7477,-5.6229,-5.5329,-5.4604,-5.3588,-5.2594,-5.2281,-5.1701,-5.0946,-4.9988,-4.9494,-4.9117,-4.8101,-4.7608,-4.7201,-4.6185,-4.5895,-4.5895,-4.5895,-4.5895,-4.5895,-4.5895,-4.5895,-4.5895,-4.5895,-4.5576,-4.514,-4.4501,-4.3863,-4.3224,-4.2586,-4.2266,-4.2092,-4.2092,-4.2092,-4.2092,-4.2092,-4.2092,-4.2092,-4.2092,-4.2092,-4.2092,-4.2092,-4.1076,-4.0321,-4.0118,-3.8928,-3.8202,-3.8202,-3.8202,-3.8202,-3.8202,-3.8202,-3.7854,-3.7099,-3.6867,-3.6373,-3.5619,-3.5328,-3.5386,-3.5799,-3.5799,-3.6228,-5.886,-5.883,-5.8979,-6.0326,-6.2842,-6.5322,-6.6568,-6.811,-7.004,-7.259,-7.3613,-7.4462,-7.6001,-7.5845,-7.5875,-7.6765,-7.6532,-7.6283,-7.6479,-7.5985,-7.5594,-7.5243,-7.4663,-7.4634,-7.5592,-7.5998,-7.6259,-7.6538,-7.6538,-7.6538,-7.6538,-7.6288,-7.5998,-7.5534,-7.4518,-7.324,-7.1673,-7.0424,-6.9379,-6.8538,-6.6767,-6.6099,-6.6302,-6.4851,-6.3603,-6.2499,-6.1222,-5.9945,-5.861,-5.6868,-5.5765,-5.5039,-5.3762,-5.2862,-5.2281,-5.2158,-5.1519,-5.0618,-4.9901,-4.9553,-4.9233,-4.813,-4.7666,-4.7317,-4.6214,-4.5895,-4.5895,-4.5895,-4.5895,-4.5895,-4.5895,-4.5895,-4.5895,-4.5895,-4.5372,-4.4705,-4.4124,-4.3456,-4.2818,-4.2208,-4.2092,-4.2092,-4.2092,-4.2092,-4.2092,-4.2092,-4.2092,-4.2034,-4.1831,-4.1657,-4.1628,-4.1802,-4.0408,-3.9625,-4.006,-3.9102,-3.8405,-3.8202,-3.8202,-3.8202,-3.8202,-3.8057,-3.7535,-3.6606,-3.6228,-3.559,-3.469,-3.4486,-3.4661,-3.5131,-3.5131,-3.5357,-5.6286,-5.8112,-6.0356,-6.1702,-6.4726,-6.7872,-6.9832,-7.0783,-7.2276,-7.5476,-7.6219,-7.6492,-7.7401,-7.7857,-7.7711,-7.6687,-7.7402,-7.774,-7.6687,-7.6283,-7.5714,-7.4678,-7.4024,-7.3647,-7.3705,-7.4808,-7.5795,-7.6479,-7.6538,-7.6538,-7.6538,-7.5882,-7.5534,-7.5504,-7.3676,-7.234,-7.1673,-7.0424,-6.9147,-6.7899,-6.6564,-6.5606,-6.4967,-6.3051,-6.1832,-6.1193,-5.9916,-5.861,-5.7274,-5.5968,-5.5068,-5.44,-5.3094,-5.2223,-5.1585,-5.0946,-5.0714,-5.0618,-4.9901,-4.9262,-4.8653,-4.7985,-4.7375,-4.6691,-4.6098,-4.5895,-4.5895,-4.5895,-4.5895,-4.5895,-4.5895,-4.5895,-4.5895,-4.5895,-4.5372,-4.4705,-4.4124,-4.3456,-4.2818,-4.2208,-4.2092,-4.2092,-4.2092,-4.2092,-4.2092,-4.2092,-4.2092,-4.186,-4.1221,-4.0554,-4.0408,-4.1047,-4.0495,-4.0089,-4.0089,-3.9538,-3.8899,-3.8231,-3.8202,-3.8202,-3.8202,-3.7651,-3.7331,-3.7273,-3.606,-3.5421,-3.5363,-3.4719,-3.4428,-3.4428,-3.4428,-3.4457,-5.7872,-6.0057,-6.281,-6.5922,-6.8253,-7.0366,-7.2813,-7.3857,-7.4663,-7.5797,-7.5111,-7.4347,-7.4486,-7.4179,-7.4096,-7.4911,-7.6004,-7.6828,-7.7195,-7.6707,-7.5888,-7.4445,-7.3878,-7.3443,-7.3008,-7.3734,-7.4518,-7.5127,-7.5592,-7.5621,-7.5185,-7.5388,-7.5127,-7.4285,-7.3182,-7.1905,-7.0424,-6.9583,-6.8509,-6.7202,-6.6331,-6.5373,-6.4328,-6.3254,-6.218,-6.1135,-5.9858,-5.8552,-5.7216,-5.5939,-5.4807,-5.3762,-5.2891,-5.2165,-5.1556,-5.0917,-5.0734,-5.0618,-4.9901,-4.9524,-4.9175,-4.813,-4.7637,-4.7259,-4.6214,-4.5895,-4.5895,-4.5895,-4.5895,-4.5895,-4.5895,-4.5547,-4.5227,-4.5227,-4.4414,-4.3573,-4.3369,-4.2847,-4.2324,-4.215,-4.2092,-4.2092,-4.2092,-4.2092,-4.2092,-4.2092,-4.2092,-4.186,-4.1192,-4.0902,-4.067,-4.0466,-3.9886,-3.9509,-3.9509,-3.8899,-3.8434,-3.8202,-3.8202,-3.8202,-3.8202,-3.7622,-3.7099,-3.6664,-3.5828,-3.5189,-3.4748,-3.4516,-3.4399,-3.4399,-3.4399,-3.4399,-5.9847,-6.2121,-6.4665,-6.8405,-7.032,-7.1816,-7.4031,-7.4689,-7.4839,-7.4839,-7.3559,-7.2291,-7.1732,-7.1043,-7.0955,-7.2116,-7.326,-7.4491,-7.5844,-7.5553,-7.4897,-7.4066,-7.3355,-7.2747,-7.2311,-7.266,-7.3356,-7.443,-7.4924,-7.4953,-7.4518,-7.4721,-7.4459,-7.3647,-7.2515,-7.1353,-7.0134,-6.9031,-6.7725,-6.6186,-6.5548,-6.459,-6.3312,-6.2441,-6.1483,-6.0438,-5.9161,-5.7855,-5.652,-5.5242,-5.411,-5.3094,-5.2223,-5.1643,-5.1207,-5.054,-5.0162,-4.9959,-4.9756,-4.9427,-4.8904,-4.8043,-4.7462,-4.694,-4.6127,-4.5895,-4.5895,-4.5895,-4.5895,-4.5837,-4.5576,-4.5198,-4.4821,-4.4618,-4.3747,-4.2992,-4.2992,-4.2528,-4.2092,-4.2092,-4.2092,-4.2092,-4.2092,-4.2092,-4.2092,-4.2092,-4.2092,-4.1773,-4.0844,-4.0554,-4.0263,-3.9828,-3.9421,-3.9189,-3.9189,-3.8812,-3.8463,-3.8231,-3.8202,-3.8202,-3.8202,-3.7389,-3.6867,-3.6664,-3.559,-3.4922,-3.4748,-3.4516,-3.4399,-3.4399,-3.4399,-3.4399,-6.1942,-6.4186,-6.6011,-6.9273,-7.0979,-7.2206,-7.3492,-7.3283,-7.2774,-7.2654,-7.1517,-7.0191,-6.909,-6.8555,-6.8373,-6.8755,-6.9844,-7.1325,-7.3093,-7.3216,-7.3304,-7.3733,-7.276,-7.2005,-7.1818,-7.1818,-7.2573,-7.4372,-7.4488,-7.4459,-7.4401,-7.3908,-7.3589,-7.3501,-7.1702,-7.0686,-7.0628,-6.8741,-6.6854,-6.4967,-6.4328,-6.3341,-6.2064,-6.0816,-5.9887,-5.919,-5.7884,-5.6578,-5.5271,-5.4023,-5.3123,-5.2449,-5.1199,-5.0705,-5.0589,-4.9901,-4.9262,-4.8798,-4.9407,-4.8827,-4.7782,-4.7753,-4.6911,-4.5924,-4.5895,-4.5895,-4.5895,-4.5895,-4.5895,-4.5721,-4.5053,-4.4879,-4.4676,-4.4066,-4.3427,-4.2934,-4.2934,-4.2498,-4.2092,-4.2092,-4.2092,-4.2092,-4.2092,-4.2092,-4.2092,-4.2063,-4.2034,-4.1599,-4.0321,-3.9654,-3.9276,-3.9218,-3.9189,-3.9189,-3.916,-3.916,-3.887,-3.8231,-3.8202,-3.8202,-3.8202,-3.7012,-3.6635,-3.7244,-3.5415,-3.4748,-3.5363,-3.4719,-3.4399,-3.4399,-3.4399,-3.4399,-6.3827,-6.6221,-6.8525,-7.0829,-7.1637,-7.1966,-7.2325,-7.1876,-7.0859,-6.8914,-6.7029,-6.5114,-6.2874,-6.3949,-6.586,-6.7856,-7.0858,-7.3951,-7.6914,-7.7431,-7.7004,-7.6035,-7.6227,-7.5728,-7.3937,-7.3792,-7.3995,-7.4459,-7.4082,-7.3618,-7.3124,-7.3414,-7.3182,-7.2195,-7.1237,-7.025,-6.9321,-6.7376,-6.5954,-6.4967,-6.4328,-6.3341,-6.2064,-6.1309,-6.0061,-5.8523,-5.7681,-5.6316,-5.4691,-5.3849,-5.2862,-5.1788,-5.0975,-5.0365,-4.9901,-4.9727,-4.9262,-4.8692,-4.8914,-4.8449,-4.7695,-4.723,-4.6853,-4.6505,-4.604,-4.5895,-4.5895,-4.5895,-4.5895,-4.5721,-4.5053,-4.456,-4.4066,-4.3398,-4.2789,-4.2324,-4.2324,-4.2208,-4.2092,-4.2092,-4.2092,-4.2092,-4.2092,-4.2092,-4.1918,-4.1424,-4.1337,-4.1221,-4.0873,-4.0699,-4.0263,-3.9305,-3.9189,-3.9015,-3.8492,-3.8463,-3.8376,-3.8202,-3.8202,-3.8202,-3.8202,-3.7476,-3.6896,-3.6577,-3.5619,-3.498,-3.4661,-3.4486,-3.4399,-3.4399,-3.4399,-3.4399,-6.6071,-6.8076,-6.9842,-7.1487,-7.1667,-7.1308,-7.0739,-6.9871,-6.8286,-6.5084,-6.3049,-6.1134,-5.88,-6.0156,-6.2515,-6.4994,-6.8525,-7.2214,-7.5906,-7.6795,-7.7019,-7.6828,-7.7148,-7.6733,-7.5098,-7.4953,-7.4721,-7.4169,-7.3531,-7.3153,-7.3066,-7.3124,-7.2718,-7.1702,-7.1063,-6.9844,-6.7986,-6.6331,-6.5199,-6.4561,-6.3632,-6.279,-6.2064,-6.0903,-5.9771,-5.8668,0.0,-5.5736,-5.44,-5.3181,-5.2107,-5.112,-5.0191,-4.9582,-4.9233,-4.8943,-4.8449,-4.7851,-4.7851,-4.7491,-4.694,-4.6853,-4.665,-4.6359,-4.5982,-4.5895,-4.5895,-4.5895,-4.5895,-4.5721,-4.5053,-4.4647,-4.4153,-4.3224,-4.2731,-4.2411,-4.215,-4.2092,-4.2092,-4.2092,-4.2092,-4.2092,-4.2092,-4.2092,-4.1976,-4.1599,-4.1541,-4.1541,-4.1541,-4.1018,-4.0292,-3.9305,-3.9189,-3.8928,-3.826,-3.8202,-3.8202,-3.8202,-3.8202,-3.8202,-3.8202,-3.7622,-3.7128,-3.6751,-3.5857,-3.5363,-3.5241,-3.498,-3.4835,-3.4835,-3.4835,-3.469,-6.8555,-6.9812,-7.05,-7.1607,-7.1338,-7.038,-6.8824,-6.7298,-6.5114,-6.1253,-5.9308,-5.7782,-5.5987,-5.7123,-5.9245,-6.1885,-6.5352,-6.909,-7.3465,-7.4709,-7.5769,-7.7164,-7.7158,-7.67,-7.5824,-7.5695,-7.5114,-7.3966,-7.3095,-7.2863,-7.3443,-7.2921,-7.2282,-7.1557,-7.0773,-6.9234,-6.6912,-6.5635,-6.4619,-6.3893,-6.2674,-6.2064,-6.1919,-6.0119,-5.919,-5.89,-5.6461,-5.4981,-5.411,-5.2339,-5.1236,-5.054,-4.9233,-4.8663,-4.8653,-4.8014,-4.7375,-4.6778,-4.6778,-4.6417,-4.5982,-4.6534,-4.633,-4.5895,-4.5895,-4.5895,-4.5895,-4.5895,-4.5895,-4.5721,-4.5053,-4.4879,-4.4589,-4.3398,-4.305,-4.2876,-4.244,-4.2266,-4.2208,-4.2121,-4.2092,-4.2092,-4.2092,-4.2092,-4.2063,-4.1976,-4.1976,-4.1976,-4.1976,-4.1018,-4.0089,-3.9392,-3.9334,-3.9015,-3.826,-3.8202,-3.8202,-3.8202,-3.8202,-3.8202,-3.8202,-3.7709,-3.7389,-3.7302,-3.6235,-3.5886,-3.6315,-3.5799,-3.5479,-3.5392,-3.5392,-3.5043,-7.0949,-7.1457,-7.1607,-7.1816,-7.1009,-6.9363,-6.64,-6.3857,-6.1164,-5.7723,-5.5538,-5.3922,-5.3054,-5.497,-5.8148,-6.2899,-6.6244,-7.0462,-7.6942,-7.7915,-7.8197,-7.9081,-7.9565,-7.9114,-7.7264,-7.6412,-7.5787,-7.5185,-7.3589,-7.266,-7.2776,-7.2689,-7.2079,-7.0918,-6.9263,-6.7899,-6.6883,-6.5635,-6.4415,-6.3254,-6.247,-6.1832,-6.1309,-5.9916,-5.8697,-5.7565,-5.6055,0.0,-5.2833,-5.1991,-5.1236,-5.054,-4.9233,-4.8663,-4.8653,-4.8014,-4.7375,-4.6778,-4.6778,-4.6417,-4.5895,-4.6011,-4.5982,-4.5895,-4.5895,-4.5895,-4.5895,-4.5895,-4.5895,-4.5721,-4.5053,-4.4879,-4.4705,-4.3979,-4.3398,-4.3108,-4.3573,-4.3224,-4.2702,-4.2208,-4.2092,-4.2092,-4.2092,-4.2092,-4.1918,-4.1366,-4.1279,-4.1279,-4.1279,-4.1541,-4.1279,-4.006,-3.9944,-3.9479,-3.8289,-3.8202,-3.8202,-3.8202,-3.8202,-3.8202,-3.8202,-3.8115,-3.7825,-3.7331,-3.707,-3.6751,-3.6315,-3.6199,-3.588,-3.5392,-3.5392,-3.5043,-7.2056,-7.2415,-7.2325,-7.1966,-7.0679,-6.8435,-6.4425,-6.1463,-5.853,-5.485,-5.2785,-5.1558,-5.1229,-5.3354,-5.6316,-5.9847,-6.365,-6.8247,-7.436,-7.5958,-7.721,-7.9189,-7.9724,-7.9324,-7.7811,-7.685,-7.593,-7.504,-7.385,-7.3124,-7.3124,-7.2166,-7.1353,-7.0744,-6.8538,-6.7202,-6.6883,-6.4967,-6.369,-6.308,-6.2093,-6.1483,-6.1164,-5.9887,-5.8755,-5.7739,-5.6113,-5.4313,-5.2565,-5.1875,-5.1033,-5.0046,-4.9088,-4.8537,-4.8159,-4.7521,-4.6882,-4.633,-4.633,-4.6127,-4.5895,-4.5895,-4.5895,-4.5895,-4.5895,-4.5895,-4.5895,-4.5895,-4.5895,-4.5808,-4.5488,-4.5401,-4.5256,-4.4618,-4.3979,-4.3515,-4.3485,-4.3485,-4.3224,-4.2266,-4.2353,-4.2469,-4.215,-4.2092,-4.1976,-4.1657,-4.1628,-4.1628,-4.1628,-4.1889,-4.1715,-4.0728,-4.0321,-3.9741,-3.8812,-3.8405,-3.8202,-3.8202,-3.8202,-3.8202,-3.8202,-3.8202,-3.7912,-3.7331,-3.7302,-3.7157,-3.6838,-3.6838,-3.6664,-3.6373,-3.6025,-3.5503,-7.2595,-7.3133,-7.3133,-7.2325,-7.053,-6.7747,-6.2959,-5.9608,-5.6406,-5.2576,-5.072,-4.9807,-4.9956,-5.1977,-5.4341,-5.6705,-6.0505,-6.5144,-7.0859,-7.3239,-7.5437,-7.8403,-7.8955,-7.8791,-7.7704,-7.6778,-7.5637,-7.4401,-7.3618,-7.3269,-7.3385,-7.1702,-7.0715,-7.0715,-6.8218,-6.6825,-6.668,-6.4299,-6.3022,-6.2877,-6.1745,-6.1193,-6.1164,-5.9887,-5.8871,-5.8,-5.62,-5.4313,0.0,-5.1875,-5.0946,-4.9814,-4.903,-4.842,-4.7898,-4.7068,-4.6505,-4.6098,-4.6098,-4.6011,-4.5895,-4.604,-4.6011,-4.5895,-4.5895,-4.5895,-4.5895,-4.5895,-4.5895,-4.5895,-4.5895,-4.5895,-4.5721,-4.5053,-4.4647,-4.4182,-4.3369,-4.3718,-4.3805,-4.2528,-4.2673,-4.2789,-4.2208,-4.2092,-4.2092,-4.2092,-4.2092,-4.2092,-4.2092,-4.2092,-4.1889,-4.1366,-4.0699,-4.0002,-3.9276,-3.8725,-3.8347,-3.8202,-3.8202,-3.8202,-3.8202,-3.8202,-3.797,-3.7506,-3.7506,-3.7506,-3.7506,-3.7506,-3.7447,-3.7302,-3.678,-3.617,-7.2714,-7.3791,-7.439,-7.3133,-7.0889,-6.7627,-6.2391,-5.8231,-5.4491,-5.1063,-4.9374,-4.8656,-4.9299,-5.0511,-5.2725,-5.6496,-5.8979,-6.2899,-6.9991,-7.2373,-7.4426,-7.7038,-7.8154,-7.8078,-7.6461,-7.5656,-7.4766,-7.3734,-7.2544,-7.2108,-7.266,-7.144,-7.0715,-7.0715,-6.8218,-6.6593,-6.6012,-6.4067,-6.279,-6.218,-6.1513,-6.1193,-6.1164,-5.9887,-5.861,-5.7332,-5.5997,-5.4313,0.0,-5.1875,-5.1207,-5.0452,-4.9204,-4.8682,-4.8508,-4.7242,-4.6749,-4.6691,-4.6691,-4.6359,-4.5982,-4.6563,-4.6359,-4.5895,-4.5895,-4.5895,-4.5895,-4.5895,-4.5895,-4.5895,-4.5895,-4.5895,-4.5721,-4.5053,-4.5314,-4.5372,-4.4153,-4.4385,-4.4414,-4.3166,-4.2963,-4.2789,-4.2208,-4.2092,-4.2092,-4.2092,-4.2092,-4.2092,-4.2092,-4.2092,-4.2063,-4.2005,-4.1395,-4.0525,-3.9305,-3.9131,-3.8841,-3.8231,-3.8202,-3.8202,-3.8202,-3.8202,-3.8173,-3.8115,-3.8115,-3.8115,-3.8115,-3.8115,-3.7854,-3.7302,-3.7244,-3.6867,-7.2073,-7.3552,-7.4569,-7.3253,-7.032,-6.661,-6.2121,-5.7423,-5.3264,-5.0704,-4.8895,-4.7908,-4.8566,-4.9434,-5.081,-5.3174,-5.5239,-5.8381,-6.3647,-6.5737,-6.8555,-7.3431,-7.4391,-7.5243,-7.6634,-7.5553,-7.4184,-7.2544,-7.1963,-7.144,-7.0947,-7.0076,-6.9583,-6.9583,-6.7463,-6.6012,-6.5373,-6.3864,-6.2761,-6.2093,-6.1483,-6.099,-6.0555,-5.9684,-5.8377,-5.6723,-5.5794,-5.4313,0.0,-5.1875,-5.1236,-5.0598,-4.9669,-4.9059,-4.8605,-4.8112,-4.7445,-4.6778,-4.6778,-4.6417,-4.5924,-4.6185,-4.6098,-4.5895,-4.5895,-4.5895,-4.5895,-4.5895,-4.5895,-4.5895,-4.5895,-4.5895,-4.5808,-4.5547,-4.5692,-4.5634,-4.4734,-4.5024,-4.5111,-4.3834,-4.3602,-4.3398,-4.2731,-4.2324,-4.2092,-4.2092,-4.2092,-4.2092,-4.2092,-4.2092,-4.2092,-4.2092,-4.1482,-4.0902,-4.0379,-3.9625,-3.9102,-3.8812,-3.8812,-3.8609,-3.8231,-3.858,-3.8609,-3.8202,-3.8202,-3.8202,-3.8202,-3.8202,-3.8086,-3.7825,-3.7476,-3.7157,-7.013,-7.1906,-7.3253,-7.2505,-6.9333,-6.5383,-6.1433,-5.6705,-5.2516,-5.0152,-4.8716,-4.7908,-4.7967,-4.9015,-5.0092,-5.081,-5.2785,-5.5508,-5.9279,-6.1267,-6.4279,-6.9572,-7.0482,-7.1875,-7.5057,-7.4486,-7.3356,-7.1789,-7.115,-7.0424,-6.9554,-6.8334,-6.787,-6.8247,-6.6389,-6.5083,-6.4415,-6.3341,-6.247,-6.1832,-6.1193,-6.0642,-6.0177,-5.9161,-5.7855,-5.6374,-5.5503,-5.4284,0.0,-5.1962,-5.1352,-5.0859,-5.0017,-4.9407,-4.8972,-4.8798,-4.8112,-4.7329,-4.7172,-4.6708,-4.6156,-4.6156,-4.604,-4.5895,-4.5895,-4.5895,-4.5895,-4.5895,-4.5895,-4.5895,-4.5895,-4.5895,-4.5924,-4.6127,-4.6011,-4.5808,-4.5518,-4.5692,-4.5576,-4.4472,-4.4269,-4.4037,-4.3398,-4.276,-4.2353,-4.2353,-4.2208,-4.2092,-4.2092,-4.2092,-4.2092,-4.2092,-4.1686,-4.1308,-4.1105,-4.0263,-3.9683,-3.9479,-3.9479,-3.916,-3.8522,-3.8957,-3.8899,-3.8202,-3.8202,-3.8202,-3.8202,-3.8202,-3.8202,-3.8202,-3.7767,-3.7476,-6.6613,-6.8495,-7.0171,-7.0769,-6.7956,-6.4006,-6.0027,-5.6047,-5.2247,-4.8985,-4.8805,-4.891,-4.7549,-4.9434,-5.099,-5.0315,-5.2438,-5.5359,-5.865,-6.0835,-6.3109,-6.5772,-6.6867,-6.8363,-7.0628,-7.1948,-7.2369,-7.1731,-6.9931,-6.8857,-6.8828,-6.6418,-6.5606,-6.6854,-6.5054,-6.3748,-6.3109,-6.2441,-6.1803,-6.1193,-6.0526,-6.0206,-6.0119,-5.8203,-5.6984,-5.6345,-5.5068,-5.4139,0.0,-5.2136,-5.1614,-5.1468,-5.0191,-4.9717,-4.9582,-4.8943,-4.8663,-4.8576,-4.7985,-4.7346,-4.6778,-4.6778,-4.6388,-4.5895,-4.5895,-4.5895,-4.5895,-4.5895,-4.5895,-4.5895,-4.5895,-4.5895,-4.604,-4.6633,-4.633,-4.604,-4.6633,-4.633,-4.5692,-4.4995,-4.4879,-4.4676,-4.4066,-4.3427,-4.2992,-4.2992,-4.2469,-4.2092,-4.2092,-4.2092,-4.2092,-4.2092,-4.2092,-4.1831,-4.1163,-4.1076,-4.0786,-4.0118,-4.0089,-3.9828,-3.9218,-3.9189,-3.8899,-3.8202,-3.8202,-3.8202,-3.8202,-3.8202,-3.8202,-3.8202,-3.8202,-3.7883,-6.167,-6.3707,-6.5622,-6.4485,-6.257,-6.0176,-5.7124,-5.4042,-5.1169,-4.8775,-4.8087,-4.7788,-4.7369,-4.8356,-4.9733,-5.1319,-5.2665,-5.4192,-5.6166,-5.8316,-6.0721,-6.3459,-6.7786,-7.0737,-7.1382,-7.1557,-7.1138,-6.9815,-6.9176,-6.8044,-6.6302,-6.5025,-6.4735,-6.5548,-6.4154,-6.308,-6.2412,-6.1803,-6.1164,-6.0496,-5.9887,-5.9103,-5.8203,-5.7594,-5.649,-5.5097,-5.4691,-5.3878,0.0,-5.1962,-5.1381,-5.0888,-5.0017,-4.9717,-4.964,-4.9436,-4.9088,-4.8624,-4.8014,-4.7375,-4.672,-4.633,-4.604,-4.5895,-4.5895,-4.5895,-4.5895,-4.5895,-4.5895,-4.5895,-4.5895,-4.5895,-4.604,-4.6633,-4.6359,-4.6069,-4.6662,-4.633,-4.5837,-4.5605,-4.5576,-4.5518,-4.5314,-4.4734,-4.4298,-4.4298,-4.3776,-4.3224,-4.276,-4.2702,-4.2557,-4.215,-4.2092,-4.2005,-4.1802,-4.1366,-4.1018,-4.0786,-4.0786,-4.0495,-3.9828,-4.0263,-4.0176,-3.9509,-3.9509,-3.9305,-3.8899,-3.8899,-3.8638,-3.8202,-3.8202,-3.8115,-5.8267,-6.009,-6.1613,-6.0894,-5.9159,-5.7064,-5.491,-5.2396,-5.0002,-4.8267,-4.7788,-4.7608,-4.7369,-4.8027,-4.9105,-5.0511,-5.1678,-5.3084,-5.494,-5.6444,-5.829,-6.0768,-6.6806,-7.0373,-6.9252,-7.0134,-7.0205,-6.8915,-6.7928,-6.6767,-6.5431,-6.4038,-6.3603,-6.4241,-6.3051,-6.218,-6.1745,-6.1135,-6.0613,-6.0177,-5.9335,-5.8348,-5.7274,-5.681,-5.5678,-5.411,-5.3878,-5.3181,0.0,-5.1788,-5.1236,-5.0676,-5.022,-4.9901,-4.964,-4.9407,-4.9059,-4.8595,-4.7724,-4.7172,-4.6691,-4.6098,-4.5895,-4.5895,-4.5895,-4.5895,-4.5895,-4.5895,-4.5895,-4.5924,-4.6185,-4.6243,-4.6475,-4.73,-4.6882,-4.6417,-4.7056,-4.6505,-4.5895,-4.5895,-4.5895,-4.5895,-4.5895,-4.5314,-4.4879,-4.4879,-4.4385,-4.3834,-4.3427,-4.3369,-4.3224,-4.2847,-4.2818,-4.2702,-4.244,-4.1831,-4.1482,-4.1482,-4.1482,-4.1163,-4.0495,-4.0873,-4.0786,-4.0118,-4.0089,-3.9915,-3.9538,-3.9538,-3.9218,-3.858,-3.858,-3.858,0.0,-5.7183,-5.7842,-5.8949,-5.7034,-5.4491,-5.3144,-5.1036,0.0,-4.7578,-4.7788,-4.8057,-4.7549,-4.8356,-4.906,-4.8686,-5.0122,-5.2217,-5.488,-5.5634,-5.6581,-5.8503,-6.4602,-6.7762,-6.539,-6.786,-6.9311,-6.8596,-6.6389,-6.5228,-6.5635,-6.3399,-6.2354,-6.2935,-6.1803,-6.1164,-6.1135,-6.0467,-6.009,-5.9974,-5.8755,-5.7797,-5.7071,-5.5823,-5.4604,0.0,-5.2775,-5.2165,0.0,-5.1614,-5.1236,-5.0734,-5.0627,-5.0191,-4.9524,-4.8885,-4.8653,-4.8478,-4.7213,-4.6778,-4.6691,-4.6098,-4.5895,-4.5895,-4.5895,-4.5895,-4.5895,-4.5895,-4.5895,-4.6011,-4.6621,-4.6749,-4.7097,-4.8315,-4.7677,-4.6952,-4.7637,-4.6795,-4.5895,-4.5895,-4.5924,-4.5953,-4.5953,-4.5488,-4.5082,-4.5024,-4.456,-4.4153,-4.4066,-4.4066,-4.4037,-4.3979,-4.395,-4.366,-4.305,-4.2469,-4.215,-4.2092,-4.2092,-4.1831,-4.1192,-4.1163,-4.0873,-4.0263,-4.0205,-4.0176,-4.0176,-4.0118,-3.9799,-3.9276,-3.9218,-3.9189,-5.1257,0.0,-5.187,-5.1229,-5.1229,-5.105,0.0,-4.9389,-4.894,-4.7578,-4.7429,-4.7788,-4.8656,-4.8237,-4.8716,-5.1558,-5.2007,-5.2905,-5.5568,-5.9271,-6.1953,-6.2774,-6.5668,-6.7367,-6.6859,-6.709,-6.6857,-6.5976,-6.578,-6.4909,-6.308,-6.2412,-6.1948,-6.1658,-6.1367,-6.0961,-6.0438,-5.9829,-5.8987,-5.7971,-5.7216,-5.6258,-5.5126,-5.4342,-5.353,-5.2746,-5.2107,0.0,-5.1614,-5.1614,-5.1236,-5.0627,-5.0133,-4.9553,-4.8885,-4.8246,-4.8014,-4.7898,-4.7068,-4.6778,-4.6691,-4.6098,-4.5895,-4.5895,-4.5895,-4.5895,-4.5895,-4.5895,-4.5895,-4.5924,-4.6069,-4.6475,-4.6981,-4.7811,-4.7404,-4.6952,-4.7637,-4.6795,-4.5895,-4.5895,-4.6272,-4.6621,-4.6621,-4.6882,-4.694,-4.6446,-4.6243,-4.5808,-4.4792,-4.4676,-4.4501,-4.4037,-4.3544,-4.3166,-4.2992,-4.2847,-4.2586,-4.2121,-4.2092,-4.2034,-4.186,-4.186,-4.1773,-4.1628,-4.1134,-4.0873,-4.0873,-4.035,-4.0031,-3.9886,-3.9421,-3.9189,-4.8724,-4.942,-5.0016,-4.9344,-4.9703,-4.9927,-4.8955,-4.8536,-4.8087,-4.707,-4.71,-4.7519,-4.8237,-4.8536,-4.9344,-5.1498,-5.2299,-5.3612,-5.6268,-6.1289,-6.4243,-6.3032,-6.5278,-6.6384,-6.5,-6.4844,-6.4713,-6.4487,-6.4236,-6.3835,-6.3022,-6.2151,-6.1542,-6.1222,-6.0903,-6.0555,-6.0206,-5.9597,-5.8639,-5.7303,-5.6694,-5.5736,-5.4487,-5.382,-5.3007,-5.2107,-5.1468,0.0,-5.0772,-5.1381,-5.1062,-5.022,-5.0162,-4.9582,-4.8576,-4.7695,-4.7521,-4.7637,-4.6708,-4.6388,-4.633,-4.6011,-4.5895,-4.5895,-4.5895,-4.5895,-4.5895,-4.5895,-4.6098,-4.633,-4.633,-4.6998,-4.7782,-4.813,-4.7956,-4.7735,-4.813,-4.7433,-4.6679,-4.6388,-4.6592,-4.6691,-4.6446,-4.6679,-4.6795,-4.6446,-4.6388,-4.6156,-4.543,-4.5343,-4.5227,-4.4908,-4.4531,-4.4066,-4.3515,-4.3456,-4.3079,-4.215,-4.2092,-4.2092,-4.2092,-4.2092,-4.2092,-4.2092,-4.1744,-4.1395,-4.1105,-4.1047,-4.0844,-4.0554,-4.0234,-4.006,-4.7707,-4.9027,-5.0255,-4.9837,-4.9897,-4.9883,-4.9134,-4.8117,-4.716,-4.6591,-4.701,-4.7578,-4.7967,-4.9344,-5.0495,-5.1003,-5.2674,-5.4681,-5.7017,-6.2294,-6.472,-6.1521,-6.4174,-6.5098,-6.1973,-6.2023,-6.2571,-6.3167,-6.2428,-6.2431,-6.3482,-6.1977,-6.1048,-6.1048,-6.0409,-5.9974,-5.9742,-5.9248,-5.8319,-5.7013,-5.6403,-5.5445,-5.4197,-5.353,-5.2572,-5.1439,0.0,0.0,-4.9901,-5.0917,-5.0656,-4.9746,-5.0075,-4.9494,-4.8304,-4.7068,-4.7027,-4.7346,-4.6272,-4.5895,-4.5895,-4.5895,-4.5895,-4.5895,-4.5895,-4.5953,-4.6011,-4.5924,-4.633,-4.6749,-4.6662,-4.7648,-4.8634,-4.8478,-4.8508,-4.8566,-4.8402,-4.7956,-4.7346,-4.6865,-4.672,-4.6534,-4.6098,-4.604,-4.6011,-4.5895,-4.5982,-4.5982,-4.5895,-4.5895,-4.5895,-4.5895,-4.5808,-4.5285,-4.4211,-4.395,-4.3369,-4.2295,-4.215,-4.2092,-4.2092,-4.2092,-4.2092,-4.2092,-4.2092,-4.1831,-4.125,-4.1831,-4.1802,-4.125,-4.1134,-4.1105,-4.809,-4.9711,-5.0541,-4.8297,-4.8596,-4.9105,-4.7878,-4.7459,-4.7279,-4.7189,-4.7668,-4.8805,-5.105,-5.1229,-5.1977,-5.482,-5.6338,-5.7355,-5.7791,-6.2185,-6.4274,-6.128,-6.3019,-6.3533,-6.122,-6.035,-6.0154,-6.0622,-6.0978,-6.1291,-6.1626,-6.0816,-6.0351,-6.0351,-5.9771,-5.89,-5.7768,-5.7652,-5.6955,-5.5678,-5.5097,-5.411,-5.2862,-5.2194,-5.1527,-5.0772,0.0,-5.0104,-5.0481,-5.0133,-4.9872,-4.963,-4.8595,-4.7782,-4.6981,-4.6301,-4.6098,-4.6156,-4.5953,-4.5895,-4.5895,-4.5895,-4.5895,-4.5895,-4.5895,-4.6272,-4.6592,-4.604,-4.633,-4.6662,-4.6156,-4.7375,-4.8402,-4.7329,-4.755,-4.7782,-4.7184,-4.6621,-4.6301,-4.6691,-4.6388,-4.6156,-4.6621,-4.6633,-4.6505,-4.5982,-4.633,-4.6505,-4.5953,-4.5895,-4.5895,-4.5895,-4.5372,-4.4966,-4.4763,-4.3747,-4.305,-4.2876,-4.2382,-4.2092,-4.2092,-4.2092,-4.2092,-4.2092,-4.2092,-4.2034,-4.1947,-4.2034,-4.2034,-4.1918,-4.1366,-4.1105,-4.6244,-4.7641,-4.8985,-4.8476,-5.0421,-5.1828,-4.9434,-4.8895,-4.8686,-4.7967,-4.8356,-4.9404,-5.1319,-5.2606,-5.4425,-5.7625,-5.8537,-5.8877,-5.8939,-6.1506,-6.2838,-6.1027,-6.13,-6.0967,-5.9264,-5.8385,-5.8297,-5.9356,-5.9779,-6.0302,-6.1162,-6.0555,-5.9887,-5.919,-5.8552,-5.7768,-5.6839,-5.6142,-5.5503,-5.4923,-5.4284,-5.3471,-5.2594,-5.1556,-5.0946,-5.0627,0.0,-4.9843,-5.0153,-4.9863,-4.9465,-4.9059,-4.813,-4.7375,-4.6749,-4.6505,-4.6185,-4.5982,-4.6679,-4.6475,-4.5924,-4.6272,-4.6156,-4.5895,-4.5895,-4.6098,-4.6272,-4.5982,-4.6824,-4.759,-4.665,-4.755,-4.8508,-4.755,-4.7579,-4.7695,-4.7404,-4.7114,-4.6882,-4.6853,-4.6592,-4.6388,-4.633,-4.633,-4.6214,-4.5924,-4.6127,-4.6214,-4.5924,-4.5895,-4.5895,-4.5895,-4.5605,-4.5285,-4.4908,-4.4037,-4.3224,-4.2557,-4.2237,-4.2092,-4.2092,-4.2092,-4.2092,-4.2092,-4.2092,-4.2092,-4.2092,-4.2092,-4.2092,-4.2092,-4.1773,-4.1628,-4.5183,-4.6352,-4.7967,-4.888,-5.1439,-5.3354,-5.1558,-5.0764,-5.0315,-4.9972,-5.0467,-5.1199,-5.2187,-5.427,-5.6715,-5.9366,-5.9667,-5.9725,-6.009,-6.0988,-6.1202,-6.0367,-5.9658,-5.8667,-5.7128,-5.6322,-5.661,-5.8263,-5.841,-5.9172,-6.0901,-6.0032,-5.9074,-5.8116,-5.7274,-5.6578,-5.5968,-5.4836,-5.4284,-5.4284,-5.3617,-5.2891,-5.2129,-5.112,-5.0598,-5.0473,-4.9901,-4.9717,-4.9688,-4.9398,-4.8943,-4.842,-4.7637,-4.7027,-4.6621,-4.6621,-4.6301,-4.6011,-4.6998,-4.6708,-4.5982,-4.6446,-4.6272,-4.5895,-4.5895,-4.5982,-4.6069,-4.5924,-4.7143,-4.8246,-4.7068,-4.7735,-4.8537,-4.7753,-4.7666,-4.7695,-4.7404,-4.7346,-4.723,-4.6836,-4.6662,-4.6505,-4.6156,-4.5982,-4.5895,-4.5895,-4.5895,-4.5895,-4.5895,-4.5895,-4.5895,-4.5895,-4.5895,-4.5605,-4.4937,-4.4327,-4.3515,-4.2382,-4.2179,-4.2092,-4.2092,-4.2092,-4.2092,-4.2092,-4.2092,-4.2092,-4.2092,-4.2092,-4.2092,-4.2092,-4.2092,-4.2092,-4.7026,-4.8087,-4.906,-4.8476,-4.906,-5.0467,-5.3264,-5.2486,-5.1828,-5.4192,-5.5209,-5.5769,-5.5807,-5.6937,-5.8263,-5.965,-5.9679,-5.9955,-6.1202,-6.0967,-6.0215,-5.9103,-5.8247,-5.715,-5.5431,-5.4486,-5.4791,-5.6942,-5.664,-5.748,-6.0146,-5.8523,-5.7477,-5.739,-5.62,-5.5242,-5.4662,-5.3936,-5.3588,-5.3588,-5.2949,-5.1991,-5.0801,-5.0714,-5.0386,-4.9805,-4.9698,-4.9717,-4.963,-4.8391,-4.7898,-4.7724,-4.6505,-4.5982,-4.5953,-4.5953,-4.5924,-4.5895,-4.5982,-4.5953,-4.5895,-4.5924,-4.5924,-4.5895,-4.5895,-4.6301,-4.665,-4.604,-4.6824,-4.7695,-4.6998,-4.7735,-4.8373,-4.7155,-4.7346,-4.7462,-4.6272,-4.6011,-4.6185,-4.6691,-4.6359,-4.6127,-4.6633,-4.6272,-4.5895,-4.5895,-4.5895,-4.5895,-4.5895,-4.5895,-4.5895,-4.5895,-4.5895,-4.5605,-4.4937,-4.4327,-4.3689,-4.2963,-4.2411,-4.2092,-4.2092,-4.2092,-4.2092,-4.2092,-4.2092,-4.2092,-4.2092,-4.2092,-4.2092,-4.2092,-4.2092,-4.2092,-4.5666,-4.6711,-4.8087,-4.8237,-4.882,-4.9958,-5.2396,-5.3653,-5.4581,-5.5598,-5.6974,-5.7872,-5.7453,-5.7971,-5.8795,-5.9673,-5.9397,-5.9307,-6.0111,-5.9362,-5.8503,-5.785,-5.6861,-5.585,-5.4696,-5.4043,-5.4108,-5.5154,-5.5767,-5.6431,-5.7186,-5.7282,-5.6955,-5.6142,-5.53,-5.4749,-5.4517,-5.3471,-5.2717,-5.2339,-5.1701,-5.1199,-5.0705,-5.0299,-4.993,-4.9717,-4.9717,-4.9436,-4.9001,-4.813,-4.755,-4.7114,-4.6214,-4.5895,-4.5895,-4.5895,-4.5895,-4.5924,-4.633,-4.6214,-4.5953,-4.6359,-4.6214,-4.5895,-4.5895,-4.604,-4.6185,-4.5953,-4.6243,-4.665,-4.6749,-4.7491,-4.8014,-4.755,-4.7317,-4.7056,-4.6563,-4.6156,-4.5953,-4.6214,-4.604,-4.5953,-4.6214,-4.604,-4.5895,-4.5895,-4.5895,-4.5895,-4.5895,-4.5895,-4.5895,-4.5895,-4.5895,-4.5605,-4.4937,-4.4676,-4.4095,-4.305,-4.244,-4.2092,-4.2092,-4.2092,-4.2092,-4.2092,-4.2092,-4.2092,-4.2092,-4.2092,-4.2092,-4.2092,-4.2092,-4.2092,-4.4527,-4.5304,-4.677,-4.7219,-4.8297,-4.9988,-5.2546,-5.47,-5.6705,-5.859,-5.9368,-5.9668,-5.9428,-5.858,-5.8407,-5.9855,-5.9197,-5.872,-5.9544,-5.8425,-5.7367,-5.6849,-5.5786,-5.4829,-5.3904,-5.3445,-5.3318,-5.3596,-5.4272,-5.48,-5.5129,-5.5566,-5.561,-5.5155,-5.4342,-5.3907,-5.3907,-5.263,-5.1643,-5.1004,-5.0365,-5.0046,-5.0046,-4.9582,-4.9378,-4.9349,-4.9175,-4.8943,-4.8653,-4.784,-4.7114,-4.6475,-4.604,-4.5895,-4.5895,-4.5895,-4.5895,-4.5953,-4.6388,-4.6243,-4.5953,-4.6388,-4.6243,-4.5895,-4.5895,-4.5895,-4.5895,-4.5895,-4.5895,-4.604,-4.665,-4.7317,-4.7724,-4.7521,-4.7462,-4.7271,-4.6865,-4.6505,-4.6185,-4.6185,-4.6011,-4.5895,-4.5895,-4.5895,-4.5895,-4.5895,-4.5895,-4.5895,-4.5895,-4.5895,-4.5895,-4.5895,-4.5895,-4.5692,-4.5227,-4.4995,-4.4531,-4.3631,-4.3021,-4.2528,-4.2121,-4.2266,-4.2295,-4.2092,-4.2092,-4.2092,-4.2092,-4.2092,-4.2208,-4.2382,-4.2382,-4.2382,-4.3953,-4.4287,-4.5304,-4.5304,-4.7309,-5.0377,-5.4311,-5.5718,-5.7872,-6.3797,-6.2959,-6.1343,-6.2002,-5.8783,-5.7108,-6.037,-5.9084,-5.8236,-5.9878,-5.8515,-5.7005,-5.6086,-5.5173,-5.411,-5.303,-5.2427,-5.22,-5.2485,-5.1831,-5.2398,-5.4427,-5.336,-5.3238,-5.4434,-5.3239,-5.2623,-5.2623,-5.1345,-5.0365,-4.9727,-4.8982,-4.8663,-4.8663,-4.8663,-4.8663,-4.8682,-4.8043,-4.813,-4.8547,-4.73,-4.6446,-4.5895,-4.5895,-4.5895,-4.5895,-4.5895,-4.5895,-4.5895,-4.5895,-4.5895,-4.5895,-4.5895,-4.5895,-4.5895,-4.5895,-4.5895,-4.5895,-4.5895,-4.5895,-4.604,-4.665,-4.7317,-4.7608,-4.6952,-4.7764,-4.8344,-4.7068,-4.6778,-4.6778,-4.6778,-4.633,-4.5895,-4.5895,-4.5895,-4.5895,-4.5895,-4.5895,-4.5895,-4.5895,-4.5895,-4.5895,-4.5895,-4.5895,-4.5895,-4.5895,-4.5285,-4.4908,-4.4879,-4.4327,-4.3456,-4.2179,-4.2673,-4.2731,-4.2121,-4.2121,-4.2121,-4.2121,-4.2121,-4.2411,-4.2992,-4.2992,-4.2992,-4.458,-4.5022,-4.6142,-4.6591,-4.9045,-5.2247,-5.5748,-5.7064,-5.8979,-6.4006,-6.3677,-6.254,-6.275,-6.138,-6.0477,-6.1418,-5.9958,-5.9055,-5.9989,-5.7598,-5.5674,-5.5381,-5.3841,-5.2703,-5.2377,-5.1473,-5.0817,-5.0511,-5.0783,-5.068,-5.0077,-5.1265,-5.2004,-5.1932,-5.1897,-5.2107,-5.2623,-5.0859,-4.9901,-4.9669,-4.8595,-4.8072,-4.8072,-4.8072,-4.8072,-4.8043,-4.7869,-4.7637,-4.7271,-4.6505,-4.604,-4.5895,-4.5895,-4.5895,-4.5895,-4.5895,-4.5895,-4.5895,-4.5895,-4.5895,-4.5895,-4.5895,-4.5895,-4.5895,-4.5895,-4.5895,-4.5895,-4.5895,-4.5895,-4.604,-4.665,-4.7317,-4.784,-4.8101,-4.8449,-4.8508,-4.7666,-4.7143,-4.6662,-4.6243,-4.6011,-4.5895,-4.5895,-4.5895,-4.5895,-4.5895,-4.5895,-4.5895,-4.5895,-4.5895,-4.5895,-4.5895,-4.5895,-4.5895,-4.5895,-4.5721,-4.5372,-4.4908,-4.5169,-4.4763,-4.3485,-4.3602,-4.3602,-4.3427,-4.3427,-4.3427,-4.3427,-4.3427,-4.3515,-4.3689,-4.3689,-4.3689,-4.4649,-4.5303,-4.6698,-4.8446,-5.096,-5.3922,-5.7483,-5.9817,-6.2061,-6.4844,-6.4575,-6.3947,-6.4186,-6.2823,-6.1591,-6.1528,-5.9977,-5.8698,-5.8355,-5.6245,-5.4581,-5.4233,-5.2966,-5.185,-5.1172,-5.0494,-4.9665,-4.8686,-4.8804,-4.8601,-4.7832,-4.9143,-5.0011,-5.0125,-5.0363,-5.0656,-5.1033,-4.964,-4.8827,-4.8537,-4.7782,-4.7288,-4.7027,-4.7288,-4.7404,-4.7404,-4.7404,-4.7056,-4.6417,-4.604,-4.5895,-4.5895,-4.5895,-4.5895,-4.5895,-4.5895,-4.5895,-4.5895,-4.5895,-4.5895,-4.5895,-4.5895,-4.5895,-4.5895,-4.5895,-4.5895,-4.5895,-4.5895,-4.5895,-4.6098,-4.6969,-4.7491,-4.7869,-4.8275,-4.874,-4.8856,-4.7985,-4.7491,-4.7027,-4.6388,-4.604,-4.5895,-4.5895,-4.5895,-4.5895,-4.5895,-4.5895,-4.5895,-4.5895,-4.5895,-4.5895,-4.5895,-4.5895,-4.5895,-4.5895,-4.5895,-4.5721,-4.5314,-4.5663,-4.5547,-4.4763,-4.4501,-4.424,-4.3979,-4.3979,-4.3979,-4.3979,-4.3979,-4.4124,-4.4356,-4.4356,-4.4356,-4.4355,-4.5346,-4.7189,-5.0481,-5.2995,-5.5598,-5.9249,-6.2989,-6.5652,-6.5712,-6.5353,-6.5203,-6.5802,-6.3384,-6.1299,-6.121,-5.9598,-5.7806,-5.6124,-5.486,-5.3784,-5.2923,-5.2277,-5.1272,-4.9741,-4.9414,-4.8686,-4.7179,-4.6451,-4.6332,-4.6877,-4.6998,-4.7556,-4.8677,-4.8649,-4.8653,-4.8663,-4.8043,-4.7404,-4.6778,-4.672,-4.6446,-4.5895,-4.6475,-4.6691,-4.6691,-4.6691,-4.6417,-4.5895,-4.5895,-4.5895,-4.5895,-4.5895,-4.5895,-4.5895,-4.5895,-4.5895,-4.5895,-4.5895,-4.5895,-4.5895,-4.5895,-4.5895,-4.5895,-4.5895,-4.5895,-4.5895,-4.5895,-4.5895,-4.6156,-4.7375,-4.7724,-4.7782,-4.784,-4.8798,-4.9398,-4.813,-4.7811,-4.7579,-4.694,-4.633,-4.5895,-4.5895,-4.5895,-4.5895,-4.5895,-4.5895,-4.5895,-4.5895,-4.5895,-4.5895,-4.5895,-4.5895,-4.5895,-4.5895,-4.5895,-4.5895,-4.5895,-4.5895,-4.5895,-4.5895,-4.5285,-4.4705,-4.4182,-4.4153,-4.4153,-4.4153,-4.4153,-4.4443,-4.4966,-4.4966,-4.4966,-4.4434,-4.5697,-4.7878,-5.1169,-5.5029,-5.8411,-5.9787,-6.1553,-6.3079,-6.3617,-6.4425,-6.5024,-6.5203,-6.4189,-6.3387,-6.3357,-6.1658,-5.9663,-5.7751,-5.5954,-5.4183,-5.248,-5.1021,-4.9992,-4.9615,-4.8033,-4.6878,-4.6527,-4.5146,-4.4206,-4.3908,-4.5129,-4.5934,-4.6243,-4.7372,-4.8217,-4.8663,-4.7608,-4.6969,0.0,-4.633,-4.6011,-4.5895,-4.6011,-4.6098,-4.6098,-4.6098,-4.6011,-4.5895,-4.5895,-4.5895,-4.5895,-4.5895,-4.5895,-4.5895,-4.5895,-4.5895,-4.5895,-4.5895,-4.5895,-4.5895,-4.5895,-4.5895,-4.5895,-4.5895,-4.5895,-4.5895,-4.5895,-4.5895,-4.6069,-4.6824,-4.7404,-4.7898,-4.8391,-4.9117,-4.9465,-4.8682,-4.813,-4.7579,-4.694,-4.633,-4.5895,-4.5895,-4.5895,-4.5895,-4.5895,-4.5895,-4.5895,-4.5895,-4.5895,-4.5895,-4.5895,-4.5895,-4.5895,-4.5895,-4.5895,-4.5895,-4.5895,-4.5895,-4.5895,-4.5895,-4.575,-4.5605,-4.5488,-4.5488,-4.5488,-4.5488,-4.5488,-4.5547,-4.5663,-4.5663,-4.5663,-4.4686,-4.6256,-4.8865,-5.3414,-5.7064,-5.9757,-6.0416,-6.1134,-6.1732,-6.2061,-6.3169,-6.4096,-6.4096,-6.3797,-6.3144,-6.185,-6.0531,-5.868,-5.6085,-5.411,-5.2544,-5.1396,-4.9816,-4.8786,-4.8786,-4.728,-4.62,-4.5949,-4.4367,-4.3288,-4.2986,-4.3492,-4.4052,-4.4583,-4.5605,-4.6534,-4.7375,-4.6708,-4.6388,-4.6388,-4.604,-4.5895,-4.5895,-4.5895,-4.5895,-4.5895,-4.5895,-4.5895,-4.5895,-4.5895,-4.5895,-4.5895,-4.5895,-4.5895,-4.5895,-4.5895,-4.5895,-4.5895,-4.5895,-4.5895,-4.5895,-4.5895,-4.5895,-4.5895,-4.5895,-4.5895,-4.5895,-4.5895,-4.5895,-4.604,-4.665,-4.7317,-4.7869,-4.8188,-4.8769,-4.9059,-4.842,-4.7782,-4.7143,-4.6505,-4.6127,-4.5895,-4.5895,-4.5895,-4.5895,-4.5895,-4.5895,-4.5895,-4.5895,-4.5895,-4.5895,-4.5895,-4.5895,-4.5895,-4.5895,-4.5895,-4.5895,-4.5895,-4.5895,-4.5895,-4.5895,-4.5895,-4.5895,-4.5895,-4.5895,-4.5895,-4.5895,-4.5895,-4.5895,-4.5895,-4.5895,-4.5895,-4.4548,-4.6741,-5.0092,-5.5568,-5.8351,-5.9937,-6.0595,-6.0775,-6.0775,-6.0775,-6.1822,-6.269,-6.257,-6.257,-6.1749,-5.9331,-5.846,-5.6995,-5.3829,-5.1957,-5.0767,-5.0307,-4.8787,-4.7782,-4.7782,-4.6702,-4.5824,-4.5372,-4.379,-4.2785,-4.271,-4.2342,-4.2512,-4.3426,-4.3998,-4.4805,-4.5895,-4.5895,-4.5895,-4.5895,-4.5895,-4.5895,-4.5895,-4.5779,-4.5779,-4.5866,-4.5779,-4.5779,-4.5866,-4.5779,-4.5779,-4.5895,-4.5895,-4.5895,-4.5895,-4.5895,-4.5895,-4.5895,-4.5895,-4.5895,-4.5895,-4.5895,-4.5895,-4.5895,-4.5895,-4.5895,-4.5895,-4.5895,-4.5895,-4.6011,-4.6534,-4.7143,-4.7608,-4.7608,-4.8014,-4.8275,-4.7869,-4.7288,-4.6633,-4.6156,-4.5953,-4.5895,-4.5895,-4.5895,-4.5895,-4.5895,-4.5895,-4.5895,-4.5895,-4.5895,-4.5895,-4.5895,-4.5895,-4.5895,-4.5895,-4.5895,-4.5895,-4.5895,-4.5895,-4.5895,-4.5895,-4.5895,-4.5895,-4.5895,-4.5895,-4.5895,-4.5895,-4.5895,-4.5895,-4.5895,-4.5895,-4.5895,-4.2773,-4.6711,-5.1708,-5.5388,-5.7363,-5.856,-5.9219,-5.9368,-5.9368,-5.9368,-6.0446,-6.1194,-6.0595,-6.0475,-6.0002,-5.8494,-5.7981,-5.6925,-5.46,-5.2901,-5.1395,-5.0037,-4.8309,-4.723,-4.723,-4.5799,-4.4819,-4.4744,-4.3212,-4.2057,-4.1526,-4.1904,-4.2327,-4.2879,-4.3823,-4.4805,-4.5895,-4.5895,-4.5895,-4.5895,-4.5895,-4.5895,-4.5866,-4.5285,-4.5343,-4.5866,-4.5285,-4.5343,-4.5837,-4.5256,-4.5372,-4.5895,-4.5895,-4.5895,-4.5895,-4.5895,-4.5895,-4.5895,-4.5895,-4.5895,-4.5895,-4.5895,-4.5895,-4.5895,-4.5895,-4.5895,-4.5895,-4.5895,-4.5895,-4.5895,-4.5982,-4.6475,-4.6923,-4.6923,-4.6981,-4.7201,-4.7666,-4.7288,-4.6749,-4.6691,-4.6272,-4.5895,-4.5895,-4.5895,-4.5895,-4.5895,-4.5895,-4.5895,-4.5895,-4.5895,-4.5895,-4.5895,-4.5895,-4.5895,-4.5895,-4.5895,-4.5895,-4.5895,-4.5895,-4.5895,-4.5895,-4.5895,-4.5895,-4.5895,-4.5895,-4.5895,-4.5895,-4.5895,-4.5895,-4.5895,-4.5895,-4.5895,-4.4216,-4.704,-5.0451,-5.4162,-5.5777,-5.6735,-5.7752,-5.7992,-5.7992,-5.7992,-5.8441,-5.9009,-5.9458,-5.8919,-5.8231,-5.7633,-5.7034,-5.5843,-5.3614,-5.2572,-5.1287,-4.9055,-4.7851,-4.6925,-4.626,-4.497,-4.4166,-4.4166,-4.2635,-4.1605,-4.13,-4.0972,-4.1129,-4.1864,-4.2535,-4.3575,-4.4989,-4.5219,-4.5518,-4.5895,-4.5895,-4.5895,-4.5866,-4.5198,-4.5053,-4.5285,-4.4647,-4.4734,-4.5314,-4.4995,-4.5285,-4.5895,-4.5895,-4.5895,-4.5895,-4.5895,-4.5895,-4.5821,-4.5201,-4.5384,-4.5776,-4.5201,-4.5384,-4.5895,-4.5895,-4.5895,-4.5895,-4.5895,-4.5895,-4.5895,-4.5895,-4.6359,-4.6691,-4.6388,-4.6563,-4.6824,-4.6737,-4.6505,-4.6301,-4.6301,-4.6069,-4.5895,-4.5895,-4.5895,-4.5895,-4.5895,-4.5895,-4.5895,-4.5895,-4.5895,-4.5895,-4.5895,-4.5895,-4.5895,-4.5895,-4.5895,-4.5895,-4.5895,-4.5895,-4.5895,-4.5895,-4.5895,-4.5895,-4.5895,-4.5895,-4.5895,-4.5895,-4.5895,-4.5895,-4.5895,-4.5895,-4.5895,-4.4419,-4.6142,-4.8147,-5.1798,-5.3563,-5.476,-5.6077,-5.6496,-5.6615,-5.6615,-5.6466,-5.6705,-5.7902,-5.7543,-5.6944,-5.6436,-5.5849,-5.4746,-5.267,-5.2088,-5.0904,-4.8307,-4.7586,-4.6746,-4.5389,-4.4242,-4.3589,-4.3589,-4.2183,-4.1225,-4.1075,-4.035,-4.0312,-4.1169,-4.1593,-4.2559,-4.4088,-4.462,-4.5227,-4.5895,-4.5721,-4.5634,-4.5605,-4.4792,-4.4414,-4.4385,-4.3705,-4.3718,-4.4265,-4.4265,-4.4713,-4.5319,-4.5718,-4.5895,-4.5895,-4.5895,-4.5895,-4.5776,-4.4989,-4.5247,-4.5776,-4.4943,-4.5247,-4.5895,-4.5895,-4.5895,-4.5895,-4.5895,-4.5895,-4.5895,-4.5895,-4.6243,-4.6475,-4.6011,-4.6243,-4.6475,-4.5982,-4.5895,-4.5895,-4.5895,-4.5895,-4.5895,-4.5895,-4.5895,-4.5895,-4.5895,-4.5895,-4.5895,-4.5895,-4.5895,-4.5895,-4.5895,-4.5895,-4.5895,-4.5895,-4.5895,-4.5895,-4.5895,-4.5895,-4.5895,-4.5895,-4.5895,-4.5895,-4.5895,-4.5895,-4.5895,-4.5895,-4.5895,-4.5895,-4.5895,-4.5895,-4.5895,-4.1272,-4.306,-4.5185,-4.7908,-5.0481,-5.2725,-5.4072,-5.485,-5.5299,-5.5299,-5.479,-5.4581,-5.5269,-5.6316,-5.6496,-5.467,-5.4598,-5.4285,-5.2632,-5.1673,-5.039,-4.8355,-4.7625,-4.6564,-4.4835,-4.3664,-4.3011,-4.3011,-4.1982,-4.105,-4.0601,-4.0501,-4.0668,-4.1196,-4.1593,-4.234,-4.3441,-4.4391,-4.5227,-4.5866,-4.5256,-4.4937,-4.4908,-4.366,-4.3079,-4.3037,-4.2122,-4.204,-4.2603,-4.2603,-4.3015,-4.38,-4.529,-4.5895,-4.5895,-4.5895,-4.5895,-4.5895,-4.585,-4.5821,-4.5895,-4.5821,-4.5821,-4.5895,-4.5895,-4.5895,-4.5895,-4.5895,-4.5895,-4.5895,-4.5895,-4.5895,-4.5924,-4.5895,-4.5895,-4.5924,-4.5895,-4.5895,-4.5895,-4.5895,-4.5895,-4.5895,-4.5895,-4.5895,-4.5895,-4.5895,-4.5895,-4.5895,-4.5895,-4.5895,-4.5895,-4.5895,-4.5895,-4.5895,-4.5895,-4.5895,-4.5895,-4.5895,-4.5895,-4.5895,-4.5895,-4.5895,-4.5895,-4.5895,-4.5895,-4.5895,-4.5895,-4.5895,-4.5895,-4.5895,-4.5895,-4.5895,-4.1025,-4.1893,-4.318,-4.6262,-4.8057,-4.9523,-5.1259,-5.2157,-5.2636,-5.2636,-5.2785,-5.2995,-5.3234,-5.3653,-5.4012,-5.4192,-5.3436,-5.2625,-5.1935,-5.175,-5.0755,-4.8315,-4.8259,-4.7406,-4.4908,-4.3994,-4.323,-4.2569,-4.143,-4.0727,-4.0526,-4.0174,-3.9928,-3.9752,-4.0701,-4.1828,-4.3141,-4.4297,-4.4995,-4.5256,-4.4995,-4.4879,-4.485,-4.3573,-4.2992,-4.295,-4.2022,-4.1924,-4.2486,-4.318,-4.369,-4.4142,-4.5417,-4.5895,-4.5895,-4.5895,-4.5895,-4.5776,-4.511,-4.5338,-4.5776,-4.511,-4.5338,-4.5895,-4.5895,-4.5895,-4.5895,-4.5895,-4.5895,-4.5895,-4.5895,-4.5895,-4.5895,-4.5895,-4.5895,-4.5895,-4.5895,-4.5895,-4.5895,-4.5895,-4.5895,-4.5895,-4.5895,-4.5895,-4.5895,-4.5895,-4.5895,-4.5895,-4.5895,-4.5895,-4.5895,-4.5895,-4.5895,-4.5895,-4.5895,-4.5895,-4.5895,-4.5895,-4.5895,-4.5895,-4.5895,-4.6272,-4.6505,-4.6505,-4.6882,-4.6708,-4.5895,-4.5895,-4.5895,-4.5895,-4.5895,-4.5895,-4.0487,-4.0876,-4.1743,-4.4575,-4.5663,-4.6561,-4.8701,-4.9583,-4.9972,-5.0182,-5.075,-5.1229,-5.1229,-5.0973,-5.1285,-5.2965,-5.2312,-5.1416,-5.0921,-5.1386,-5.083,-4.8286,-4.8606,-4.7913,-4.5183,-4.4098,-4.3177,-4.2251,-4.0963,0.0,-4.0249,-3.9722,-3.9222,-3.8812,-3.9938,-4.1194,-4.2496,-4.3704,-4.4356,-4.4589,-4.4356,-4.424,-4.4211,-4.3166,-4.2702,-4.266,-4.2038,-4.1702,-4.1685,-4.2879,-4.3181,-4.316,-4.472,-4.5338,-4.5384,-4.5776,-4.5895,-4.5776,-4.5081,-4.5293,-4.5776,-4.5064,-4.5338,-4.5895,-4.5895,-4.5895,-4.5895,-4.5895,-4.5895,-4.5895,-4.5895,-4.5895,-4.5895,-4.5895,-4.5895,-4.5895,-4.5895,-4.5895,-4.5895,-4.5895,-4.5895,-4.5895,-4.5895,-4.5895,-4.5953,-4.6156,-4.6214,-4.6272,-4.6505,-4.633,-4.6214,-4.6214,-4.6011,-4.5895,-4.5895,-4.5895,-4.5895,-4.5895,-4.5895,-4.5982,-4.6185,-4.6621,-4.694,-4.7143,-4.755,-4.7375,-4.6534,-4.6301,-4.6214,-4.6214,-4.5982,-4.5895,0.0,0.0,0.0,-4.2722,-4.3299,-4.4018,-4.6561,-4.7189,-4.7369,-4.8057,-4.8716,-4.9239,-4.9269,-4.8507,-4.8625,-5.0764,-5.1092,-5.0743,-4.9651,-5.056,-5.0504,-4.8308,-4.8606,-4.8056,-4.5663,-4.3987,-4.2813,-4.216,-4.0593,-3.9697,-3.9697,-3.9145,-3.8812,-3.8663,-3.9486,-4.0484,-4.1574,-4.2496,-4.3311,-4.395,-4.3311,-4.2992,-4.2963,-4.2382,-4.2092,-4.2092,-4.215,-4.1354,-4.0169,-4.1521,-4.1421,-4.068,-4.331,-4.4312,-4.4406,-4.5475,-4.5895,-4.585,-4.5895,-4.5895,-4.5895,-4.5895,-4.5895,-4.5895,-4.5895,-4.5895,-4.5895,-4.5895,-4.5895,-4.5895,-4.5895,-4.5895,-4.5895,-4.5895,-4.5895,-4.5895,-4.5895,-4.5895,-4.5895,-4.5895,-4.5895,-4.5895,-4.5895,-4.5895,-4.6098,-4.6662,-4.6778,-4.7056,-4.7666,-4.723,-4.6807,-4.6778,-4.6272,-4.5895,-4.5895,-4.5895,-4.5924,-4.5924,-4.5924,-4.6214,-4.6778,-4.6836,-4.7172,-4.7782,-4.784,-4.784,-4.784,-4.7172,-4.6807,-4.6807,-4.6214,-4.5895,-3.9373,0.0,0.0,0.0,0.0,0.0,-4.3489,-4.4077,-4.4725,-4.5873,-4.6552,-4.7255,-4.8386,-4.8209,-4.8105,-4.8715,-4.8668,-4.8798,-4.9427,-4.9651,-4.961,-4.9268,-4.9421,-4.8745,-4.6829,-4.5161,-4.3656,0.0,-4.0593,-3.9697,-3.9697,-3.8768,-3.8672,-3.9585,-3.9492,-4.0205,-4.1948,-4.1967,-4.241,-4.3282,-4.241,-4.2324,-4.2963,-4.2382,-4.2092,-4.215,-4.3079,-4.2824,-4.1831,-4.2984,-4.2463,-4.1281,-4.4303,-4.4527,-4.3416,-4.5247,-4.5384,-4.4851,-4.564,-4.5895,-4.5895,-4.5895,-4.5895,-4.5895,-4.5895,-4.5895,-4.5895,-4.5895,-4.5895,-4.5895,-4.5895,-4.5895,-4.5895,-4.5895,-4.5895,-4.5895,-4.5895,-4.5895,-4.5895,-4.5895,-4.5895,-4.5895,-4.5895,-4.5895,-4.5953,-4.6127,-4.6534,-4.6836,-4.7056,-4.7346,-4.7346,-4.6836,-4.6633,-4.6388,-4.5924,-4.6301,-4.6563,-4.6563,-4.6998,-4.7346,-4.7521,-4.7956,-4.8275,-4.8449,-4.8914,-4.9146,-4.9146,-4.8043,-4.7521,-4.7491,-4.6853,-4.633,-3.9499,-3.9373,-3.9649,-4.0576,0.0,0.0,-4.2025,-4.2345,-4.2663,-4.3666,-4.4288,-4.4917,-4.5858,-4.6013,-4.615,-4.6504,-4.6506,-4.7062,-4.871,-4.901,-4.923,-4.9659,-4.9717,-4.9213,-4.7869,-4.6286,-4.4611,-4.2894,-4.1282,-3.9906,-3.907,-3.8366,-3.8148,-3.8477,-3.8591,-3.9193,-4.0315,-4.0491,-4.1078,-4.2009,-4.1425,-4.1711,-4.2615,-4.2266,-4.2092,-4.215,-4.2876,-4.2754,-4.2076,-4.2978,-4.25,-4.1369,-4.3197,-4.3225,-4.2404,-4.448,-4.4851,-4.4452,-4.5549,-4.5895,-4.5895,-4.5895,-4.5895,-4.5895,-4.5895,-4.5895,-4.5895,-4.5895,-4.5895,-4.5895,-4.5895,-4.5895,-4.5895,-4.5895,-4.5895,-4.5895,-4.5895,-4.5895,-4.5895,-4.5895,-4.5895,-4.5895,-4.5895,-4.6098,-4.6359,-4.665,-4.723,-4.7677,-4.7985,-4.8101,-4.8043,-4.7619,-4.7375,-4.7085,-4.6708,-4.7027,-4.7114,-4.6807,-4.7433,-4.7782,-4.7782,-4.8391,-4.8856,-4.9117,-4.9494,-4.9717,-4.9717,-4.8653,-4.8043,-4.7753,-4.7114,-4.6766,-3.9679,-3.9493,-3.9798,-4.0965,-4.0457,0.0,-4.1454,-4.1385,-4.1169,-4.1636,-4.2178,-4.2611,-4.2839,-4.3166,-4.3671,-4.428,-4.4703,-4.5681,-4.77,-4.8565,-4.9114,-4.9543,-4.964,-4.9407,-4.8682,-4.7136,-4.5518,-4.3879,-4.2126,-4.0225,-3.8114,-3.7939,-3.7486,-3.6572,-3.7284,-3.7789,-3.7933,-3.8622,-3.9437,-4.0432,-4.0432,-4.0972,-4.1968,-4.2051,-4.2092,-4.2092,-4.2179,-4.2008,-4.1702,-4.2155,-4.1848,-4.1141,-4.1293,-4.1219,-4.1269,-4.3341,-4.4125,-4.4266,-4.5338,-4.5776,-4.5895,-4.5895,-4.5895,-4.5895,-4.5895,-4.5895,-4.5895,-4.5895,-4.5895,-4.5895,-4.5895,-4.5924,-4.5982,-4.5895,-4.5982,-4.604,-4.5924,-4.5924,-4.5982,-4.5982,-4.5982,-4.5982,-4.5895,-4.6475,-4.7114,-4.7608,-4.8217,-4.8856,-4.9494,-4.9059,-4.8663,-4.8663,-4.8217,-4.784,-4.7782,-4.7782,-4.7579,-4.701,-4.7579,-4.7927,-4.7985,-4.8537,-4.9088,-4.9717,-4.9717,-4.9717,-4.9717,-4.9117,-4.8508,-4.7869,-4.7317,-4.7317,-4.0247,-4.0217,-4.0277,-4.0516,-4.0786,0.0,-4.0084,-4.0233,-4.0711,-4.1368,-4.1299,-4.1558,-4.2952,-4.3423,-4.3325,-4.2452,-4.4078,-4.5889,-4.719,-4.7765,-4.8235,-4.8827,-4.9349,-4.9233,-4.8072,-4.688,-4.5641,-4.4283,-4.1904,-3.9811,-3.8089,-3.7588,-3.7419,-3.75,-3.7286,-3.773,-3.8899,-3.7909,-3.8132,-3.9475,-3.9475,-3.9956,-4.093,-4.1731,-4.2092,-4.2121,-4.2615,-4.2792,-4.2667,-4.2149,-4.1367,-4.0641,-4.1972,-4.1495,-4.0211,-4.2355,-4.3081,-4.3225,-4.4266,-4.5201,-4.5895,-4.5895,-4.5895,-4.5895,-4.5895,-4.5895,-4.5895,-4.5895,-4.5895,-4.5895,-4.5895,-4.6272,-4.6505,-4.6011,-4.6679,-4.7143,-4.6098,-4.6272,-4.665,-4.665,-4.665,-4.6475,-4.5982,-4.6824,-4.7462,-4.7085,-4.755,-4.8188,-4.8827,-4.8798,-4.8663,-4.8663,-4.8624,-4.8333,-4.7811,-4.7782,-4.7956,-4.8333,-4.8478,-4.8769,-4.934,-4.9436,-4.9553,-4.9717,-4.9717,-4.9717,-4.9717,-4.9553,-4.9175,-4.8537,-4.8373,-4.8159,-4.0965,-4.0636,-4.0487,-4.0816,-4.0562,0.0,0.0,-3.9521,-3.9498,-3.9748,-3.9421,-3.9442,-4.0566,-4.093,-4.1165,-4.1368,-4.2509,-4.3754,-4.4909,-4.613,-4.7201,-4.813,-4.8246,-4.813,-4.7811,-4.7041,-4.5893,-4.4415,-4.229,-4.0434,-3.8897,-3.8236,-3.7672,-3.7108,-3.6847,-3.7051,-3.7795,-3.7077,-3.728,-3.8496,-3.8988,-3.9694,-4.0646,-4.1619,-4.2092,-4.2121,-4.2411,-4.2557,-4.2489,-4.1915,-4.121,-4.0643,-4.1104,-4.0895,-4.0541,-4.1617,-4.2012,-4.2159,-4.3225,-4.4219,-4.511,-4.511,-4.5429,-4.5895,-4.5895,-4.5895,-4.5895,-4.5895,-4.5895,-4.5895,-4.5895,-4.6127,-4.6359,-4.6359,-4.6853,-4.723,-4.6882,-4.7085,-4.7317,-4.7317,-4.755,-4.7579,-4.694,-4.7608,-4.8043,-4.7404,-4.813,-4.874,-4.8663,-4.9001,-4.9204,-4.9204,-4.9204,-4.9088,-4.874,-4.874,-4.8711,-4.8663,-4.903,-4.9204,-4.9204,-4.9814,-5.0307,-5.0627,-5.0336,-5.0211,-5.0211,-4.9843,-4.9524,-4.9175,-4.8885,-4.874,-4.1893,-4.1294,-4.0876,-4.1294,-4.0554,-3.9713,0.0,0.0,0.0,-3.8381,-3.8018,-3.785,-3.8264,-3.8543,-3.9069,-4.0226,-4.0953,-4.1552,-4.2179,-4.3921,-4.5663,-4.7056,-4.6679,-4.6592,-4.7346,-4.6621,-4.5602,-4.4387,-4.2601,-4.1058,-3.9949,-3.8961,-3.7919,-3.6687,-3.6398,-3.6304,-3.6405,-3.6304,-3.6654,-3.7546,-3.8675,-3.9607,-4.0389,-4.1535,-4.2009,-4.1814,-4.2009,-4.1943,-4.168,-4.1362,-4.1176,-4.0992,-4.0376,-4.0414,-4.0945,-4.1119,-4.1219,-4.1319,-4.2208,-4.3177,-4.4031,-4.4031,-4.4712,-4.564,-4.585,-4.5895,-4.5895,-4.5895,-4.5895,-4.5895,-4.5895,-4.5982,-4.6214,-4.6662,-4.6981,-4.7288,-4.7695,-4.7869,-4.7956,-4.7956,-4.8391,-4.8537,-4.7898,-4.842,-4.8682,-4.8072,-4.8827,-4.9349,-4.8972,-4.9233,-4.9553,-4.9717,-4.9717,-4.9717,-4.9717,-4.9553,-4.932,-4.8943,-4.9262,-4.932,-4.8914,-5.0046,-5.0975,-5.1614,-5.112,-5.0859,-5.0859,-5.0191,-4.9863,-4.9717,-4.9146,-4.9175,-4.315,-4.2641,-4.2051,-4.1542,-4.1713,-4.1556,-3.9594,0.0,-3.9906,-3.8952,0.0,-3.8672,-3.873,0.0,0.0,-3.815,-4.0364,-4.1668,-3.9896,-4.1308,-4.3195,-4.4995,-4.4676,-4.4792,-4.5982,-4.4472,-4.3674,-4.4246,-4.2116,-4.0747,-4.0835,-3.8965,-3.7828,-3.7638,-3.6345,-3.5881,-3.6405,-3.5881,-3.5927,-3.6593,-3.836,-3.9254,-3.9431,-4.1283,-4.1619,-4.0817,-4.1731,-4.1355,-4.0222,-4.0214,-4.0757,-4.1666,-4.1591,-4.0874,-3.9981,-4.0895,-4.1219,-4.1219,-4.1319,-4.211,-4.2985,-4.2985,-4.3654,-4.4666,-4.5595,-4.5895,-4.5895,-4.5895,-4.5895,-4.5895,-4.5895,-4.6301,-4.6691,-4.6749,-4.7648,-4.8391,-4.7898,-4.8217,-4.8624,-4.8624,-4.8682,-4.8537,-4.7898,-4.8769,-4.9349,-4.8711,-4.874,-4.9001,-4.9494,-4.9146,-4.9059,-4.9611,-4.9717,-4.9717,-4.9717,-4.9146,-4.903,-4.9524,-4.9117,-4.9059,-4.9553,-5.0278,-5.0975,-5.1614,-5.1556,-5.1527,-5.1527,-5.0859,-5.0299,-4.9717,-4.9611,-4.9611,-4.329,-4.315,-4.2722,-4.2016,-4.1739,-4.1245,-3.9689,-3.9298,-3.915,-3.8559,0.0,0.0,0.0,0.0,0.0,0.0,-3.8818,-3.9246,-3.8696,-3.9334,-4.0699,-4.2992,-4.2702,0.0,-4.3602,-4.2963,-4.262,-4.3012,-4.2052,-4.127,-4.0791,-3.9925,-3.8944,-3.7795,-3.7175,-3.6713,-3.6405,-3.6132,-3.6132,-3.6405,-3.775,-3.8387,-3.8432,-3.9809,-4.0201,-3.9826,-4.0244,-4.0078,-3.9545,-3.9852,-4.0179,-4.0511,-4.145,-4.1285,-4.0592,-4.1019,-4.0844,-4.0313,-4.0313,-4.0995,-4.1963,-4.2598,-4.3081,-4.3511,-4.3937,-4.4527,-4.4943,-4.4943,-4.5429,-4.5895,-4.5895,-4.6359,-4.6865,-4.7288,-4.8072,-4.8769,-4.8856,-4.9088,-4.9262,-4.9262,-4.9262,-4.9204,-4.8914,-4.9369,-4.9465,-4.8827,-4.903,-4.9233,-4.9146,-4.9204,-4.9378,-4.964,-4.9717,-4.9717,-4.9717,-4.9436,-4.9378,-4.9669,-4.9436,-4.9727,-5.0772,-5.1062,-5.1701,-5.2688,-5.2368,-5.2165,-5.2165,-5.1527,-5.0888,-5.0299,-4.9892,-4.9717,-4.3618,-4.3559,-4.331,-4.2346,-4.1703,-4.1062,-3.9862,-3.9337,-3.8998,-3.8606,-3.8418,0.0,0.0,0.0,-3.7682,-3.8153,0.0,-3.7854,-3.7941,-3.8115,-3.9044,-4.1279,-4.1453,0.0,0.0,-4.1657,-4.1686,-4.2063,-4.1599,-4.1138,-4.0773,-4.0265,-3.936,-3.7968,-3.758,-3.7083,-3.6405,-3.6405,-3.6405,-3.6405,-3.7361,-3.7821,-3.7795,-3.8765,-3.9077,-3.881,-3.9077,-3.898,-3.8717,-3.9325,-3.95,-3.9421,-4.0851,-4.1138,-4.0844,-4.1069,-4.0541,-3.9697,-3.9697,-4.016,-4.0945,-4.2012,-4.2355,-4.2404,-4.2695,-4.3511,-4.4312,-4.4312,-4.5064,-4.5924,-4.6098,-4.6475,-4.6981,-4.784,-4.8391,-4.8885,-4.9524,-4.9717,-4.9717,-4.9717,-4.9717,-4.9717,-4.9717,-4.9717,-4.9524,-4.9059,-4.9378,-4.9494,-4.9059,-4.9378,-4.9717,-4.9717,-4.9717,-4.9717,-4.9717,-4.9717,-4.9805,-4.993,-4.9834,-5.0336,-5.1817,-5.1701,-5.2223,-5.35,-5.3065,-5.2833,-5.2833,-5.202,-5.1381,-5.0917,-5.0249,-4.9892,-4.4466,0.0,-4.3877,-4.2367,-4.2,-4.1566,-4.0132,-4.0233,-4.0391,-3.9622,-3.9934,-4.0266,-4.007,-4.0002,-3.9596,-3.8405,-3.8725,0.0,0.0,-3.7825,-3.8696,-4.0002,-4.1279,-4.1831,0.0,-4.0554,-4.0699,0.0,-4.035,0.0,-4.1007,-3.9354,-3.8342,-3.8298,-3.7097,-3.6452,-3.6405,-3.6405,-3.6405,-3.6405,-3.7361,-3.7821,-3.7795,-3.8765,-3.8675,-3.7887,-3.881,-3.845,-3.7354,-3.8282,-3.874,-3.9045,-4.0039,-4.0153,-3.9878,-4.0844,-4.0541,-3.9697,-3.9697,-3.9749,-3.9929,-4.0945,-4.1269,-4.1468,-4.2501,-4.3511,-4.4312,-4.4312,-4.5064,-4.6011,-4.665,-4.6778,-4.7097,-4.8391,-4.8663,-4.8885,-4.9524,-4.9717,-4.9717,-4.9717,-4.9717,-4.9717,-4.9717,-4.9717,-4.9717,-4.964,-4.9717,-4.9717,-4.964,-4.9717,-4.9717,-4.9717,-4.9717,-4.9717,-4.9717,-4.9717,-5.0008,-5.0647,-5.0095,-5.0589,-5.2507,-5.1933,-5.2223,-5.35,-5.35,-5.3471,-5.3471,-5.2223,-5.1614,-5.1585,-5.0946,-5.0307,0.0,0.0,-4.5132,-4.3008,0.0,0.0,-4.049,-4.0568,-4.09,-4.0071,-4.0411,-4.072,-4.0176,-3.977,-3.9363,-3.8928,-3.8667,-3.8405,0.0,-3.8086,-3.8522,-3.9392,-3.9915,-3.9915,-3.9247,0.0,0.0,0.0,-3.9334,0.0,0.0,-3.9448,-3.8944,-3.8315,-3.7663,-3.7036,-3.6405,-3.6989,-3.6989,-3.6405,-3.7361,-3.75,-3.6896,-3.7841,-3.775,-3.6943,-3.7887,-3.7857,-3.726,-3.7904,-3.8462,-3.8944,-3.9652,-3.9854,-3.9826,-4.0844,-4.0541,-3.9697,-3.9697,-3.9697,-3.9749,-4.0083,-4.0211,-4.0262,-4.0668,-4.1468,-4.2311,-4.2739,-4.4118,-4.5647,-4.6196,-4.7205,-4.8188,-4.8576,-4.9059,-4.9407,-4.964,-4.9717,-4.9717,-4.9717,-4.9717,-4.9717,-4.9717,-4.9717,-4.9717,-4.9717,-4.9717,-4.9717,-4.9717,-4.9717,-4.9717,-4.9717,-4.9717,-4.9717,-4.9717,-5.0075,-5.0598,-5.1265,-5.1091,-5.1439,-5.2565,-5.2368,-5.2659,-5.35,-5.35,-5.35,-5.35,-5.3094,-5.2659,-5.2252,-5.202,-5.117,-4.4893,-4.5508,0.0,-4.3832,-4.3773,0.0,-4.1485,0.0,-4.1825,-4.076,-4.1029,-4.125,-4.0583,-4.0321,-3.9915,-3.9015,-3.8667,-3.8405,0.0,-3.8057,-3.8347,-3.8783,-3.9044,-3.9044,-3.8609,-3.8957,0.0,0.0,0.0,0.0,0.0,0.0,-3.8908,-3.7973,-3.7828,-3.7361,-3.6405,-3.6989,-3.6989,-3.6405,-3.6989,-3.6989,-3.6405,-3.7036,-3.6943,-3.6452,-3.7036,-3.7147,-3.6983,-3.7688,-3.8216,-3.8642,-3.9396,-3.9697,-3.98,-4.0415,-4.0262,-3.9697,-3.9697,-3.9697,-3.9697,-3.9697,-3.9697,-3.9697,-3.9697,-4.0415,-4.135,-4.1951,-4.3341,-4.4858,-4.5663,-4.6658,-4.7693,-4.8293,-4.8763,-4.9198,-4.962,-4.9717,-4.9717,-4.9717,-4.9717,-4.9717,-4.9717,-4.9717,-4.9717,-4.9717,-4.9921,-4.9979,-4.9698,-4.9872,-4.993,-4.9746,-4.9717,-4.9834,-5.0066,-5.0423,-5.1033,-5.1904,-5.1759,-5.202,-5.2862,-5.2688,-5.3065,-5.4168,-5.3733,-5.3733,-5.4168,-5.35,-5.2978,-5.2623,-5.2623,-5.1788]},{"header":{"parameterUnit":"m.s-1","parameterCategory":1,"la1":30.6,"la2":29.2853,"lo1":-89.7004,"lo2":-87.6739,"dy":0.0162,"dx":0.0183,"nx":112,"ny":82,"refTime":"2024-04-24T12:00:00:Z","depth":0,"parameterNumber":3,"parameterNumberName":"V-component_of_WINDS"},"data":[0.0,0.0,0.0,0.0,0.0,0.0,0.0,0.0,0.0,0.0,0.0,0.0,0.0,0.0,0.0,0.0,0.0,0.0,0.0,0.0,0.0,0.0,0.0,0.0,0.0,0.0,0.0,0.0,0.0,0.0,0.0,0.0,0.0,0.0,0.0,0.0,0.0,0.0,0.0,0.0,0.0,0.0,0.0,0.0,0.0,0.0,0.0,0.0,0.0,0.0,0.0,0.0,0.0,0.0,0.0,0.0,0.0,0.0,0.0,0.0,0.0,0.0,0.0,0.0,0.0,0.0,0.0,0.0,0.0,0.0,0.0,0.0,0.0,0.0,0.0,0.0,0.0,0.0,0.0,0.0,0.0,0.0,0.0,0.0,0.0,0.0,0.0,0.0,0.0,0.0,2.9865,3.1625,3.3455,3.4534,3.4375,3.3531,3.1496,2.7997,0.0,0.0,0.0,0.0,0.0,0.0,0.0,0.0,0.0,0.0,0.0,0.0,0.0,0.0,0.0,0.0,0.0,0.0,0.0,0.0,0.0,0.0,0.0,0.0,0.0,0.0,0.0,0.0,0.0,0.0,0.0,0.0,0.0,0.0,0.0,0.0,0.0,0.0,0.0,0.0,0.0,0.0,0.0,0.0,0.0,0.0,0.0,0.0,0.0,0.0,0.0,0.0,0.0,0.0,0.0,0.0,0.0,0.0,0.0,0.0,0.0,0.0,0.0,0.0,0.0,0.0,0.0,0.0,0.0,0.0,0.0,0.0,0.0,0.0,0.0,0.0,0.0,0.0,0.0,0.0,0.0,0.0,0.0,0.0,0.0,0.0,0.0,0.0,0.0,0.0,0.0,0.0,0.0,0.0,0.0,0.0,0.0,0.0,0.0,0.0,0.0,0.0,0.0,0.0,3.144,3.5622,3.6121,3.6177,3.61,3.4865,3.2439,2.8707,0.0,0.0,0.0,0.0,0.0,0.0,0.0,0.0,0.0,0.0,0.0,0.0,0.0,0.0,0.0,0.0,0.0,0.0,0.0,0.0,0.0,0.0,0.0,0.0,0.0,0.0,0.0,0.0,0.0,0.0,0.0,0.0,0.0,0.0,0.0,0.0,0.0,0.0,0.0,0.0,0.0,0.0,0.0,0.0,0.0,0.0,0.0,0.0,0.0,0.0,0.0,0.0,0.0,0.0,0.0,0.0,0.0,0.0,0.0,0.0,0.0,0.0,0.0,0.0,0.0,0.0,0.0,0.0,0.0,0.0,0.0,0.0,0.0,0.0,0.0,0.0,0.0,0.0,0.0,0.0,0.0,0.0,0.0,0.0,0.0,0.0,0.0,0.0,0.0,0.0,0.0,0.0,0.0,0.0,0.0,0.0,0.0,0.0,0.0,0.0,0.0,0.0,0.0,3.146,3.4067,3.7068,3.7476,3.7577,3.7502,3.6281,3.3984,3.0365,2.8724,0.0,0.0,0.0,0.0,0.0,0.0,0.0,0.0,0.0,0.0,0.0,0.0,0.0,0.0,0.0,0.0,0.0,0.0,0.0,0.0,0.0,0.0,0.0,0.0,0.0,0.0,0.0,0.0,0.0,0.0,0.0,0.0,0.0,0.0,0.0,0.0,0.0,0.0,0.0,0.0,0.0,0.0,0.0,0.0,0.0,0.0,0.0,0.0,0.0,0.0,0.0,0.0,0.0,0.0,0.0,0.0,0.0,0.0,0.0,0.0,0.0,0.0,0.0,0.0,0.0,0.0,0.0,0.0,0.0,0.0,0.0,0.0,0.0,0.0,0.0,0.0,0.0,0.0,0.0,0.0,0.0,0.0,0.0,0.0,0.0,0.0,0.0,0.0,0.0,0.0,0.0,0.0,0.0,0.0,0.0,0.0,0.0,0.0,0.0,0.0,0.0,0.0,3.4755,3.6207,3.7935,3.8458,3.8727,3.8655,3.7272,3.5015,3.17,2.992,0.0,0.0,0.0,0.0,0.0,0.0,0.0,0.0,0.0,0.0,0.0,0.0,0.0,0.0,0.0,0.0,0.0,0.0,0.0,0.0,0.0,0.0,0.0,0.0,0.0,0.0,0.0,0.0,0.0,0.0,0.0,0.0,0.0,0.0,0.0,0.0,0.0,0.0,0.0,0.0,0.0,0.0,0.0,0.0,0.0,0.0,0.0,0.0,0.0,0.0,0.0,0.0,0.0,0.0,0.0,0.0,0.0,0.0,0.0,0.0,0.0,0.0,0.0,0.0,0.0,0.0,0.0,0.0,0.0,0.0,0.0,0.0,0.0,0.0,0.0,0.0,0.0,0.0,0.0,0.0,0.0,0.0,0.0,0.0,0.0,0.0,0.0,0.0,0.0,0.0,0.0,0.0,0.0,0.0,0.0,0.0,0.0,0.0,0.0,0.0,0.0,0.0,3.4445,3.6905,3.9124,3.9391,3.9412,3.9412,3.7394,3.488,3.1939,2.9021,0.0,0.0,0.0,0.0,0.0,0.0,0.0,0.0,0.0,0.0,0.0,0.0,0.0,0.0,0.0,0.0,0.0,0.0,0.0,0.0,0.0,0.0,0.0,0.0,0.0,0.0,0.0,0.0,0.0,0.0,0.0,0.0,0.0,0.0,0.0,0.0,0.0,0.0,0.0,0.0,0.0,0.0,0.0,0.0,0.0,0.0,0.0,0.0,0.0,0.0,0.0,0.0,0.0,0.0,0.0,0.0,0.0,0.0,0.0,0.0,0.0,0.0,0.0,0.0,0.0,0.0,0.0,0.0,0.0,0.0,0.0,0.0,0.0,0.0,0.0,0.0,0.0,0.0,0.0,0.0,0.0,0.0,0.0,0.0,0.0,0.0,0.0,0.0,0.0,0.0,0.0,0.0,0.0,0.0,0.0,0.0,0.0,0.0,0.0,0.0,0.0,0.0,3.3327,3.5707,3.8026,3.8253,3.8253,3.8253,3.6949,3.4779,3.1726,0.0,0.0,0.0,0.0,0.0,0.0,0.0,0.0,0.0,0.0,0.0,0.0,0.0,0.0,0.0,0.0,0.0,0.0,0.0,0.0,0.0,0.0,0.0,0.0,0.0,0.0,0.0,0.0,0.0,0.0,0.0,0.0,0.0,0.0,0.0,0.0,0.0,0.0,0.0,0.0,0.0,0.0,0.0,0.0,0.0,0.0,0.0,0.0,0.0,0.0,0.0,0.0,0.0,0.0,0.0,0.0,0.0,0.0,0.0,0.0,0.0,0.0,0.0,0.0,0.0,0.0,0.0,0.0,0.0,0.0,0.0,0.0,0.0,0.0,0.0,0.0,0.0,0.0,0.0,0.0,0.0,0.0,0.0,0.0,0.0,0.0,0.0,0.0,0.0,0.0,0.0,0.0,0.0,0.0,0.0,0.0,0.0,0.0,0.0,0.0,0.0,0.0,3.0408,3.2789,3.5045,3.7074,3.7281,3.7218,3.7074,3.5811,3.3927,3.1319,0.0,0.0,0.0,0.0,0.0,0.0,0.0,0.0,0.0,0.0,0.0,0.0,0.0,0.0,0.0,0.0,0.0,0.0,0.0,0.0,0.0,0.0,0.0,0.0,0.0,0.0,0.0,0.0,0.0,0.0,0.0,0.0,0.0,0.0,0.0,0.0,0.0,0.0,0.0,0.0,0.0,0.0,0.0,0.0,0.0,0.0,0.0,0.0,0.0,0.0,0.0,0.0,0.0,0.0,0.0,0.0,0.0,0.0,0.0,0.0,0.0,0.0,0.0,0.0,0.0,0.0,0.0,0.0,0.0,0.0,0.0,0.0,0.0,0.0,0.0,0.0,0.0,0.0,0.0,0.0,0.0,0.0,0.0,0.0,0.0,0.0,0.0,0.0,0.0,0.0,0.0,0.0,0.0,0.0,0.0,0.0,0.0,0.0,0.0,0.0,0.0,0.0,3.0429,3.3115,3.5273,3.6639,3.6784,3.6597,3.6121,3.4031,3.2147,0.0,0.0,0.0,0.0,0.0,0.0,0.0,0.0,0.0,0.0,0.0,0.0,0.0,0.0,0.0,0.0,0.0,0.0,0.0,0.0,0.0,0.0,0.0,0.0,0.0,0.0,0.0,0.0,0.0,0.0,0.0,0.0,0.0,0.0,0.0,0.0,0.0,0.0,0.0,0.0,0.0,0.0,0.0,0.0,0.0,0.0,0.0,0.0,0.0,0.0,0.0,0.0,0.0,0.0,0.0,0.0,0.0,0.0,0.0,0.0,0.0,0.0,0.0,0.0,0.0,0.0,0.0,0.0,0.0,0.0,0.0,0.0,0.0,0.0,0.0,0.0,0.0,0.0,0.0,0.0,0.0,0.0,0.0,0.0,0.0,0.0,0.0,0.0,0.0,0.0,0.0,0.0,0.0,0.0,0.0,0.0,0.0,0.0,0.0,0.0,0.0,0.0,0.0,2.9083,3.1899,3.4072,3.4797,3.5459,3.5376,3.4279,3.3285,3.1533,2.8897,0.0,0.0,0.0,0.0,0.0,0.0,0.0,0.0,0.0,0.0,0.0,0.0,0.0,0.0,0.0,0.0,0.0,0.0,0.0,0.0,0.0,0.0,0.0,0.0,0.0,0.0,0.0,0.0,0.0,0.0,0.0,0.0,0.0,0.0,0.0,0.0,0.0,0.0,0.0,0.0,0.0,0.0,0.0,0.0,0.0,0.0,0.0,0.0,0.0,0.0,0.0,0.0,0.0,0.0,0.0,0.0,0.0,0.0,0.0,0.0,0.0,0.0,0.0,0.0,0.0,0.0,0.0,0.0,0.0,0.0,0.0,0.0,0.0,0.0,0.0,0.0,0.0,0.0,0.0,0.0,0.0,0.0,0.0,0.0,0.0,0.0,0.0,0.0,0.0,0.0,0.0,0.0,0.0,0.0,0.0,0.0,0.0,0.0,0.0,0.0,0.0,0.0,2.8462,3.1257,3.3368,3.4049,3.4548,3.4465,3.3472,3.2809,3.1182,2.838,0.0,0.0,0.0,0.0,0.0,0.0,0.0,0.0,0.0,0.0,0.0,0.0,0.0,0.0,0.0,0.0,0.0,0.0,0.0,0.0,0.0,0.0,0.0,0.0,0.0,0.0,0.0,0.0,0.0,0.0,0.0,0.0,0.0,0.0,0.0,0.0,0.0,0.0,0.0,0.0,0.0,0.0,0.0,0.0,0.0,0.0,0.0,0.0,0.0,0.0,0.0,0.0,0.0,0.0,0.0,0.0,0.0,0.0,0.0,0.0,0.0,0.0,0.0,0.0,0.0,0.0,0.0,0.0,0.0,0.0,0.0,0.0,0.0,0.0,0.0,0.0,0.0,0.0,0.0,0.0,0.0,0.0,0.0,0.0,0.0,0.0,0.0,0.0,0.0,0.0,0.0,0.0,0.0,0.0,0.0,0.0,0.0,0.0,0.0,0.0,0.0,0.0,2.8445,3.11,3.3163,3.408,3.4188,3.3962,3.3364,3.2499,3.0996,2.869,0.0,0.0,0.0,0.0,0.0,0.0,0.0,0.0,0.0,0.0,0.0,0.0,0.0,0.0,0.0,0.0,0.0,0.0,0.0,0.0,0.0,0.0,0.0,0.0,0.0,0.0,0.0,0.0,0.0,0.0,0.0,0.0,0.0,0.0,0.0,0.0,0.0,0.0,0.0,0.0,0.0,0.0,0.0,0.0,0.0,0.0,0.0,0.0,0.0,0.0,0.0,0.0,0.0,0.0,0.0,0.0,0.0,0.0,0.0,0.0,3.5429,3.3037,0.0,0.0,0.0,0.0,0.0,0.0,0.0,0.0,0.0,0.0,0.0,0.0,0.0,0.0,0.0,0.0,0.0,0.0,0.0,0.0,0.0,0.0,0.0,0.0,0.0,0.0,0.0,0.0,0.0,0.0,0.0,0.0,0.0,0.0,0.0,0.0,0.0,0.0,0.0,0.0,2.8715,3.1949,3.4193,3.4406,3.505,3.4624,3.2473,3.2091,3.0851,2.8235,2.6682,0.0,0.0,0.0,0.0,0.0,0.0,0.0,0.0,0.0,0.0,0.0,0.0,0.0,0.0,0.0,0.0,0.0,0.0,0.0,0.0,0.0,0.0,0.0,0.0,0.0,0.0,0.0,0.0,0.0,0.0,0.0,0.0,0.0,0.0,0.0,0.0,0.0,0.0,0.0,0.0,0.0,0.0,0.0,0.0,0.0,0.0,0.0,0.0,0.0,0.0,0.0,0.0,0.0,0.0,0.0,0.0,0.0,0.0,0.0,3.9825,3.7747,0.0,0.0,0.0,0.0,0.0,0.0,0.0,0.0,0.0,0.0,0.0,0.0,0.0,0.0,0.0,0.0,0.0,0.0,0.0,0.0,0.0,0.0,0.0,0.0,0.0,0.0,0.0,0.0,0.0,0.0,0.0,0.0,0.0,0.0,0.0,0.0,0.0,0.0,0.0,0.0,2.9667,3.2469,3.4516,3.5254,3.5725,3.5446,3.4141,3.3606,3.2407,3.0253,2.8331,0.0,0.0,0.0,0.0,0.0,0.0,0.0,0.0,0.0,0.0,0.0,0.0,0.0,0.0,0.0,0.0,0.0,0.0,0.0,0.0,0.0,0.0,0.0,0.0,0.0,0.0,0.0,0.0,0.0,0.0,0.0,0.0,0.0,0.0,0.0,0.0,0.0,0.0,0.0,0.0,0.0,0.0,0.0,0.0,0.0,0.0,0.0,0.0,0.0,0.0,0.0,0.0,0.0,4.7998,4.8391,4.8196,4.7767,4.7637,4.7637,4.5973,4.4267,4.2507,4.0094,0.0,0.0,0.0,0.0,0.0,0.0,0.0,0.0,0.0,0.0,0.0,0.0,0.0,0.0,0.0,0.0,0.0,0.0,0.0,0.0,0.0,0.0,0.0,0.0,3.6801,3.6497,3.3595,0.0,0.0,0.0,0.0,0.0,0.0,0.0,0.0,0.0,0.0,0.0,3.1158,3.3303,3.5002,3.6286,3.6372,3.6241,3.5933,3.5205,3.4175,3.2796,3.0536,2.8615,0.0,0.0,0.0,0.0,0.0,0.0,0.0,0.0,0.0,0.0,0.0,0.0,0.0,0.0,0.0,0.0,0.0,0.0,0.0,0.0,0.0,0.0,0.0,0.0,0.0,0.0,0.0,0.0,0.0,0.0,0.0,0.0,4.0569,4.1068,0.0,0.0,0.0,0.0,0.0,0.0,0.0,0.0,0.0,0.0,0.0,0.0,0.0,4.5342,4.6125,4.967,5.1272,5.09,5.5121,5.6675,5.5751,5.5461,5.5598,5.6055,5.4744,0.0,4.4338,4.2895,0.0,0.0,0.0,0.0,0.0,0.0,0.0,0.0,0.0,0.0,0.0,0.0,0.0,0.0,0.0,0.0,0.0,0.0,0.0,0.0,0.0,0.0,4.0585,4.0849,4.0072,3.9184,0.0,3.5864,3.2936,3.1894,3.1166,0.0,0.0,0.0,0.0,0.0,0.0,0.0,3.3284,3.5682,3.7171,3.7315,3.7124,3.6383,3.4818,3.4791,3.4444,3.3528,3.2113,3.0864,2.9843,2.7317,0.0,0.0,0.0,0.0,0.0,0.0,0.0,0.0,0.0,0.0,0.0,0.0,0.0,0.0,0.0,0.0,0.0,0.0,0.0,0.0,0.0,0.0,0.0,0.0,0.0,0.0,0.0,0.0,0.0,4.1793,4.3221,4.2149,4.2708,4.1837,0.0,0.0,0.0,0.0,0.0,0.0,0.0,0.0,0.0,4.9157,5.0453,5.1565,5.2445,5.5312,5.6508,5.604,5.8439,5.9377,5.8883,5.8426,5.8392,5.8646,5.7739,5.5306,5.1807,4.8422,4.608,4.4315,0.0,0.0,0.0,0.0,3.9882,4.1038,4.1142,4.1725,4.2363,4.1877,0.0,0.0,0.0,0.0,0.0,0.0,0.0,0.0,0.0,0.0,4.1951,4.2372,4.2215,4.1899,4.1356,3.9493,3.7283,0.0,3.3737,3.2487,3.0743,0.0,0.0,0.0,0.0,3.2134,3.4494,3.6252,3.7521,3.8191,3.8116,3.7766,3.6993,3.6725,3.6162,3.5201,3.3691,3.2438,3.1365,2.8596,2.7026,0.0,0.0,0.0,0.0,0.0,0.0,0.0,0.0,0.0,0.0,0.0,0.0,0.0,0.0,0.0,0.0,0.0,0.0,0.0,0.0,0.0,0.0,0.0,0.0,0.0,0.0,0.0,0.0,4.489,4.6113,4.4024,4.6238,4.5841,0.0,0.0,0.0,0.0,0.0,0.0,5.0673,5.1704,5.3123,5.5022,5.6461,5.7596,5.8537,5.9945,6.0535,6.0248,6.0535,6.0588,6.0431,5.9856,5.949,5.9333,5.8758,5.8261,5.7538,5.3151,5.0383,4.866,4.5094,4.3364,4.2744,4.2208,4.3069,4.4503,4.4965,4.5674,4.6395,4.5653,4.4165,4.2294,3.9702,0.0,0.0,0.0,0.0,3.9177,4.032,4.1406,4.2368,4.2892,4.3232,4.3258,4.2395,4.1585,4.036,0.0,3.6451,3.504,3.3133,0.0,0.0,3.1282,3.2164,3.3586,3.5647,3.6816,3.7741,3.8614,3.8595,3.8495,3.8367,3.7851,3.7206,3.6405,3.5002,3.3808,3.2931,3.0316,2.8825,2.8625,0.0,0.0,0.0,0.0,0.0,0.0,0.0,0.0,0.0,0.0,0.0,0.0,0.0,0.0,0.0,0.0,0.0,0.0,0.0,0.0,0.0,0.0,0.0,0.0,0.0,0.0,0.0,0.0,0.0,4.8648,5.2144,0.0,0.0,0.0,0.0,5.0344,5.2,5.3597,5.5096,5.7247,5.8895,5.9835,6.1058,6.1947,6.2498,6.2104,6.213,6.2652,6.213,6.1607,6.1058,6.0457,5.9882,5.9333,5.8758,5.8497,5.8235,5.5241,5.3296,5.194,4.9012,4.7496,4.6924,4.6408,4.6564,4.7117,4.7169,4.6861,4.6656,4.7675,4.5741,4.2736,4.1511,3.9923,0.0,0.0,4.0282,4.0592,4.1768,4.2185,4.2368,4.2892,4.2631,4.229,4.2238,4.1272,4.0278,0.0,3.8924,3.8048,3.6677,0.0,3.5476,3.5256,3.544,3.6011,3.7221,3.7873,3.8286,3.8385,3.8148,3.7727,3.7236,3.6856,3.6632,3.658,3.5713,3.5191,3.5113,3.3416,3.2098,3.1423,2.9667,0.0,0.0,0.0,0.0,0.0,0.0,0.0,0.0,0.0,0.0,0.0,0.0,0.0,0.0,0.0,0.0,0.0,0.0,0.0,0.0,0.0,0.0,0.0,0.0,0.0,0.0,0.0,0.0,5.3587,5.6708,0.0,5.3151,5.4077,5.4821,5.4433,5.6825,5.8863,6.0154,6.1353,6.2266,6.2966,6.341,6.3541,6.3384,6.3175,6.2809,6.226,6.1685,6.111,6.0509,5.9934,5.9568,5.9333,5.8758,5.8523,5.8366,5.6615,5.5412,5.4445,5.1936,5.0603,4.9976,4.9035,4.8799,4.9035,4.9427,4.9165,4.8486,4.744,4.5245,4.2866,4.2108,4.1167,4.054,4.1324,4.1821,4.2186,4.2605,4.2997,4.318,4.2605,4.2368,4.2107,4.169,4.1298,4.0932,4.0749,3.9625,3.8356,3.739,3.6838,3.6389,3.5779,3.6171,3.6694,3.7111,3.7684,3.8048,3.8048,3.7956,3.7675,3.7079,3.6936,3.6382,3.5262,3.4904,3.4397,3.3666,3.1967,3.1092,3.1211,2.9116,2.7963,0.0,0.0,0.0,0.0,0.0,0.0,0.0,0.0,0.0,0.0,0.0,0.0,0.0,0.0,0.0,0.0,0.0,0.0,0.0,0.0,0.0,0.0,0.0,0.0,0.0,5.3536,5.6743,5.6326,5.994,6.0938,5.7087,5.8693,5.9799,5.9482,6.1584,6.3201,6.3959,6.4351,6.4639,6.4822,6.4822,6.4534,6.3959,6.3776,6.3201,6.226,6.1476,6.0797,6.0195,5.962,5.9255,5.9045,5.8679,5.8523,5.8418,5.7294,5.6458,5.57,5.3609,5.2563,5.2067,5.089,5.0472,5.0446,5.0263,4.9949,4.9244,4.6944,4.5009,4.3493,4.2918,4.2213,4.1716,4.2291,4.2579,4.2735,4.2735,4.3023,4.3101,4.2108,4.1873,4.1768,4.1402,4.1324,4.1246,4.1063,4.0069,3.9055,3.834,3.786,3.7332,3.6623,3.6974,3.7299,3.7299,3.7665,3.79,3.79,3.7717,3.7429,3.7037,3.6645,3.5835,3.4476,3.4214,3.3692,3.2725,3.1601,3.0999,3.0973,2.9091,2.8307,2.8673,0.0,0.0,0.0,0.0,0.0,0.0,0.0,0.0,0.0,0.0,0.0,0.0,0.0,0.0,0.0,0.0,0.0,0.0,0.0,0.0,0.0,0.0,0.0,5.134,5.5573,5.8215,5.7189,6.2174,6.4191,6.0457,6.3361,6.5449,6.5423,6.5998,6.6338,6.6338,6.6338,6.605,6.5449,6.5397,6.5109,6.4534,6.3933,6.3332,6.2757,6.1607,6.0744,6.0143,5.9594,5.9019,5.8497,5.8497,5.8497,5.8366,5.7242,5.6432,5.5726,5.4053,5.3373,5.3191,5.2014,5.157,5.1309,4.9688,4.9061,4.8643,4.6395,4.5218,4.4617,4.4016,4.3101,4.2291,4.2866,4.2631,4.2238,4.2211,4.2211,4.2081,4.1455,4.1324,4.1324,4.1324,4.1324,4.1141,4.054,4.0409,4.0226,3.9677,3.9102,3.8527,3.7978,3.79,0.0,3.79,3.79,3.79,3.79,3.7377,3.7011,3.6959,3.594,3.5025,3.4371,3.3822,3.3247,3.2646,3.2594,3.2045,3.0921,2.9849,2.9336,2.931,0.0,0.0,0.0,0.0,0.0,0.0,0.0,0.0,0.0,0.0,0.0,0.0,0.0,0.0,0.0,0.0,0.0,0.0,0.0,0.0,0.0,5.2711,5.5893,5.6303,5.9576,6.2561,6.4241,6.6507,6.7533,6.6412,6.6884,6.7096,6.6652,6.7174,6.7514,6.7514,6.7514,6.7253,6.6652,6.5815,6.5109,6.4534,6.3149,6.2156,6.1581,6.0405,5.9542,5.8967,5.881,5.8444,5.7921,5.834,5.8052,5.7216,5.6458,5.583,5.5203,5.3896,5.2877,5.204,5.1727,5.1073,5.0289,4.9819,4.859,4.71,4.6447,4.5009,4.3467,4.331,4.2735,4.2291,4.2866,4.2918,4.2683,4.2265,4.2211,4.2081,4.1455,4.1324,4.1324,4.1324,4.1324,4.1141,4.054,4.0095,3.9651,3.905,3.8815,3.8527,3.7978,3.79,0.0,3.79,3.79,3.79,3.79,3.7769,3.7142,3.5861,3.5469,3.4502,3.2633,3.2372,3.185,3.0857,3.0424,2.9849,2.9153,2.9614,2.9693,0.0,0.0,0.0,0.0,0.0,0.0,0.0,0.0,0.0,0.0,0.0,0.0,0.0,0.0,0.0,0.0,0.0,0.0,0.0,0.0,0.0,0.0,5.6463,5.985,6.1682,6.3441,6.5361,6.742,6.8315,6.8764,6.8764,6.8533,6.8194,6.7854,6.8141,6.8246,6.8011,6.7985,6.7697,6.7096,6.6233,6.5371,6.4534,6.3306,6.2156,6.111,6.0169,5.9411,5.8862,5.8627,5.834,5.8026,5.8366,5.8,5.7111,5.6249,5.5438,0.0,0.0,0.0,0.0,0.0,5.0472,4.9819,4.9348,4.7989,4.6395,4.5924,4.467,4.3337,4.3101,4.2788,4.2552,4.2631,4.284,4.284,4.203,4.1977,4.2081,4.1455,4.1324,4.1324,4.1324,4.1324,4.1141,4.054,3.9991,0.0,3.8815,3.8527,3.8266,3.7952,3.79,3.79,3.79,3.79,3.79,3.79,3.7665,3.7011,3.573,3.5443,0.0,0.0,0.0,3.1301,3.0153,2.9588,0.0,0.0,0.0,2.9849,3.0006,0.0,0.0,0.0,3.0163,3.0006,0.0,0.0,0.0,0.0,0.0,0.0,0.0,0.0,0.0,0.0,0.0,0.0,0.0,0.0,0.0,0.0,6.0276,6.3051,6.6701,6.6952,6.7104,6.8011,6.8533,6.8764,6.8764,6.8764,6.8764,6.8764,6.8764,6.8612,6.8115,6.8089,0.0,0.0,0.0,6.5684,6.4456,6.3803,6.2652,6.1006,6.0405,5.983,5.9255,5.8732,5.847,5.8418,5.8418,5.8052,5.7373,5.6196,5.4968,5.3713,5.2616,5.1962,5.1439,5.0159,4.9688,4.9531,4.846,0.0,0.0,4.5064,4.4279,4.3598,4.3075,4.2918,4.2814,4.2317,4.2526,4.2683,4.1585,4.169,4.1951,4.1428,4.1324,4.1324,4.1324,4.1272,4.1036,4.0435,3.9886,3.9311,3.871,3.8214,3.79,3.79,3.79,3.79,3.79,3.79,3.79,3.79,0.0,0.0,3.607,3.5574,3.4554,3.2803,3.2111,3.1354,3.0335,2.9823,3.0059,3.1052,3.0137,3.02,3.1182,3.0623,3.0884,3.1771,3.0753,3.0335,0.0,0.0,0.0,0.0,0.0,0.0,0.0,0.0,0.0,0.0,0.0,0.0,0.0,0.0,0.0,5.8848,6.2008,6.4848,6.7462,6.8137,6.8393,6.8581,6.8769,6.8764,6.8764,6.8764,6.8764,6.8764,6.8764,6.8711,6.869,6.869,6.8194,6.7174,6.6573,6.5501,6.3855,6.2809,6.1659,6.0378,0.0,0.0,5.8679,5.8549,5.8261,5.7817,5.7817,5.7216,5.617,5.4994,5.3321,5.1387,5.0681,5.089,5.1335,4.927,4.8512,4.8407,4.7728,4.6133,4.4383,4.4174,4.3389,4.2525,4.2369,4.2317,0.0,4.2238,4.229,4.216,4.1481,4.1402,4.1455,4.135,4.1324,4.1324,4.1324,4.0932,4.0435,3.986,3.9285,3.871,3.8161,3.7978,3.79,3.79,3.79,3.79,3.79,3.79,3.79,3.79,3.7795,3.7116,3.5574,3.5365,3.4554,3.2803,3.2111,3.1693,3.1484,3.138,3.1406,3.1641,3.1914,3.215,3.2359,3.2254,3.2071,3.1797,3.1562,3.1719,0.0,0.0,0.0,0.0,0.0,0.0,0.0,0.0,0.0,0.0,0.0,5.0727,5.3498,0.0,5.8193,6.2372,6.4404,6.6103,6.8141,6.8664,6.8764,6.8764,6.8764,6.8764,6.8764,6.8764,6.8764,6.8764,6.8764,6.8764,6.8764,6.8764,6.8503,6.8011,6.7148,6.5998,6.4534,6.341,6.2104,6.0666,6.0065,5.949,5.8941,5.8653,5.8366,5.8078,5.7791,5.7163,5.6196,5.4184,5.2328,5.0707,4.9819,5.0002,5.0524,4.8826,4.8015,4.7675,4.71,4.5767,4.4251,4.3964,4.3284,4.2474,4.1899,4.1951,4.2159,4.1821,4.1951,4.2081,4.1455,4.1324,4.1324,4.1324,4.1324,4.1246,4.0932,4.0618,4.0252,3.9703,3.9128,3.8632,3.8344,3.8083,3.79,3.79,3.79,3.79,3.79,3.79,3.7795,3.7482,3.7717,3.7194,3.5443,3.4763,3.3953,3.2751,3.2111,3.1797,3.1797,3.1797,3.1797,3.1797,3.1836,3.1836,3.1836,3.1548,3.1705,3.2254,3.2254,3.2123,0.0,0.0,0.0,0.0,0.0,0.0,0.0,4.7402,4.8737,5.137,5.2799,5.4618,5.8387,5.9476,6.1311,6.5789,6.6362,6.691,6.8529,6.8764,6.8764,6.8764,6.8764,6.8764,6.8764,6.8764,6.8764,6.8764,6.8764,6.8764,6.8764,6.8764,6.8711,6.869,6.7645,6.6495,6.524,6.4195,6.2757,6.0953,6.0457,5.9856,5.9176,5.8732,5.8444,5.8314,5.7503,5.6771,5.5935,5.3373,5.1648,5.0524,4.961,4.9296,4.927,4.8224,4.7571,4.7074,4.6369,4.5454,4.446,4.3885,4.3337,4.2657,4.1638,4.1638,4.1899,4.1455,4.1638,4.1899,4.1428,4.1324,4.1324,4.1324,4.1324,4.1141,4.054,4.0331,4.0095,3.9547,3.8945,3.8553,3.8553,3.8187,3.79,3.79,3.79,3.79,3.79,3.79,3.7717,3.722,3.7612,3.7246,3.56,3.4397,3.3535,3.3064,3.2594,3.2293,3.2293,3.2293,3.2293,3.2293,3.1784,3.1496,3.1496,3.0921,3.1339,3.2698,3.2698,3.2306,4.5146,4.4945,4.5874,4.7054,4.7763,4.9379,0.0,5.415,5.4338,5.8404,5.9769,6.0674,6.2198,6.2949,6.4168,6.6597,6.6666,6.6918,6.8581,6.8764,6.8764,6.8764,6.8764,6.8764,6.8764,6.8764,6.8764,6.8764,6.8764,6.8764,6.8764,6.8764,6.8612,6.8089,6.7462,6.6338,6.4639,6.3985,6.2548,6.0326,6.0248,5.9647,5.8601,5.8549,5.8235,5.773,5.6066,5.4785,5.3661,5.2276,5.1021,4.9976,4.9845,4.8904,4.7545,4.6891,4.663,4.6421,4.5297,4.4513,4.3885,4.331,4.2735,4.216,4.1507,4.135,4.1402,4.1324,4.135,4.1402,4.1324,4.1324,4.1324,4.1324,4.1324,4.1141,4.054,4.0043,3.952,3.8919,3.837,3.8004,3.8004,3.7952,3.79,3.79,3.79,3.79,3.79,3.79,3.7874,3.7821,3.7874,3.7403,3.6123,3.4972,3.4267,3.4214,3.4136,3.411,3.411,3.411,3.411,3.411,3.3587,3.33,3.33,3.2698,3.2489,3.2698,3.2698,3.3169,4.8234,4.7707,4.7707,4.9038,5.0449,5.2338,5.5446,5.6382,5.7473,6.0813,6.2458,6.3595,6.4492,6.5227,6.6172,6.7494,6.7498,6.7659,6.8633,6.856,6.835,6.835,6.8037,6.8089,6.8769,6.8764,6.8764,6.8764,6.8764,6.8764,6.8764,6.8764,6.8586,6.8011,6.741,6.6286,6.456,6.3646,6.2522,6.1241,6.0222,5.9647,5.949,5.881,5.8026,5.7085,5.57,5.4445,5.3269,5.1753,5.0629,4.9819,4.9165,4.825,4.7252,4.7074,4.6552,4.5872,4.5009,4.4565,4.4225,4.331,4.2866,4.25,4.1585,4.1324,4.1324,4.1324,4.1324,4.1324,4.1324,4.1324,4.1324,4.1324,4.1036,4.0644,4.0069,3.9494,3.8919,3.8344,3.8057,3.79,3.79,3.79,3.79,3.79,3.79,3.79,3.79,3.79,3.79,3.79,3.6985,3.6305,3.6123,3.5051,3.4397,3.4397,3.4397,3.4397,3.4397,3.4397,3.4084,3.3404,3.3195,3.2751,3.2071,3.181,3.1862,3.2163,3.2163,3.262,4.9389,4.9364,4.949,5.0619,5.2847,5.5177,5.6729,5.8171,5.982,6.2547,6.3991,6.5158,6.6067,6.6661,6.7276,6.8215,6.8008,6.7935,6.8711,6.8268,6.7768,6.7749,6.7227,6.72,6.8063,6.8429,6.8664,6.8764,6.8764,6.8764,6.8764,6.869,6.8429,6.8011,6.7096,6.5946,6.4534,6.341,6.2469,6.1711,6.0117,5.9516,5.9699,5.8392,5.7268,5.6275,5.5125,5.3975,5.2772,5.1204,5.0211,4.9557,4.8407,4.7597,4.7074,4.6861,4.6286,4.5477,4.4931,4.4617,4.433,4.3337,4.2918,4.2605,4.1611,4.1324,4.1324,4.1324,4.1324,4.1324,4.1324,4.1324,4.1324,4.1324,4.0853,4.0252,3.973,3.9128,3.8553,3.8004,3.79,3.79,3.79,3.79,3.79,3.79,3.79,3.7848,3.7665,3.7508,3.7482,3.7639,3.6384,3.5678,3.607,3.5208,3.458,3.4397,3.4397,3.4397,3.4397,3.4267,3.3796,3.296,3.262,3.2045,3.1235,3.1052,3.1209,3.1562,3.1562,3.1836,4.723,4.8761,5.0645,5.1774,5.4794,5.7968,5.9643,6.0454,6.1593,6.4463,6.5097,6.5619,6.7136,6.7086,6.7256,6.8597,6.773,6.7281,6.8597,6.7935,6.7281,6.7093,6.6652,6.6312,6.6364,6.7357,6.8246,6.8711,6.8764,6.8764,6.8764,6.8324,6.8011,6.7985,6.6338,6.5136,6.4534,6.341,6.226,6.1136,5.9934,5.9072,5.8497,5.6771,5.5674,5.5099,5.3949,5.2772,5.157,5.0394,4.9584,4.8982,4.7806,4.7022,4.6447,4.5872,4.5663,4.5477,4.4931,4.4356,4.3807,4.3206,4.2657,4.2133,4.1507,4.1324,4.1324,4.1324,4.1324,4.1324,4.1324,4.1324,4.1324,4.1324,4.0853,4.0252,3.973,3.9128,3.8553,3.8004,3.79,3.79,3.79,3.79,3.79,3.79,3.79,3.7691,3.7116,3.6515,3.6384,3.6959,3.6462,3.6096,3.6096,3.56,3.5025,3.4424,3.4397,3.4397,3.4397,3.3901,3.3613,3.3561,3.2398,3.1823,3.1771,3.1261,3.0999,3.0999,3.0999,3.1026,4.856,5.0393,5.2703,5.5315,5.7398,5.9437,6.1504,6.2386,6.3067,6.4025,6.3868,6.3499,6.3336,6.3635,6.4269,6.5119,6.6361,6.7377,6.7847,6.8164,6.7732,6.6299,6.6229,6.6129,6.5737,6.639,6.7096,6.7645,6.8063,6.8089,6.7697,6.788,6.7645,6.6887,6.5894,6.4743,6.341,6.2652,6.1685,6.0509,5.9725,5.8862,5.7921,5.6954,5.5987,5.5046,5.3896,5.272,5.1518,5.0368,4.9348,4.8407,4.7623,4.697,4.6421,4.5846,4.5581,4.5477,4.4931,4.4591,4.4278,4.3337,4.2892,4.2552,4.1611,4.1324,4.1324,4.1324,4.1324,4.1324,4.1324,4.101,4.0723,4.0723,3.9991,3.9233,3.905,3.8579,3.8109,3.7952,3.79,3.79,3.79,3.79,3.79,3.79,3.79,3.7691,3.709,3.6828,3.6619,3.6436,3.5913,3.5574,3.5574,3.5025,3.4607,3.4397,3.4397,3.4397,3.4397,3.3875,3.3404,3.3012,3.2189,3.1615,3.1287,3.1078,3.0973,3.0973,3.0973,3.0973,5.0218,5.2126,5.426,5.7399,5.9006,6.0261,6.2119,6.2672,6.2797,6.2797,6.2134,6.1334,6.0725,6.0811,6.1274,6.214,6.3684,6.5184,6.6367,6.6697,6.6555,6.5961,6.576,6.5501,6.5109,6.5423,6.605,6.7017,6.7462,6.7488,6.7096,6.7279,6.7044,6.6312,6.5292,6.4247,6.3149,6.2156,6.098,5.9594,5.9019,5.8157,5.7007,5.6223,5.536,5.4419,5.3269,5.2093,5.089,4.974,4.8721,4.7806,4.7022,4.6499,4.6107,4.5506,4.5166,4.4983,4.48,4.4407,4.3937,4.3258,4.2735,4.2265,4.1533,4.1324,4.1324,4.1324,4.1324,4.1272,4.1036,4.0697,4.0357,4.0174,3.939,3.871,3.871,3.8292,3.79,3.79,3.79,3.79,3.79,3.79,3.79,3.79,3.79,3.7612,3.6776,3.6515,3.6253,3.5861,3.5495,3.5286,3.5286,3.4946,3.4633,3.4424,3.4397,3.4397,3.4397,3.3666,3.3195,3.3012,3.2045,3.1444,3.1287,3.1078,3.0973,3.0973,3.0973,3.0973,5.1975,5.3858,5.539,5.8127,5.9558,6.0588,6.1667,6.1492,6.1065,6.0964,6.001,5.9159,5.9008,5.8552,5.8525,5.9637,6.0049,6.1322,6.4526,6.4209,6.4286,6.6099,6.537,6.4691,6.4665,6.4665,6.5345,6.6965,6.707,6.7044,6.6991,6.6547,6.6259,6.6181,6.456,6.3646,6.3593,6.1894,6.0195,5.8497,5.7921,5.7033,5.5883,5.4759,5.3922,5.3295,5.2119,5.0943,4.9766,4.8643,4.7832,4.7122,4.5999,4.5555,4.5451,4.4931,4.4356,4.3938,4.4487,4.3964,4.3023,4.2997,4.2239,4.135,4.1324,4.1324,4.1324,4.1324,4.1324,4.1167,4.0566,4.0409,4.0226,3.9677,3.9102,3.8658,3.8658,3.8266,3.79,3.79,3.79,3.79,3.79,3.79,3.79,3.7874,3.7848,3.7456,3.6305,3.5704,3.5365,3.5312,3.5286,3.5286,3.526,3.526,3.4999,3.4424,3.4397,3.4397,3.4397,3.3326,3.2986,3.3535,3.1888,3.1287,3.1771,3.1261,3.0973,3.0973,3.0973,3.0973,5.3557,5.5566,5.7499,5.9433,6.0111,6.0387,6.0688,6.0311,5.9458,5.7826,5.6244,5.4637,5.2991,5.3898,5.5509,5.7444,6.0787,6.372,6.5546,6.7161,6.7828,6.6681,6.7292,6.7442,6.6573,6.6442,6.6625,6.7044,6.6704,6.6286,6.5841,6.6103,6.5894,6.5005,6.4142,6.3254,6.2417,6.0666,5.9385,5.8497,5.7921,5.7033,5.5883,5.5203,5.4079,5.2694,5.1936,5.0707,4.9244,4.8486,4.7597,4.663,4.5898,4.5349,4.4931,4.4774,4.4356,4.3939,4.4042,4.3624,4.2944,4.2526,4.2186,4.1873,4.1455,4.1324,4.1324,4.1324,4.1324,4.1167,4.0566,4.0122,3.9677,3.9076,3.8527,3.8109,3.8109,3.8004,3.79,3.79,3.79,3.79,3.79,3.79,3.7743,3.7299,3.722,3.7116,3.6802,3.6645,3.6253,3.5391,3.5286,3.5129,3.4659,3.4633,3.4554,3.4397,3.4397,3.4397,3.4397,3.3744,3.3221,3.2934,3.2071,3.1496,3.1209,3.1052,3.0973,3.0973,3.0973,3.0973,5.544,5.7123,5.8604,5.9985,6.0136,5.9834,5.9357,5.8629,5.7298,5.4612,5.2904,5.1297,4.9339,5.0701,5.2689,5.4536,5.8526,6.2086,6.4259,6.6463,6.7693,6.7377,6.8255,6.8487,6.7619,6.7488,6.7279,6.6782,6.6207,6.5867,6.5789,6.5841,6.5475,6.456,6.3985,6.2888,6.1215,5.9725,5.8706,5.8131,5.7294,5.6536,5.5883,5.4837,5.3818,5.2825,0.0,5.0185,4.8982,4.7885,4.6917,4.6029,4.5192,4.4643,4.433,4.4068,4.3624,4.318,4.318,4.2762,4.2265,4.2186,4.2004,4.1742,4.1402,4.1324,4.1324,4.1324,4.1324,4.1167,4.0566,4.02,3.9756,3.8919,3.8475,3.8187,3.7952,3.79,3.79,3.79,3.79,3.79,3.79,3.79,3.7795,3.7456,3.7403,3.7403,3.7403,3.6933,3.6279,3.5391,3.5286,3.5051,3.445,3.4397,3.4397,3.4397,3.4397,3.4397,3.4397,3.3875,3.343,3.3091,3.2215,3.1771,3.1731,3.1496,3.1365,3.1365,3.1365,3.1235,5.7524,5.8579,5.9156,6.0085,5.9859,5.9056,5.775,5.647,5.4637,5.1398,4.9766,4.8485,4.6979,4.8358,5.0265,5.2043,5.5324,5.9008,6.2607,6.4516,6.6156,6.8119,6.8715,6.8758,6.8272,6.8007,6.7484,6.6599,6.5815,6.5606,6.6129,6.5658,6.5083,6.443,6.3724,6.2339,6.0248,5.9098,5.8183,5.7529,5.6432,5.5883,5.5752,5.4131,5.3295,5.3034,5.0838,4.9505,4.8721,4.7127,4.6133,4.5506,4.433,4.3912,4.3807,4.3232,4.2657,4.2211,4.2211,4.1794,4.1402,4.1899,4.1716,4.1324,4.1324,4.1324,4.1324,4.1324,4.1324,4.1167,4.0566,4.0409,4.0148,3.9076,3.8762,3.8606,3.8214,3.8057,3.8004,3.7926,3.79,3.79,3.79,3.79,3.7874,3.7795,3.7795,3.7795,3.7795,3.6933,3.6096,3.5469,3.5417,3.5129,3.445,3.4397,3.4397,3.4397,3.4397,3.4397,3.4397,3.3953,3.3666,3.3587,3.2554,3.2241,3.2698,3.2163,3.1876,3.1797,3.1797,3.1484,5.9533,5.996,6.0085,6.0261,5.9583,5.8202,5.5717,5.3582,5.1322,4.8435,4.6602,4.5246,4.4518,4.6125,4.89,5.2779,5.6204,6.0048,6.4848,6.684,6.8126,6.8895,6.947,6.9687,6.9416,6.8201,6.7494,6.7697,6.6259,6.5423,6.5528,6.5449,6.49,6.3855,6.2365,6.1136,6.0222,5.9098,5.8,5.6954,5.6249,5.5674,5.5203,5.3949,5.2851,5.1831,5.0472,0.0,4.7571,4.6813,4.6133,4.5506,4.433,4.3912,4.3807,4.3232,4.2657,4.2211,4.2211,4.1794,4.1324,4.1428,4.1402,4.1324,4.1324,4.1324,4.1324,4.1324,4.1324,4.1167,4.0566,4.0409,4.0252,3.9599,3.9076,3.8815,3.9233,3.8919,3.8449,3.8004,3.79,3.79,3.79,3.79,3.7743,3.7246,3.7168,3.7168,3.7168,3.7403,3.7168,3.607,3.5966,3.5547,3.4476,3.4397,3.4397,3.4397,3.4397,3.4397,3.4397,3.4319,3.4058,3.3613,3.3378,3.3091,3.2698,3.2594,3.2306,3.1797,3.1797,3.1484,6.0462,6.0763,6.0688,6.0387,5.9307,5.7424,5.4059,5.1574,4.9113,4.6024,4.4292,4.3263,4.2986,4.4769,4.7255,5.0218,5.3646,5.7648,6.2395,6.5161,6.7118,6.8234,6.9762,7.0334,6.9449,6.8591,6.7919,6.7566,6.6495,6.5841,6.5841,6.4979,6.4247,6.3698,6.1711,6.0509,6.0222,5.8497,5.7346,5.6798,5.5909,5.536,5.5072,5.3922,5.2903,5.1988,5.0524,4.8904,4.7226,4.6708,4.595,4.5062,4.4199,4.3702,4.3363,4.2788,4.2213,4.1716,4.1716,4.1533,4.1324,4.1324,4.1324,4.1324,4.1324,4.1324,4.1324,4.1324,4.1324,4.1246,4.0958,4.088,4.0749,4.0174,3.9599,3.9181,3.9155,3.9155,3.8919,3.8057,3.8135,3.824,3.7952,3.79,3.7795,3.7508,3.7482,3.7482,3.7482,3.7717,3.756,3.6671,3.6305,3.5783,3.4946,3.458,3.4397,3.4397,3.4397,3.4397,3.4397,3.4397,3.4136,3.3613,3.3587,3.3456,3.3169,3.3169,3.3012,3.2751,3.2437,3.1967,6.0914,6.1366,6.1366,6.0688,5.9182,5.6846,5.2829,5.0017,4.733,4.4116,4.2559,4.1886,4.2011,4.3614,4.5598,4.7581,5.077,5.4662,5.9458,6.2691,6.5288,6.711,6.9395,7.017,6.8747,6.8377,6.7954,6.6991,6.6286,6.5972,6.6076,6.456,6.3672,6.3672,6.1424,6.0169,6.0039,5.7895,5.6745,5.6615,5.5595,5.5099,5.5072,5.3922,5.3008,5.2223,5.0603,4.8904,0.0,4.6708,4.5872,4.4853,4.4147,4.3598,4.3127,4.2473,4.1873,4.1507,4.1507,4.1428,4.1324,4.1455,4.1428,4.1324,4.1324,4.1324,4.1324,4.1324,4.1324,4.1324,4.1324,4.1324,4.1167,4.0566,4.02,3.9782,3.905,3.9364,3.9442,3.8292,3.8423,3.8527,3.8004,3.79,3.79,3.79,3.79,3.79,3.79,3.79,3.7717,3.7246,3.6645,3.6018,3.5365,3.4868,3.4528,3.4397,3.4397,3.4397,3.4397,3.4397,3.4188,3.377,3.377,3.377,3.377,3.377,3.3718,3.3587,3.3117,3.2568,6.1014,6.1918,6.2421,6.1366,5.9483,5.6746,5.2352,4.8862,4.5723,4.2942,4.143,4.0827,4.1275,4.2384,4.4242,4.7405,4.949,5.2779,5.873,6.154,6.3707,6.5942,6.7639,6.8322,6.7499,6.6935,6.6585,6.639,6.5318,6.4926,6.5423,6.4325,6.3672,6.3672,6.1424,5.996,5.9437,5.7686,5.6536,5.5987,5.5386,5.5099,5.5072,5.3922,5.2772,5.1622,5.042,4.8904,0.0,4.6708,4.6107,4.5428,4.4304,4.3833,4.3676,4.263,4.2185,4.2133,4.2133,4.1742,4.1402,4.1925,4.1742,4.1324,4.1324,4.1324,4.1324,4.1324,4.1324,4.1324,4.1324,4.1324,4.1167,4.0566,4.0801,4.0853,3.9756,3.9965,3.9991,3.8867,3.8684,3.8527,3.8004,3.79,3.79,3.79,3.79,3.79,3.79,3.79,3.7874,3.7821,3.7273,3.6488,3.5391,3.5234,3.4972,3.4424,3.4397,3.4397,3.4397,3.4397,3.4371,3.4319,3.4319,3.4319,3.4319,3.4319,3.4084,3.3587,3.3535,3.3195,6.0076,6.1718,6.2571,6.1466,5.9006,5.5892,5.2126,4.8184,4.4694,4.264,4.1028,4.0199,4.0752,4.148,4.2635,4.4618,4.6351,4.8987,5.3406,5.5897,5.8552,6.2164,6.4525,6.5986,6.647,6.6697,6.6357,6.5318,6.4796,6.4325,6.3881,6.3097,6.2652,6.2652,6.0744,5.9437,5.8862,5.7503,5.651,5.5909,5.536,5.4916,5.4524,5.3739,5.2563,5.1073,5.0237,4.8904,0.0,4.6708,4.6133,4.5558,4.4722,4.4173,4.386,4.3415,4.2813,4.2211,4.2211,4.1794,4.135,4.1585,4.1507,4.1324,4.1324,4.1324,4.1324,4.1324,4.1324,4.1324,4.1324,4.1324,4.1246,4.101,4.1141,4.1089,4.0278,4.054,4.0618,3.9468,3.9259,3.9076,3.8475,3.8109,3.79,3.79,3.79,3.79,3.79,3.79,3.79,3.79,3.7351,3.6828,3.6358,3.5678,3.5208,3.4946,3.4946,3.4763,3.4424,3.4737,3.4763,3.4397,3.4397,3.4397,3.4397,3.4397,3.4293,3.4058,3.3744,3.3456,5.8197,6.0337,6.1466,6.0839,5.8177,5.4863,5.1548,4.7581,4.4066,4.2082,4.0877,4.0199,4.0249,4.1128,4.2032,4.2635,4.4292,4.6577,4.9741,5.1866,5.4536,5.8378,6.0865,6.2894,6.4531,6.5899,6.605,6.4639,6.4064,6.341,6.2626,6.1529,6.111,6.145,5.9777,5.8601,5.8,5.7033,5.6249,5.5674,5.5099,5.4602,5.4184,5.3269,5.2093,5.076,4.9976,4.8878,0.0,4.6787,4.6238,4.5794,4.5036,4.4487,4.4095,4.3938,4.3415,4.2709,4.2474,4.2056,4.1559,4.1559,4.1455,4.1324,4.1324,4.1324,4.1324,4.1324,4.1324,4.1324,4.1324,4.1324,4.135,4.1533,4.1428,4.1246,4.0984,4.1141,4.1036,4.0043,3.986,3.9651,3.9076,3.8501,3.8135,3.8135,3.8004,3.79,3.79,3.79,3.79,3.79,3.7534,3.7194,3.7011,3.6253,3.573,3.5547,3.5547,3.526,3.4685,3.5077,3.5025,3.4397,3.4397,3.4397,3.4397,3.4397,3.4397,3.4397,3.4005,3.3744,5.5279,5.7474,5.888,5.9382,5.7022,5.3708,5.0368,4.7029,4.384,4.1103,4.0953,4.0949,3.9898,4.148,4.2785,4.2313,4.4098,4.6451,4.9213,5.1046,5.2955,5.5189,5.6858,5.8776,6.1531,6.3934,6.5162,6.4587,6.2966,6.1999,6.1973,5.9803,5.9072,6.0195,5.8575,5.7399,5.6824,5.6223,5.5647,5.5099,5.4497,5.421,5.4131,5.2406,5.1309,5.0734,4.9584,4.8747,0.0,4.6944,4.6473,4.6342,4.5192,4.4668,4.4643,4.4068,4.3912,4.3834,4.3206,4.2631,4.2211,4.2211,4.1768,4.1324,4.1324,4.1324,4.1324,4.1324,4.1324,4.1324,4.1324,4.1324,4.1455,4.2081,4.1716,4.1455,4.2081,4.1716,4.1141,4.0514,4.0409,4.0226,3.9677,3.9102,3.871,3.871,3.824,3.79,3.79,3.79,3.79,3.79,3.79,3.7665,3.7063,3.6985,3.6724,3.6123,3.6096,3.5861,3.5312,3.5286,3.5025,3.4397,3.4397,3.4397,3.4397,3.4397,3.4397,3.4397,3.4397,3.411,5.0836,5.3457,5.5064,5.411,5.2503,5.0494,4.7933,4.5347,4.2936,4.0927,4.035,4.0099,3.9747,4.0576,4.1731,4.3062,4.4192,4.5472,4.7129,4.9368,5.2205,5.602,6.0501,6.3413,6.3571,6.3727,6.3493,6.2862,6.2287,6.1267,5.9699,5.8549,5.8287,5.9019,5.7765,5.6798,5.6196,5.5647,5.5072,5.4471,5.3922,5.3217,5.2406,5.1858,5.0864,4.961,4.9244,4.8512,0.0,4.6787,4.6264,4.582,4.5036,4.4668,4.4696,4.4513,4.4199,4.3781,4.3232,4.2657,4.2159,4.1716,4.1455,4.1324,4.1324,4.1324,4.1324,4.1324,4.1324,4.1324,4.1324,4.1324,4.1455,4.2081,4.1742,4.1481,4.2107,4.1716,4.1272,4.1063,4.1036,4.0984,4.0801,4.0278,3.9886,3.9886,3.9416,3.8919,3.8501,3.8449,3.8318,3.7952,3.79,3.7821,3.7639,3.7246,3.6933,3.6724,3.6724,3.6462,3.5861,3.6253,3.6175,3.5574,3.5574,3.5391,3.5025,3.5025,3.4789,3.4397,3.4397,3.4319,4.6974,4.9866,5.1699,5.1096,4.964,4.7883,4.6075,4.3966,4.1957,4.0501,4.0099,3.9948,3.9747,4.03,4.1204,4.2384,4.3363,4.4543,4.61,4.8851,5.2485,5.729,6.1351,6.3643,6.3597,6.3149,6.266,6.2051,6.1163,6.0117,5.8915,5.766,5.7268,5.7843,5.6771,5.5987,5.5595,5.5046,5.4576,5.4184,5.3426,5.2537,5.157,5.1152,5.0132,4.8721,4.8512,4.7885,0.0,4.663,4.6133,4.5529,4.5218,4.4931,4.4696,4.4487,4.4173,4.3755,4.2971,4.2474,4.2133,4.1507,4.1324,4.1324,4.1324,4.1324,4.1324,4.1324,4.1324,4.135,4.1585,4.1638,4.1847,4.2682,4.2213,4.1794,4.2369,4.1873,4.1324,4.1324,4.1324,4.1324,4.1324,4.0801,4.0409,4.0409,3.9965,3.9468,3.9102,3.905,3.8919,3.8579,3.8553,3.8449,3.8214,3.7665,3.7351,3.7351,3.7351,3.7063,3.6462,3.6802,3.6724,3.6123,3.6096,3.594,3.56,3.56,3.5312,3.4737,3.4737,3.4737,0.0,4.6513,4.8535,4.9464,4.7857,4.5723,4.4593,4.273,0.0,3.9923,4.0099,4.0325,3.9898,4.0576,4.1075,4.0852,4.2057,4.3815,4.605,4.9655,5.3928,5.8887,6.011,6.088,6.1782,6.2455,6.2545,6.1764,5.9777,5.8732,5.9098,5.7085,5.6144,5.6667,5.5647,5.5072,5.5046,5.4445,5.4105,5.4001,5.2903,5.204,5.1387,5.0263,4.9165,0.0,4.7519,4.697,0.0,4.6473,4.6133,4.5581,4.5584,4.5192,4.4591,4.4016,4.3807,4.365,4.2604,4.2211,4.2133,4.1507,4.1324,4.1324,4.1324,4.1324,4.1324,4.1324,4.1324,4.1428,4.1977,4.2185,4.2499,4.3598,4.3023,4.2368,4.2892,4.2134,4.1324,4.1324,4.135,4.1376,4.1376,4.0958,4.0592,4.054,4.0122,3.9756,3.9677,3.9677,3.9651,3.9599,3.9573,3.9311,3.8762,3.824,3.7952,3.79,3.79,3.7665,3.709,3.7063,3.6802,3.6253,3.6201,3.6175,3.6175,3.6123,3.5835,3.5365,3.5312,3.5286,3.8101,0.0,4.362,4.2986,4.2986,4.2836,0.0,4.1351,4.0974,3.9923,3.9798,4.0099,4.0827,4.0475,4.0877,4.3263,4.3639,4.4392,4.6627,5.2324,5.7394,6.0225,6.3415,6.4069,6.0598,6.2425,6.2618,5.9536,5.9228,5.8444,5.6798,5.6196,5.5778,5.5517,5.5255,5.4889,5.4419,5.387,5.3112,5.2197,5.1518,5.0655,4.9636,4.893,4.8198,4.7492,4.6917,0.0,4.6473,4.6473,4.6133,4.5584,4.514,4.4617,4.4016,4.3441,4.3232,4.3127,4.2473,4.2211,4.2133,4.1507,4.1324,4.1324,4.1324,4.1324,4.1324,4.1324,4.1324,4.135,4.1481,4.1847,4.2395,4.3049,4.2683,4.2368,4.2892,4.2134,4.1324,4.1324,4.1664,4.1977,4.1977,4.2213,4.2265,4.1821,4.1638,4.1246,4.0331,4.0226,4.0069,3.9651,3.9207,3.8867,3.871,3.8579,3.8344,3.7926,3.79,3.7848,3.7691,3.7691,3.7612,3.7482,3.7037,3.6802,3.6802,3.6332,3.6044,3.5913,3.5495,3.5286,3.6467,3.9399,4.2062,4.1404,4.1706,4.1986,4.1078,4.0727,4.035,3.9496,3.9521,3.9873,4.0475,4.0727,4.1404,4.3212,4.4865,4.7224,5.111,5.4582,5.8482,6.3308,6.4429,6.4528,6.3876,6.303,6.1814,6.0004,5.8605,5.7477,5.6745,5.5961,5.5412,5.5125,5.4837,5.4524,5.421,5.3661,5.2798,5.1596,5.1047,5.0185,4.9061,4.846,4.7728,4.6917,4.6342,0.0,4.5715,4.6264,4.5976,4.5218,4.5166,4.4643,4.3834,4.2944,4.2788,4.2892,4.2056,4.1768,4.1716,4.1428,4.1324,4.1324,4.1324,4.1324,4.1324,4.1324,4.1507,4.1716,4.1716,4.2317,4.3023,4.3337,4.318,4.3075,4.3337,4.2709,4.203,4.1768,4.1951,4.2133,4.1821,4.203,4.2134,4.1821,4.1768,4.1559,4.0906,4.0827,4.0723,4.0435,4.0095,3.9677,3.9181,3.9128,3.8789,3.7952,3.79,3.79,3.79,3.79,3.79,3.79,3.7586,3.7273,3.7011,3.6959,3.6776,3.6515,3.6227,3.607,3.6772,3.9701,4.2263,4.1911,4.1961,4.1856,4.1229,4.0375,3.9572,3.9094,3.9446,3.9923,4.0249,4.1404,4.2464,4.2891,4.6398,5.1103,5.6893,5.7082,5.9175,6.6117,6.4596,6.4111,6.7189,6.3807,6.122,6.1,5.8088,5.6584,5.7285,5.5804,5.4968,5.4968,5.4393,5.4001,5.3792,5.3347,5.2511,5.1335,5.0786,4.9923,4.8799,4.8198,4.7336,4.6316,0.0,0.0,4.4931,4.5846,4.5611,4.4694,4.5088,4.4565,4.3493,4.2473,4.2343,4.2631,4.1664,4.1324,4.1324,4.1324,4.1324,4.1324,4.1324,4.1376,4.1428,4.135,4.1716,4.2185,4.2107,4.2996,4.3886,4.365,4.3676,4.3729,4.3677,4.318,4.2631,4.229,4.2159,4.1899,4.1507,4.1455,4.1428,4.1324,4.1402,4.1402,4.1324,4.1324,4.1324,4.1324,4.1246,4.0775,3.9808,3.9573,3.905,3.8083,3.7952,3.79,3.79,3.79,3.79,3.79,3.79,3.7665,3.7142,3.7665,3.7639,3.7142,3.7037,3.7011,3.7235,4.0345,4.2409,4.0526,4.0777,4.1204,4.0174,3.9823,3.9672,3.9597,3.9998,4.0953,4.2836,4.2986,4.3614,4.5999,4.9625,5.419,6.0237,6.1779,6.2887,6.4575,6.6263,6.5934,6.2298,6.3734,6.3112,5.8798,5.8373,5.7531,5.561,5.4759,5.4341,5.4341,5.3818,5.3034,5.2014,5.191,5.1282,5.0132,4.961,4.8721,4.7597,4.6996,4.6395,4.5715,0.0,4.5114,4.5454,4.514,4.4905,4.4589,4.3755,4.3023,4.2395,4.169,4.1507,4.1559,4.1376,4.1324,4.1324,4.1324,4.1324,4.1324,4.1324,4.1664,4.1951,4.1455,4.1716,4.2107,4.1559,4.2657,4.3677,4.2709,4.2814,4.3023,4.2578,4.1977,4.169,4.2133,4.1768,4.1559,4.1977,4.2081,4.1873,4.1402,4.1716,4.1873,4.1376,4.1324,4.1324,4.1324,4.0853,4.0488,4.0305,3.939,3.8762,3.8606,3.8161,3.79,3.79,3.79,3.79,3.79,3.79,3.7848,3.7769,3.7848,3.7848,3.7743,3.7246,3.7011,3.6866,3.936,4.1103,4.0676,4.2308,4.3489,4.148,4.1028,4.0852,4.0249,4.0576,4.1455,4.3062,4.4141,4.6586,5.2114,5.4586,5.7231,6.1301,6.218,6.2838,6.4169,6.5736,6.6098,6.4533,6.4277,6.2927,5.9746,5.8489,5.71,5.5191,5.4524,5.3922,5.3295,5.272,5.2014,5.1178,5.0551,4.9976,4.9453,4.8878,4.8146,4.7252,4.6421,4.5872,4.5584,0.0,4.4879,4.5059,4.4798,4.4539,4.4173,4.3337,4.2657,4.2185,4.1873,4.1585,4.1402,4.203,4.1847,4.135,4.1664,4.1559,4.1324,4.1324,4.1507,4.1664,4.1402,4.216,4.2944,4.2004,4.2814,4.3676,4.2814,4.284,4.2944,4.2683,4.2422,4.2213,4.2186,4.1951,4.1768,4.1716,4.1716,4.1611,4.135,4.1533,4.1611,4.135,4.1324,4.1324,4.1324,4.1063,4.0775,4.0435,3.9651,3.8919,3.8318,3.8031,3.79,3.79,3.79,3.79,3.79,3.79,3.79,3.79,3.79,3.79,3.79,3.7612,3.7482,3.6998,3.8894,4.0249,4.0924,4.3162,4.4769,4.3263,4.269,4.2313,4.1932,4.2253,4.2961,4.379,4.6045,4.9848,5.6214,5.8379,5.9986,6.209,6.2743,6.3515,6.4736,6.5391,6.602,6.674,6.4649,6.246,6.0597,5.8538,5.6645,5.4956,5.4053,5.3191,5.2328,5.157,5.0943,5.0394,4.9374,4.8878,4.8878,4.8277,4.7623,4.6834,4.6029,4.5558,4.5346,4.4931,4.4668,4.4642,4.438,4.4068,4.3598,4.2892,4.2343,4.1977,4.1977,4.169,4.1428,4.2317,4.2056,4.1402,4.1821,4.1664,4.1324,4.1324,4.1402,4.1481,4.135,4.2448,4.3441,4.2473,4.3075,4.3702,4.2997,4.2918,4.2944,4.2683,4.2631,4.2526,4.2264,4.2107,4.1873,4.1559,4.1402,4.1324,4.1324,4.1324,4.1324,4.1324,4.1324,4.1324,4.1324,4.1324,4.1063,4.0461,3.9913,3.9181,3.8161,3.7978,3.79,3.79,3.79,3.79,3.79,3.79,3.79,3.79,3.79,3.79,3.79,3.79,3.79,3.8508,4.035,4.1075,4.0676,4.1075,4.2253,4.4694,4.4041,4.3489,4.5472,4.6326,4.6692,4.6828,4.9713,5.269,5.4301,5.8646,6.2221,6.3515,6.6098,6.7466,6.6364,6.6858,6.6619,6.4902,6.4219,6.2615,5.9482,5.8525,5.6981,5.4394,5.2694,5.1753,5.1675,5.0603,4.974,4.9218,4.8564,4.825,4.825,4.7675,4.6813,4.5741,4.5663,4.5268,4.4746,4.4748,4.4668,4.4589,4.3572,4.3127,4.2971,4.1873,4.1402,4.1376,4.1376,4.135,4.1324,4.1402,4.1376,4.1324,4.135,4.135,4.1324,4.1324,4.169,4.2004,4.1455,4.216,4.2944,4.2317,4.3075,4.3651,4.2552,4.2631,4.2735,4.1664,4.1428,4.1585,4.2133,4.1742,4.1533,4.2081,4.1664,4.1324,4.1324,4.1324,4.1324,4.1324,4.1324,4.1324,4.1324,4.1324,4.1063,4.0461,3.9913,3.9337,3.8684,3.8187,3.79,3.79,3.79,3.79,3.79,3.79,3.79,3.79,3.79,3.79,3.79,3.79,3.79,3.7394,3.9195,4.035,4.0475,4.0874,4.1827,4.3966,4.502,4.5799,4.6652,4.7807,4.856,4.8209,5.2197,5.5794,5.6628,6.1239,6.4864,6.5028,6.6656,6.7152,6.5387,6.5991,6.5827,6.404,6.398,6.2795,5.9927,5.8767,5.6926,5.3913,5.2375,5.1282,5.0551,4.9793,4.9296,4.9087,4.8146,4.7466,4.7127,4.6552,4.5999,4.5555,4.519,4.4957,4.4668,4.4668,4.4513,4.4121,4.3337,4.2814,4.2422,4.1611,4.1324,4.1324,4.1324,4.1324,4.135,4.1716,4.1611,4.1376,4.1742,4.1611,4.1324,4.1324,4.1455,4.1585,4.1376,4.1638,4.2004,4.2185,4.2762,4.3232,4.2814,4.2605,4.2369,4.1925,4.1559,4.1376,4.1611,4.1455,4.1376,4.1611,4.1455,4.1324,4.1324,4.1324,4.1324,4.1324,4.1324,4.1324,4.1324,4.1324,4.1063,4.0461,4.0226,3.9703,3.8762,3.8214,3.79,3.79,3.79,3.79,3.79,3.79,3.79,3.79,3.79,3.79,3.79,3.79,3.79,3.638,3.8015,3.9245,3.9622,4.0526,4.1852,4.4091,4.5899,4.7581,4.9163,4.9816,5.0067,4.9866,5.3444,5.665,5.7174,6.1973,6.5502,6.5124,6.6182,6.6431,6.4967,6.5318,6.5054,6.3534,6.3411,6.2289,5.9655,5.8455,5.65,5.3353,5.2044,5.0846,4.9662,4.893,4.8538,4.8538,4.7388,4.6499,4.5924,4.5349,4.5062,4.5062,4.4643,4.446,4.4434,4.4278,4.4068,4.3807,4.3075,4.2422,4.1847,4.1455,4.1324,4.1324,4.1324,4.1324,4.1376,4.1768,4.1638,4.1376,4.1768,4.1638,4.1324,4.1324,4.1324,4.1324,4.1324,4.1324,4.1455,4.2004,4.2605,4.2971,4.2788,4.2735,4.2656,4.229,4.1873,4.1585,4.1585,4.1428,4.1324,4.1324,4.1324,4.1324,4.1324,4.1324,4.1324,4.1324,4.1324,4.1324,4.1324,4.1324,4.1141,4.0723,4.0514,4.0095,3.9285,3.8736,3.8292,3.7926,3.8057,3.8083,3.79,3.79,3.79,3.79,3.79,3.8004,3.8161,3.8161,3.8161,3.5911,3.7161,3.8015,3.8015,3.9697,4.2178,4.5573,4.6753,4.856,5.3532,5.2829,5.1473,5.2026,5.3512,5.4789,5.5077,6.0125,6.3832,6.3374,6.4845,6.5867,6.5524,6.5173,6.4485,6.3199,6.248,6.0983,5.829,5.7565,5.5823,5.2674,5.1417,5.03,4.912,4.7937,4.7278,4.7278,4.613,4.5349,4.4774,4.42,4.3912,4.3912,4.3912,4.3912,4.3833,4.3258,4.3337,4.3808,4.2682,4.1821,4.1324,4.1324,4.1324,4.1324,4.1324,4.1324,4.1324,4.1324,4.1324,4.1324,4.1324,4.1324,4.1324,4.1324,4.1324,4.1324,4.1324,4.1324,4.1455,4.2004,4.2605,4.2866,4.2368,4.3101,4.3625,4.2473,4.2211,4.2211,4.2211,4.1716,4.1324,4.1324,4.1324,4.1324,4.1324,4.1324,4.1324,4.1324,4.1324,4.1324,4.1324,4.1324,4.1324,4.1324,4.0775,4.0435,4.0409,3.9913,3.9128,3.7978,3.8423,3.8475,3.7926,3.7926,3.7926,3.7926,3.7926,3.8187,3.871,3.871,3.871,3.5066,3.6948,3.8718,3.9094,4.1153,4.384,4.6778,4.7883,4.949,5.3708,5.3432,5.2477,5.2653,5.4185,5.5538,5.5666,5.9697,6.2915,6.3215,6.4251,6.4899,6.4842,6.3741,6.281,6.2421,6.1343,6.016,5.8881,5.74,5.555,5.3234,5.1265,4.9783,4.9066,4.7555,4.6917,4.7278,4.5794,4.4931,4.4722,4.3755,4.3284,4.3284,4.3284,4.3284,4.3258,4.3101,4.2892,4.2656,4.1873,4.1455,4.1324,4.1324,4.1324,4.1324,4.1324,4.1324,4.1324,4.1324,4.1324,4.1324,4.1324,4.1324,4.1324,4.1324,4.1324,4.1324,4.1324,4.1324,4.1455,4.2004,4.2605,4.3075,4.331,4.3624,4.3676,4.2918,4.2448,4.2107,4.1638,4.1428,4.1324,4.1324,4.1324,4.1324,4.1324,4.1324,4.1324,4.1324,4.1324,4.1324,4.1324,4.1324,4.1324,4.1324,4.1167,4.0853,4.0435,4.0671,4.0305,3.9155,3.9259,3.9259,3.9102,3.9102,3.9102,3.9102,3.9102,3.9181,3.9337,3.9337,3.9337,3.5357,3.7345,3.9271,4.0651,4.276,4.5246,4.8234,5.0193,5.2076,5.4411,5.4185,5.3658,5.3858,5.4731,5.5823,5.6876,5.9456,6.1855,6.3405,6.3573,6.3624,6.3921,6.2844,6.1792,6.0984,6.0176,5.9189,5.8022,5.664,5.5054,5.3123,5.0778,4.9146,4.83,4.6453,4.5611,4.595,4.4696,4.3964,4.3702,4.3023,4.2579,4.2343,4.2579,4.2683,4.2683,4.2683,4.2369,4.1794,4.1455,4.1324,4.1324,4.1324,4.1324,4.1324,4.1324,4.1324,4.1324,4.1324,4.1324,4.1324,4.1324,4.1324,4.1324,4.1324,4.1324,4.1324,4.1324,4.1324,4.1507,4.2291,4.2762,4.3101,4.3467,4.3885,4.399,4.3206,4.2762,4.2343,4.1768,4.1455,4.1324,4.1324,4.1324,4.1324,4.1324,4.1324,4.1324,4.1324,4.1324,4.1324,4.1324,4.1324,4.1324,4.1324,4.1324,4.1167,4.0801,4.1115,4.101,4.0305,4.0069,3.9834,3.9599,3.9599,3.9599,3.9599,3.9599,3.973,3.9939,3.9939,3.9939,3.6159,3.7965,3.9597,4.2359,4.4468,4.6652,4.9715,5.2854,5.5089,5.5139,5.4838,5.4712,5.5214,5.5099,5.568,5.7959,5.8951,6.0385,6.3158,6.2555,6.2145,6.2931,6.2301,6.1104,5.9279,5.889,5.8022,5.6226,5.5359,5.4128,5.2406,5.007,4.8287,4.7213,4.497,4.3807,4.3912,4.3258,4.2683,4.2211,4.2159,4.1821,4.1324,4.1847,4.2133,4.2133,4.2133,4.1794,4.1324,4.1324,4.1324,4.1324,4.1324,4.1324,4.1324,4.1324,4.1324,4.1324,4.1324,4.1324,4.1324,4.1324,4.1324,4.1324,4.1324,4.1324,4.1324,4.1324,4.1324,4.1559,4.2657,4.2971,4.3023,4.3075,4.3938,4.438,4.3337,4.3049,4.284,4.2265,4.1716,4.1324,4.1324,4.1324,4.1324,4.1324,4.1324,4.1324,4.1324,4.1324,4.1324,4.1324,4.1324,4.1324,4.1324,4.1324,4.1324,4.1324,4.1324,4.1324,4.1324,4.0775,4.0252,3.9782,3.9756,3.9756,3.9756,3.9756,4.0017,4.0488,4.0488,4.0488,3.4872,3.7419,4.0174,4.2936,4.6175,4.9012,5.0167,5.1649,5.2929,5.3381,5.4059,5.4683,5.4712,5.434,5.4137,5.4712,5.5517,5.6866,5.9025,5.9611,6.0441,6.2129,6.0805,5.9578,5.9129,5.7244,5.5867,5.5448,5.3803,5.2449,5.1524,4.8927,4.7359,4.7058,4.4564,4.3415,4.3912,4.2866,4.2291,0.0,4.1716,4.1428,4.1324,4.1428,4.1507,4.1507,4.1507,4.1428,4.1324,4.1324,4.1324,4.1324,4.1324,4.1324,4.1324,4.1324,4.1324,4.1324,4.1324,4.1324,4.1324,4.1324,4.1324,4.1324,4.1324,4.1324,4.1324,4.1324,4.1324,4.1481,4.216,4.2683,4.3127,4.3572,4.4225,4.4539,4.3833,4.3337,4.284,4.2265,4.1716,4.1324,4.1324,4.1324,4.1324,4.1324,4.1324,4.1324,4.1324,4.1324,4.1324,4.1324,4.1324,4.1324,4.1324,4.1324,4.1324,4.1324,4.1324,4.1324,4.1324,4.1193,4.1063,4.0958,4.0958,4.0958,4.0958,4.0958,4.101,4.1115,4.1115,4.1115,3.5624,3.8215,4.1003,4.4819,4.7883,5.0142,5.0695,5.1297,5.18,5.2076,5.3005,5.3783,5.3783,5.3532,5.3337,5.3529,5.3671,5.472,5.7322,5.727,5.7973,6.0846,5.9368,5.8141,5.8141,5.6346,5.5059,5.476,5.2875,5.1588,5.1229,4.8515,4.6727,4.6167,4.404,4.2827,4.2657,4.2056,4.1768,4.1768,4.1455,4.1324,4.1324,4.1324,4.1324,4.1324,4.1324,4.1324,4.1324,4.1324,4.1324,4.1324,4.1324,4.1324,4.1324,4.1324,4.1324,4.1324,4.1324,4.1324,4.1324,4.1324,4.1324,4.1324,4.1324,4.1324,4.1324,4.1324,4.1324,4.1455,4.2004,4.2605,4.3101,4.3389,4.3912,4.4173,4.3598,4.3023,4.2448,4.1873,4.1533,4.1324,4.1324,4.1324,4.1324,4.1324,4.1324,4.1324,4.1324,4.1324,4.1324,4.1324,4.1324,4.1324,4.1324,4.1324,4.1324,4.1324,4.1324,4.1324,4.1324,4.1324,4.1324,4.1324,4.1324,4.1324,4.1324,4.1324,4.1324,4.1324,4.1324,4.1324,3.6479,3.922,4.2032,4.6627,4.8962,5.0293,5.0845,5.0996,5.0996,5.0996,5.1875,5.2603,5.2503,5.2503,5.2506,5.2492,5.2178,5.2917,5.5864,5.5112,5.5524,5.8902,5.7886,5.6944,5.6944,5.5658,5.461,5.4072,5.2187,5.099,5.09,4.8282,4.6293,4.5166,4.3616,4.2333,4.1324,4.1324,4.1324,4.1324,4.1324,4.1324,4.1324,4.1219,4.1219,4.1298,4.1219,4.1219,4.1298,4.1219,4.1219,4.1324,4.1324,4.1324,4.1324,4.1324,4.1324,4.1324,4.1324,4.1324,4.1324,4.1324,4.1324,4.1324,4.1324,4.1324,4.1324,4.1324,4.1324,4.1428,4.1899,4.2448,4.2866,4.2866,4.3232,4.3467,4.3101,4.2579,4.2081,4.1559,4.1376,4.1324,4.1324,4.1324,4.1324,4.1324,4.1324,4.1324,4.1324,4.1324,4.1324,4.1324,4.1324,4.1324,4.1324,4.1324,4.1324,4.1324,4.1324,4.1324,4.1324,4.1324,4.1324,4.1324,4.1324,4.1324,4.1324,4.1324,4.1324,4.1324,4.1324,4.1324,3.4947,3.9195,4.3388,4.6476,4.8134,4.9138,4.969,4.9816,4.9816,4.9816,5.072,5.1348,5.0845,5.0745,5.0459,4.9519,4.952,5.0142,5.1475,5.2556,5.3923,5.5816,5.6189,5.6286,5.6286,5.4581,5.3414,5.3324,5.1498,5.0122,4.9599,4.7783,4.6091,4.45,4.3348,4.2333,4.1324,4.1324,4.1324,4.1324,4.1324,4.1324,4.1298,4.0775,4.0827,4.1298,4.0775,4.0827,4.1272,4.0749,4.0853,4.1324,4.1324,4.1324,4.1324,4.1324,4.1324,4.1324,4.1324,4.1324,4.1324,4.1324,4.1324,4.1324,4.1324,4.1324,4.1324,4.1324,4.1324,4.1324,4.1402,4.1847,4.2342,4.2342,4.2395,4.25,4.2918,4.2579,4.2185,4.2133,4.1664,4.1324,4.1324,4.1324,4.1324,4.1324,4.1324,4.1324,4.1324,4.1324,4.1324,4.1324,4.1324,4.1324,4.1324,4.1324,4.1324,4.1324,4.1324,4.1324,4.1324,4.1324,4.1324,4.1324,4.1324,4.1324,4.1324,4.1324,4.1324,4.1324,4.1324,4.1324,3.6206,3.9471,4.2333,4.5447,4.6803,4.7606,4.846,4.8661,4.8661,4.8661,4.9038,4.9515,4.9891,4.9439,4.8862,4.836,4.8283,4.865,4.9669,5.0547,5.1849,5.4124,5.4205,5.434,5.5009,5.3593,5.2636,5.2636,5.081,4.9583,4.9329,4.7867,4.6488,4.519,4.3854,4.2821,4.2137,4.1255,4.0984,4.1324,4.1324,4.1324,4.1298,4.0697,4.0566,4.0775,4.02,4.0278,4.0801,4.0514,4.0775,4.1324,4.1324,4.1324,4.1324,4.1324,4.1324,4.1348,4.1967,4.1769,4.1398,4.1967,4.1769,4.1324,4.1324,4.1324,4.1324,4.1324,4.1324,4.1324,4.1324,4.1742,4.2133,4.1768,4.1925,4.216,4.2082,4.1873,4.169,4.169,4.1481,4.1324,4.1324,4.1324,4.1324,4.1324,4.1324,4.1324,4.1324,4.1324,4.1324,4.1324,4.1324,4.1324,4.1324,4.1324,4.1324,4.1324,4.1324,4.1324,4.1324,4.1324,4.1324,4.1324,4.1324,4.1324,4.1324,4.1324,4.1324,4.1324,4.1324,4.1324,3.6697,3.8718,4.04,4.3463,4.4945,4.5949,4.7054,4.7405,4.7506,4.7506,4.738,4.7581,4.8586,4.8284,4.7782,4.7355,4.7384,4.759,4.8157,4.8786,5.0132,5.2373,5.2503,5.2836,5.3853,5.2725,5.1947,5.1947,5.0272,4.9239,4.906,4.8087,4.6992,4.5824,4.4214,4.312,4.2575,4.1157,4.0723,4.1324,4.1167,4.1089,4.1063,4.0331,3.9991,3.9965,3.9786,4.006,4.0562,4.0562,4.0882,4.1436,4.1345,4.1324,4.1324,4.1324,4.1324,4.1398,4.2137,4.1918,4.1398,4.2186,4.1918,4.1324,4.1324,4.1324,4.1324,4.1324,4.1324,4.1324,4.1324,4.1638,4.1847,4.1428,4.1638,4.1847,4.1402,4.1324,4.1324,4.1324,4.1324,4.1324,4.1324,4.1324,4.1324,4.1324,4.1324,4.1324,4.1324,4.1324,4.1324,4.1324,4.1324,4.1324,4.1324,4.1324,4.1324,4.1324,4.1324,4.1324,4.1324,4.1324,4.1324,4.1324,4.1324,4.1324,4.1324,4.1324,4.1324,4.1324,4.1324,4.1324,3.4555,3.6132,3.7914,4.0199,4.2359,4.4242,4.5372,4.6024,4.6401,4.6401,4.5974,4.5799,4.6376,4.7255,4.7405,4.5874,4.6323,4.6569,4.5853,4.7453,4.8981,4.9855,5.1408,5.2632,5.3196,5.2037,5.1259,5.1259,5.0032,4.903,4.8386,4.8267,4.7511,4.5853,4.4214,4.2898,4.1951,4.0945,4.0723,4.1298,4.0749,4.0461,4.0435,3.9311,3.8789,3.8836,3.9712,4.0421,4.0962,4.0962,4.1268,4.1746,4.141,4.1324,4.1324,4.1324,4.1324,4.1324,4.1374,4.1348,4.1324,4.1348,4.1348,4.1324,4.1324,4.1324,4.1324,4.1324,4.1324,4.1324,4.1324,4.1324,4.135,4.1324,4.1324,4.135,4.1324,4.1324,4.1324,4.1324,4.1324,4.1324,4.1324,4.1324,4.1324,4.1324,4.1324,4.1324,4.1324,4.1324,4.1324,4.1324,4.1324,4.1324,4.1324,4.1324,4.1324,4.1324,4.1324,4.1324,4.1324,4.1324,4.1324,4.1324,4.1324,4.1324,4.1324,4.1324,4.1324,4.1324,4.1324,4.1324,3.4424,3.5152,3.6232,3.8818,4.0325,4.1555,4.3011,4.3765,4.4166,4.4166,4.4292,4.4468,4.4669,4.502,4.5321,4.5472,4.5337,4.5145,4.5047,4.6087,4.7123,4.7583,4.847,4.9521,5.0759,5.0055,4.984,5.0508,4.9374,4.8536,4.8297,4.7878,4.7165,4.6134,4.4031,4.192,3.9879,4.0237,4.0514,4.0749,4.0514,4.0409,4.0383,3.9233,3.871,3.8757,3.9704,4.0485,4.1028,4.0354,4.101,4.2349,4.1617,4.1324,4.1324,4.1324,4.1324,4.1398,4.2065,4.1819,4.1398,4.2065,4.1819,4.1324,4.1324,4.1324,4.1324,4.1324,4.1324,4.1324,4.1324,4.1324,4.1324,4.1324,4.1324,4.1324,4.1324,4.1324,4.1324,4.1324,4.1324,4.1324,4.1324,4.1324,4.1324,4.1324,4.1324,4.1324,4.1324,4.1324,4.1324,4.1324,4.1324,4.1324,4.1324,4.1324,4.1324,4.1324,4.1324,4.1324,4.1324,4.1664,4.1873,4.1873,4.2213,4.2056,4.1324,4.1324,4.1324,4.1324,4.1324,4.1324,3.3972,3.4299,3.5027,3.7486,3.8316,3.9069,4.0955,4.1605,4.1932,4.2108,4.2585,4.2986,4.2986,4.2866,4.3224,4.4443,4.4187,4.3914,4.407,4.4965,4.5767,4.6325,4.6836,4.7601,4.8665,4.8442,4.8482,4.9034,4.8388,0.0,4.7967,4.7339,4.6433,4.5243,4.33,4.1284,3.9197,3.9611,3.9939,4.0148,3.9939,3.9834,3.9808,3.8867,3.8449,3.8495,3.9116,4.0096,4.1233,4.0958,4.1882,4.3349,4.2252,4.1819,4.1769,4.1398,4.1324,4.1398,4.2039,4.1868,4.1398,4.2115,4.1819,4.1324,4.1324,4.1324,4.1324,4.1324,4.1324,4.1324,4.1324,4.1324,4.1324,4.1324,4.1324,4.1324,4.1324,4.1324,4.1324,4.1324,4.1324,4.1324,4.1324,4.1324,4.1376,4.1559,4.1611,4.1664,4.1873,4.1716,4.1611,4.1611,4.1428,4.1324,4.1324,4.1324,4.1324,4.1324,4.1324,4.1402,4.1585,4.1977,4.2265,4.2448,4.2814,4.2657,4.1899,4.169,4.1611,4.1611,4.1402,4.1324,0.0,0.0,0.0,3.5927,3.6332,3.6935,3.9069,3.9597,3.9747,4.0325,4.0877,4.1225,4.125,4.1064,4.1347,4.269,4.2967,4.2957,4.2971,4.3951,4.5077,4.6245,4.6836,4.7122,4.7079,4.7377,4.734,4.6824,4.7111,4.7309,4.7309,4.6651,4.5243,4.3034,4.2067,4.1107,4.006,3.9197,3.8998,3.9573,3.8998,3.871,3.8684,3.8161,3.79,3.79,3.7952,3.933,4.1687,4.2716,4.384,4.4687,4.331,4.2792,4.2695,4.167,4.1324,4.1374,4.1324,4.1324,4.1324,4.1324,4.1324,4.1324,4.1324,4.1324,4.1324,4.1324,4.1324,4.1324,4.1324,4.1324,4.1324,4.1324,4.1324,4.1324,4.1324,4.1324,4.1324,4.1324,4.1324,4.1324,4.1324,4.1324,4.1507,4.2107,4.2211,4.2369,4.2918,4.2526,4.2238,4.2211,4.1664,4.1324,4.1324,4.1324,4.135,4.135,4.135,4.1611,4.2211,4.2264,4.2474,4.3023,4.3075,4.3075,4.3075,4.2474,4.2238,4.2238,4.1611,4.1324,3.3111,0.0,0.0,0.0,0.0,0.0,3.6411,3.6985,3.7612,3.8492,3.9322,4.0004,4.0601,4.0812,4.0995,4.1423,4.1658,4.2047,4.2872,4.3447,4.4084,4.5047,4.5286,4.5555,4.5919,4.6258,4.651,0.0,4.7111,4.7309,4.7309,4.6202,4.4486,4.208,4.1254,4.0118,3.8523,3.9306,3.9462,3.8972,3.9462,3.9382,3.8684,3.8161,3.79,3.7952,3.8789,3.9934,4.1197,4.079,4.2556,4.5248,4.2689,4.2625,4.3701,4.1918,4.1769,4.2284,4.1547,4.1324,4.1324,4.1324,4.1324,4.1324,4.1324,4.1324,4.1324,4.1324,4.1324,4.1324,4.1324,4.1324,4.1324,4.1324,4.1324,4.1324,4.1324,4.1324,4.1324,4.1324,4.1324,4.1324,4.1324,4.1324,4.1376,4.1533,4.1899,4.2264,4.2369,4.2631,4.2631,4.2264,4.2081,4.1768,4.135,4.169,4.1925,4.1925,4.2317,4.2631,4.2788,4.318,4.3467,4.3624,4.4042,4.4251,4.4251,4.3258,4.2788,4.2762,4.2186,4.1716,3.3144,3.3111,3.3269,3.4048,0.0,0.0,3.542,3.5768,3.6117,3.7048,3.7825,3.8532,3.8994,3.9473,3.9853,3.9982,4.0516,4.1363,4.2624,4.317,4.3747,4.4615,4.4668,4.4702,4.4834,4.5189,4.5595,4.6099,4.6456,4.662,4.6459,4.5723,4.4371,4.236,4.1566,4.0674,3.9618,4.0052,3.9843,3.8918,3.9483,3.9237,3.837,3.8057,3.79,3.7952,3.8606,3.9608,4.0721,4.0341,4.2408,4.5644,4.3862,4.389,4.4684,4.2674,4.2284,4.2647,4.1647,4.1324,4.1324,4.1324,4.1324,4.1324,4.1324,4.1324,4.1324,4.1324,4.1324,4.1324,4.1324,4.1324,4.1324,4.1324,4.1324,4.1324,4.1324,4.1324,4.1324,4.1324,4.1324,4.1324,4.1324,4.1507,4.1742,4.2004,4.2526,4.3023,4.3206,4.331,4.3258,4.297,4.2657,4.2396,4.2056,4.2343,4.2422,4.2238,4.2709,4.3023,4.3023,4.3572,4.399,4.4225,4.4565,4.4668,4.4668,4.3807,4.3258,4.2997,4.2422,4.2108,3.3294,3.3212,3.3395,3.4374,3.3947,0.0,3.5249,3.5269,3.5161,3.5876,3.6504,3.6959,3.6994,3.7689,3.8299,3.8492,3.955,4.0861,4.2294,4.2967,4.3643,4.4511,4.4696,4.4487,4.3833,4.4245,4.4633,4.4945,4.5373,4.5566,4.5323,4.5214,4.4575,4.32,4.2327,4.1877,4.1852,4.1056,4.0219,3.9387,3.9387,3.8881,3.8037,3.7946,3.79,3.79,3.7978,3.8747,4.0096,4.0976,4.3052,4.5692,4.566,4.5779,4.5734,4.3721,4.2985,4.284,4.1819,4.1398,4.1324,4.1324,4.1324,4.1324,4.1324,4.1324,4.1324,4.1324,4.1324,4.1324,4.1324,4.135,4.1402,4.1324,4.1402,4.1455,4.135,4.135,4.1402,4.1402,4.1402,4.1402,4.1324,4.1847,4.2422,4.2866,4.3415,4.399,4.4565,4.4173,4.3912,4.3912,4.3415,4.3075,4.3023,4.3023,4.284,4.2421,4.284,4.3154,4.3206,4.3702,4.4199,4.4668,4.4668,4.4668,4.4668,4.4225,4.3676,4.3101,4.2605,4.2605,3.3771,3.3746,3.3796,3.3997,3.4223,0.0,3.3784,3.3909,3.4312,3.4866,3.5429,3.5967,3.6442,3.7333,3.7745,3.6903,3.8486,4.0332,4.175,4.2632,4.3336,4.3964,4.4434,4.433,4.3284,4.4004,4.4171,4.3327,4.4351,4.5098,4.5293,4.4796,4.3812,4.2293,4.1593,4.1085,4.0901,4.092,4.0713,4.0346,4.0346,3.9869,3.8926,3.8239,3.79,3.7926,3.837,3.8699,3.9183,4.1874,4.3783,4.5038,4.4715,4.5582,4.677,4.473,4.4031,4.389,4.284,4.1967,4.1324,4.1324,4.1324,4.1324,4.1324,4.1324,4.1324,4.1324,4.1324,4.1324,4.1324,4.1664,4.1873,4.1428,4.203,4.2448,4.1507,4.1664,4.2004,4.2004,4.2004,4.1847,4.1402,4.216,4.2735,4.2396,4.2814,4.3389,4.3964,4.3938,4.3912,4.3912,4.3781,4.352,4.3049,4.3023,4.318,4.352,4.365,4.3912,4.4328,4.4513,4.4617,4.4668,4.4668,4.4668,4.4668,4.4617,4.4278,4.3702,4.3651,4.3363,3.4374,3.4098,3.3972,3.4248,3.4186,0.0,0.0,3.3903,3.4109,3.4477,3.4495,3.459,3.5263,3.5737,3.618,3.6599,3.7609,3.8795,4.0083,4.1354,4.25,4.3337,4.3441,4.3337,4.3049,4.3199,4.3172,4.2798,4.3602,4.4223,4.4549,4.3985,4.3337,4.2688,4.2294,4.2063,4.1976,4.2093,4.1861,4.1281,4.0817,4.013,3.9166,3.8304,3.79,3.7926,3.8187,3.8318,3.851,4.0832,4.2581,4.3872,4.5252,4.6121,4.6432,4.5417,4.5052,4.4915,4.389,4.2889,4.2065,4.2065,4.172,4.1324,4.1324,4.1324,4.1324,4.1324,4.1324,4.1324,4.1324,4.1533,4.1742,4.1742,4.2186,4.2526,4.2213,4.2396,4.2605,4.2605,4.2814,4.284,4.2265,4.2866,4.3258,4.2683,4.3337,4.3885,4.3912,4.4121,4.4304,4.4304,4.4304,4.4199,4.3885,4.3885,4.3859,4.3912,4.4147,4.4304,4.4304,4.4853,4.5297,4.5584,4.5323,4.5111,4.5111,4.4879,4.4591,4.4278,4.4016,4.3885,3.5152,3.465,3.4299,3.465,3.4256,3.3918,0.0,0.0,0.0,3.4256,3.3783,3.356,3.4152,3.425,3.4717,3.6061,3.6713,3.7332,3.7978,3.9547,4.1115,4.2369,4.203,4.1951,4.2631,4.1977,4.1878,4.2771,4.2694,4.289,4.3502,4.3081,4.286,4.305,4.3091,4.317,4.329,4.317,4.2822,4.2252,4.1113,4.0216,3.9431,3.8395,3.7992,3.8148,3.7992,3.8181,3.8698,3.9943,4.1356,4.3008,4.5537,4.6388,4.6077,4.5869,4.5779,4.5689,4.4869,4.3937,4.3081,4.3081,4.2431,4.1547,4.1374,4.1324,4.1324,4.1324,4.1324,4.1324,4.1324,4.1402,4.1611,4.2107,4.2395,4.2579,4.2944,4.3101,4.318,4.318,4.3572,4.3702,4.3127,4.3598,4.3833,4.3284,4.3964,4.4434,4.4095,4.433,4.4617,4.4668,4.4668,4.4668,4.4668,4.4617,4.4408,4.4068,4.4356,4.4408,4.4042,4.5062,4.5898,4.6473,4.6029,4.5794,4.5794,4.5192,4.4798,4.4668,4.4251,4.4278,3.6207,3.578,3.5207,3.4781,3.5002,3.4947,3.3817,0.0,3.3933,3.3785,0.0,3.3691,3.3742,0.0,0.0,3.3752,3.5789,3.7027,3.5844,3.7194,3.8893,4.0514,4.0226,4.0331,4.1402,4.0043,4.0108,4.2635,4.0849,4.057,4.2564,4.2337,4.2104,4.217,4.2367,4.2761,4.329,4.2761,4.2722,4.313,4.1407,4.056,4.0389,3.8666,3.8304,3.8988,3.8239,3.9159,4.1199,4.1371,4.2205,4.3336,4.3732,4.5196,4.7019,4.6121,4.5779,4.5779,4.5689,4.4961,4.4125,4.4125,4.3464,4.2479,4.1597,4.1324,4.1324,4.1324,4.1324,4.1324,4.1324,4.169,4.2133,4.2185,4.2996,4.3572,4.3127,4.3415,4.3781,4.3781,4.3833,4.3702,4.3127,4.3912,4.4434,4.3859,4.3885,4.4121,4.4565,4.4251,4.4173,4.467,4.4668,4.4668,4.4668,4.4251,4.4147,4.4591,4.4225,4.4173,4.4617,4.5271,4.5898,4.6473,4.6421,4.6395,4.6395,4.5794,4.519,4.4668,4.467,4.467,3.6405,3.6207,3.5927,3.5491,3.5335,3.5072,3.4425,3.4161,3.4033,3.4115,0.0,0.0,0.0,0.0,0.0,0.0,3.4647,3.5106,3.4842,3.5417,3.6645,3.871,3.8449,0.0,3.9259,3.8684,3.8714,3.9847,3.9043,3.9078,4.0525,4.0451,4.0859,4.1976,4.2111,4.2514,4.329,4.306,4.306,4.329,4.2017,4.1436,4.1394,4.0071,3.9678,4.0,3.9634,4.0078,4.104,4.1449,4.2433,4.3728,4.3489,4.4662,4.6388,4.5958,4.6166,4.6682,4.6682,4.6032,4.5098,4.4499,4.4031,4.3606,4.3177,4.2625,4.2186,4.2186,4.172,4.1324,4.1324,4.1742,4.229,4.2579,4.3284,4.3912,4.399,4.4199,4.4356,4.4356,4.4356,4.4304,4.4042,4.4354,4.4539,4.3964,4.4147,4.433,4.4251,4.4304,4.446,4.4696,4.4668,4.4668,4.4668,4.4513,4.446,4.4722,4.4513,4.4774,4.5715,4.5976,4.6552,4.744,4.7153,4.697,4.697,4.6395,4.582,4.519,4.4824,4.4668,3.6681,3.6631,3.6502,3.6008,3.5618,3.5226,3.4881,3.465,3.4503,3.4533,3.4215,0.0,0.0,0.0,3.3632,3.4277,0.0,3.4084,3.4162,3.4319,3.5155,3.7168,3.7325,0.0,0.0,3.7508,3.7534,3.7874,3.7456,3.7614,3.8523,3.9054,3.9966,4.1344,4.2012,4.2659,4.329,4.329,4.329,4.329,4.2415,4.2005,4.1976,4.1029,4.0731,4.0986,4.0731,4.0986,4.1609,4.1896,4.3013,4.4557,4.3999,4.4796,4.6166,4.5913,4.6432,4.7309,4.7309,4.6814,4.6077,4.5052,4.473,4.4684,4.4406,4.3606,4.2792,4.2792,4.2115,4.135,4.1507,4.1847,4.2395,4.3075,4.3572,4.4016,4.4591,4.4668,4.4668,4.4668,4.4668,4.4668,4.4668,4.4668,4.4591,4.4173,4.446,4.4565,4.4173,4.446,4.4668,4.4668,4.4668,4.4668,4.4668,4.4668,4.4746,4.4957,4.4772,4.5323,4.6656,4.6552,4.7022,4.8172,4.778,4.7571,4.7571,4.6839,4.6264,4.5846,4.5245,4.4824,3.7312,0.0,3.6981,3.6105,3.5872,3.5658,3.4809,3.5051,3.5344,3.4977,3.5331,3.5781,3.6,3.6018,3.5652,3.458,3.4868,0.0,0.0,3.4058,3.4842,3.6018,3.7168,3.7665,0.0,3.6515,3.6645,0.0,3.6332,0.0,3.7004,3.8757,3.9704,3.9746,4.2023,4.325,4.329,4.329,4.329,4.329,4.2415,4.2005,4.1976,4.1029,4.1113,4.1893,4.0986,4.1961,4.4124,4.327,4.4272,4.6122,4.5157,4.5786,4.7106,4.6166,4.6432,4.7309,4.7309,4.7266,4.7062,4.6077,4.5734,4.5553,4.4591,4.3606,4.2792,4.2792,4.2115,4.1428,4.2004,4.2211,4.2499,4.3572,4.3912,4.4016,4.4591,4.4668,4.4668,4.4668,4.4668,4.4668,4.4668,4.4668,4.4668,4.4696,4.4668,4.4668,4.4696,4.4668,4.4668,4.4668,4.4668,4.4668,4.4668,4.4668,4.4929,4.5503,4.5007,4.5451,4.7174,4.6761,4.7022,4.8172,4.8172,4.8146,4.8146,4.7022,4.6473,4.6447,4.5872,4.5297,0.0,0.0,3.8038,3.6977,0.0,0.0,3.5823,3.5971,3.6185,3.5765,3.6147,3.6504,3.6175,3.5809,3.5443,3.5051,3.4816,3.458,0.0,3.4293,3.4685,3.5469,3.594,3.594,3.5338,0.0,0.0,0.0,3.5417,0.0,0.0,3.7763,3.9114,3.9676,4.1464,4.2699,4.329,4.2739,4.2739,4.329,4.2415,4.2293,4.282,4.1935,4.2017,4.278,4.1893,4.2602,4.4306,4.4477,4.5233,4.6309,4.6426,4.6767,4.7149,4.6166,4.6432,4.7309,4.7309,4.7309,4.7266,4.6931,4.677,4.6726,4.6373,4.5553,4.4879,4.5334,4.4215,4.3034,4.3647,4.354,4.3389,4.3834,4.4173,4.4487,4.4696,4.4668,4.4668,4.4668,4.4668,4.4668,4.4668,4.4668,4.4668,4.4668,4.4668,4.4668,4.4668,4.4668,4.4668,4.4668,4.4668,4.4668,4.4668,4.5088,4.5558,4.6159,4.6003,4.6316,4.7226,4.7153,4.7414,4.8172,4.8172,4.8172,4.8172,4.7806,4.7414,4.7048,4.6839,4.5973,3.7837,3.844,0.0,3.7935,3.7884,0.0,3.6703,0.0,3.7085,3.646,3.6862,3.7142,3.6541,3.6305,3.594,3.5129,3.4816,3.458,0.0,3.4267,3.4528,3.492,3.5155,3.5155,3.4763,3.5077,0.0,0.0,0.0,0.0,0.0,0.0,3.8486,3.9408,4.1101,4.2415,4.329,4.2739,4.2739,4.329,4.2739,4.2739,4.329,4.2699,4.278,4.325,4.2699,4.3016,4.3977,4.4915,4.5544,4.6052,4.695,4.7309,4.7222,4.6594,4.6726,4.7309,4.7309,4.7309,4.7309,4.7309,4.7309,4.7309,4.7309,4.6594,4.5924,4.6592,4.5572,4.4468,4.5266,4.5255,4.4964,4.4837,4.5077,4.5181,4.4776,4.4668,4.4668,4.4668,4.4668,4.4668,4.4668,4.4668,4.4668,4.4668,4.485,4.4903,4.4748,4.4905,4.4957,4.4694,4.4668,4.4772,4.4981,4.5401,4.595,4.6734,4.6604,4.6839,4.7597,4.744,4.778,4.8773,4.8381,4.8381,4.8773,4.8172,4.7702,4.7278,4.7278,4.663]}]]